[[{"header":{"parameterUnit":"m.s-1","parameterCategory":1,"la1":31.0,"la2":29.5877,"lo1":-88.7671,"lo2":-86.6584,"dx":0.0162,"dy":0.0185,"nx":115,"ny":88,"refTime":"2022-12-03T18:00:00:Z","depth":0,"parameterNumber":2,"parameterNumberName":"U-component_of_WINDS"},"data":[0.0,0.0,0.0,0.0,0.0,0.0,0.0,0.0,0.0,0.0,0.0,0.0,0.0,0.0,0.0,0.0,0.0,0.0,0.0,0.0,0.0,0.0,0.0,0.0,0.0,0.0,0.0,0.0,0.0,0.0,0.0,0.0,0.0,0.0,0.0,0.0,0.0,0.0,0.0,0.0,0.0,0.0,0.0,0.0,0.0,0.0,0.0,0.0,0.0,0.0,0.0,0.0,0.0,0.0,0.0,0.0,0.0,0.0,0.0,0.0,0.0,0.0,0.0,0.0,0.0,0.0,0.0,0.0,0.0,0.0,0.0,0.0,0.0,0.0,0.0,0.0,0.0,0.0,0.0,0.0,0.0,0.0,0.0,0.0,0.0,0.0,0.0,0.0,0.0,0.0,0.0,0.0,0.0,0.0,0.0,0.0,0.0,0.0,0.0,0.0,0.0,0.0,0.0,0.0,0.0,0.0,0.0,0.0,0.0,0.0,0.0,0.0,0.0,0.0,0.0,0.0,0.0,0.0,0.0,0.0,0.0,0.0,0.0,0.0,0.0,0.0,0.0,0.0,0.0,0.0,0.0,0.0,0.0,0.0,0.0,0.0,0.0,0.0,0.0,0.0,0.0,0.0,0.0,0.0,0.0,0.0,0.0,0.0,0.0,0.0,0.0,0.0,0.0,0.0,0.0,0.0,0.0,0.0,0.0,0.0,0.0,0.0,0.0,0.0,0.0,0.0,0.0,0.0,0.0,0.0,0.0,0.0,0.0,0.0,0.0,0.0,0.0,0.0,0.0,0.0,0.0,0.0,0.0,0.0,0.0,0.0,0.0,0.0,0.0,0.0,0.0,0.0,0.0,0.0,0.0,0.0,0.0,0.0,0.0,0.0,0.0,0.0,0.0,0.0,0.0,0.0,0.0,0.0,0.0,0.0,0.0,0.0,0.0,0.0,0.0,0.0,0.0,0.0,0.0,0.0,0.0,0.0,0.0,0.0,0.0,0.0,0.0,0.0,0.0,0.0,0.0,0.0,0.0,0.0,0.0,0.0,0.0,0.0,0.0,0.0,0.0,0.0,0.0,0.0,0.0,0.0,0.0,0.0,0.0,0.0,0.0,0.0,0.0,0.0,0.0,0.0,0.0,0.0,0.0,0.0,0.0,0.0,0.0,0.0,0.0,0.0,0.0,0.0,0.0,0.0,0.0,0.0,0.0,0.0,0.0,0.0,0.0,0.0,0.0,0.0,0.0,0.0,0.0,0.0,0.0,0.0,0.0,0.0,0.0,0.0,0.0,0.0,0.0,0.0,0.0,0.0,0.0,0.0,0.0,0.0,0.0,0.0,0.0,0.0,0.0,0.0,0.0,0.0,0.0,0.0,0.0,0.0,0.0,0.0,0.0,0.0,0.0,0.0,0.0,0.0,0.0,0.0,0.0,0.0,0.0,0.0,0.0,0.0,0.0,0.0,0.0,0.0,0.0,0.0,0.0,0.0,0.0,0.0,0.0,0.0,0.0,0.0,0.0,0.0,0.0,0.0,0.0,0.0,0.0,0.0,0.0,0.0,0.0,0.0,0.0,0.0,0.0,0.0,0.0,0.0,0.0,0.0,0.0,0.0,0.0,0.0,0.0,0.0,0.0,0.0,0.0,0.0,0.0,0.0,0.0,0.0,0.0,0.0,0.0,0.0,0.0,0.0,0.0,0.0,0.0,0.0,0.0,0.0,0.0,0.0,0.0,0.0,0.0,0.0,0.0,0.0,0.0,0.0,0.0,0.0,0.0,0.0,0.0,0.0,0.0,0.0,0.0,0.0,0.0,0.0,0.0,0.0,0.0,0.0,0.0,0.0,0.0,0.0,0.0,0.0,0.0,0.0,0.0,0.0,0.0,0.0,0.0,0.0,0.0,0.0,0.0,0.0,0.0,0.0,0.0,0.0,0.0,0.0,0.0,0.0,0.0,0.0,0.0,0.0,0.0,0.0,0.0,0.0,0.0,0.0,0.0,0.0,0.0,0.0,0.0,0.0,0.0,0.0,0.0,0.0,0.0,0.0,0.0,0.0,0.0,0.0,0.0,0.0,0.0,0.0,0.0,0.0,0.0,0.0,0.0,0.0,0.0,0.0,0.0,0.0,0.0,0.0,0.0,0.0,0.0,0.0,0.0,0.0,0.0,0.0,0.0,0.0,0.0,0.0,0.0,0.0,0.0,0.0,0.0,0.0,0.0,0.0,0.0,0.0,0.0,0.0,0.0,0.0,0.0,0.0,0.0,0.0,0.0,0.0,0.0,0.0,0.0,0.0,0.0,0.0,0.0,0.0,0.0,0.0,0.0,0.0,0.0,0.0,0.0,0.0,0.0,0.0,0.0,0.0,0.0,0.0,0.0,0.0,0.0,0.0,0.0,0.0,0.0,0.0,0.0,0.0,0.0,0.0,0.0,0.0,0.0,0.0,0.0,0.0,0.0,0.0,0.0,0.0,0.0,0.0,0.0,0.0,0.0,0.0,0.0,0.0,0.0,0.0,0.0,0.0,0.0,0.0,0.0,0.0,0.0,0.0,0.0,0.0,0.0,0.0,0.0,0.0,0.0,0.0,0.0,0.0,0.0,0.0,0.0,0.0,0.0,0.0,0.0,0.0,0.0,0.0,0.0,0.0,0.0,0.0,0.0,0.0,0.0,0.0,0.0,0.0,0.0,0.0,0.0,0.0,0.0,0.0,0.0,0.0,0.0,0.0,0.0,0.0,0.0,0.0,0.0,0.0,0.0,0.0,0.0,0.0,0.0,0.0,0.0,0.0,0.0,0.0,0.0,0.0,0.0,0.0,0.0,0.0,0.0,0.0,0.0,0.0,0.0,0.0,0.0,0.0,0.0,0.0,0.0,0.0,0.0,0.0,0.0,0.0,0.0,0.0,0.0,0.0,0.0,0.0,0.0,0.0,0.0,0.0,0.0,0.0,0.0,0.0,0.0,0.0,0.0,0.0,0.0,0.0,0.0,0.0,0.0,0.0,0.0,0.0,0.0,0.0,0.0,0.0,0.0,0.0,0.0,0.0,0.0,0.0,0.0,0.0,0.0,0.0,0.0,0.0,0.0,0.0,0.0,0.0,0.0,0.0,0.0,0.0,0.0,0.0,0.0,0.0,0.0,0.0,0.0,0.0,0.0,0.0,0.0,0.0,0.0,0.0,0.0,0.0,0.0,0.0,0.0,0.0,0.0,0.0,0.0,0.0,0.0,0.0,0.0,0.0,0.0,0.0,0.0,0.0,0.0,0.0,0.0,0.0,0.0,0.0,0.0,0.0,0.0,0.0,0.0,0.0,0.0,0.0,0.0,0.0,0.0,0.0,0.0,0.0,0.0,0.0,0.0,0.0,0.0,0.0,0.0,0.0,0.0,0.0,0.0,0.0,0.0,0.0,0.0,0.0,0.0,0.0,0.0,0.0,0.0,0.0,0.0,0.0,0.0,0.0,0.0,0.0,0.0,0.0,0.0,0.0,0.0,0.0,0.0,0.0,0.0,0.0,0.0,0.0,0.0,0.0,0.0,0.0,0.0,0.0,0.0,0.0,0.0,0.0,0.0,0.0,0.0,0.0,0.0,0.0,0.0,0.0,0.0,0.0,0.0,0.0,0.0,0.0,0.0,0.0,0.0,0.0,0.0,0.0,0.0,0.0,0.0,0.0,0.0,0.0,0.0,0.0,0.0,0.0,0.0,0.0,0.0,0.0,0.0,0.0,0.0,0.0,0.0,0.0,0.0,0.0,0.0,0.0,0.0,0.0,0.0,0.0,0.0,0.0,0.0,0.0,0.0,0.0,0.0,0.0,0.0,0.0,0.0,0.0,0.0,0.0,0.0,0.0,0.0,0.0,0.0,0.0,0.0,0.0,0.0,0.0,0.0,0.0,0.0,0.0,0.0,0.0,0.0,0.0,0.0,0.0,0.0,0.0,0.0,0.0,0.0,0.0,0.0,0.0,0.0,0.0,0.0,0.0,0.0,0.0,0.0,0.0,0.0,0.0,0.0,0.0,0.0,0.0,0.0,0.0,0.0,0.0,0.0,0.0,0.0,0.0,0.0,0.0,0.0,0.0,0.0,0.0,0.0,0.0,0.0,0.0,0.0,0.0,0.0,0.0,0.0,0.0,0.0,0.0,0.0,0.0,0.0,0.0,0.0,0.0,0.0,0.0,0.0,0.0,0.0,0.0,0.0,0.0,0.0,0.0,0.0,0.0,0.0,0.0,0.0,0.0,0.0,0.0,0.0,0.0,-3.0492,0.0,0.0,0.0,-2.9078,0.0,0.0,0.0,0.0,0.0,0.0,0.0,0.0,0.0,0.0,0.0,0.0,0.0,0.0,0.0,0.0,0.0,0.0,0.0,0.0,0.0,0.0,0.0,0.0,0.0,0.0,0.0,0.0,0.0,0.0,0.0,0.0,0.0,0.0,0.0,0.0,0.0,0.0,0.0,0.0,0.0,0.0,0.0,0.0,0.0,0.0,0.0,0.0,0.0,0.0,0.0,0.0,0.0,0.0,0.0,0.0,0.0,0.0,0.0,0.0,0.0,0.0,0.0,0.0,0.0,0.0,0.0,0.0,0.0,0.0,0.0,0.0,0.0,0.0,0.0,0.0,0.0,0.0,0.0,0.0,0.0,0.0,0.0,0.0,0.0,0.0,0.0,0.0,0.0,0.0,0.0,0.0,0.0,0.0,0.0,0.0,0.0,0.0,0.0,0.0,0.0,0.0,0.0,0.0,0.0,0.0,0.0,0.0,0.0,0.0,-3.0457,-3.0439,-2.9658,-2.924,-2.9207,0.0,0.0,0.0,0.0,0.0,0.0,0.0,0.0,0.0,0.0,0.0,0.0,0.0,0.0,0.0,0.0,0.0,0.0,0.0,0.0,0.0,0.0,0.0,0.0,0.0,0.0,0.0,0.0,0.0,0.0,0.0,0.0,0.0,0.0,0.0,0.0,0.0,0.0,0.0,0.0,0.0,0.0,0.0,0.0,0.0,0.0,0.0,0.0,0.0,0.0,0.0,0.0,0.0,0.0,0.0,0.0,0.0,0.0,0.0,0.0,0.0,0.0,0.0,0.0,0.0,0.0,0.0,0.0,0.0,0.0,0.0,0.0,0.0,0.0,0.0,0.0,0.0,0.0,0.0,0.0,0.0,0.0,0.0,0.0,0.0,0.0,0.0,0.0,0.0,0.0,0.0,0.0,0.0,0.0,0.0,0.0,0.0,0.0,0.0,0.0,0.0,0.0,0.0,0.0,0.0,0.0,0.0,0.0,0.0,0.0,0.0,0.0,-2.9694,-2.9347,-2.9286,0.0,0.0,0.0,0.0,0.0,0.0,0.0,0.0,0.0,0.0,0.0,0.0,0.0,0.0,0.0,0.0,0.0,0.0,0.0,0.0,0.0,0.0,0.0,0.0,0.0,0.0,0.0,0.0,0.0,0.0,0.0,0.0,0.0,0.0,0.0,0.0,0.0,0.0,0.0,0.0,0.0,0.0,0.0,0.0,0.0,0.0,0.0,0.0,0.0,0.0,0.0,0.0,0.0,0.0,0.0,0.0,0.0,0.0,0.0,0.0,0.0,0.0,0.0,0.0,0.0,0.0,0.0,0.0,0.0,0.0,0.0,0.0,0.0,0.0,0.0,0.0,0.0,0.0,0.0,0.0,0.0,0.0,0.0,0.0,0.0,0.0,0.0,0.0,0.0,0.0,0.0,0.0,0.0,0.0,0.0,0.0,0.0,0.0,0.0,0.0,0.0,0.0,0.0,0.0,0.0,0.0,0.0,0.0,0.0,0.0,-2.9739,-2.9691,-2.9606,0.0,-2.9275,0.0,0.0,0.0,0.0,0.0,0.0,0.0,0.0,0.0,0.0,0.0,0.0,0.0,0.0,0.0,0.0,0.0,0.0,0.0,0.0,0.0,0.0,0.0,0.0,0.0,0.0,0.0,0.0,0.0,0.0,0.0,0.0,0.0,0.0,0.0,0.0,0.0,0.0,0.0,0.0,0.0,0.0,0.0,0.0,0.0,0.0,0.0,0.0,0.0,0.0,0.0,0.0,0.0,0.0,0.0,0.0,0.0,0.0,0.0,0.0,0.0,0.0,0.0,0.0,0.0,0.0,0.0,0.0,0.0,0.0,0.0,0.0,0.0,0.0,0.0,0.0,0.0,0.0,0.0,0.0,0.0,0.0,0.0,0.0,0.0,0.0,0.0,0.0,0.0,0.0,0.0,0.0,0.0,0.0,0.0,0.0,0.0,0.0,0.0,0.0,0.0,0.0,0.0,0.0,0.0,0.0,0.0,0.0,0.0,0.0,-2.9809,-2.9783,-2.9701,-2.956,0.0,0.0,0.0,0.0,0.0,0.0,0.0,0.0,0.0,0.0,0.0,0.0,0.0,0.0,0.0,0.0,0.0,0.0,0.0,0.0,0.0,0.0,0.0,0.0,0.0,0.0,0.0,0.0,0.0,0.0,0.0,0.0,0.0,0.0,0.0,0.0,0.0,0.0,0.0,0.0,0.0,0.0,0.0,0.0,0.0,0.0,0.0,0.0,0.0,0.0,0.0,0.0,0.0,0.0,0.0,0.0,0.0,0.0,0.0,0.0,0.0,0.0,0.0,0.0,0.0,0.0,0.0,0.0,0.0,0.0,0.0,0.0,0.0,0.0,0.0,0.0,0.0,0.0,0.0,0.0,0.0,0.0,0.0,0.0,0.0,0.0,0.0,0.0,0.0,0.0,0.0,0.0,0.0,0.0,0.0,0.0,0.0,0.0,0.0,0.0,0.0,0.0,0.0,0.0,0.0,0.0,0.0,0.0,0.0,0.0,-2.991,-2.9926,-2.9893,-2.9783,-2.9626,-2.9453,0.0,0.0,0.0,0.0,0.0,0.0,0.0,0.0,0.0,0.0,0.0,0.0,0.0,0.0,0.0,0.0,0.0,0.0,0.0,0.0,0.0,0.0,0.0,0.0,0.0,0.0,0.0,0.0,0.0,0.0,0.0,0.0,0.0,0.0,0.0,0.0,0.0,0.0,0.0,0.0,0.0,0.0,0.0,0.0,0.0,0.0,0.0,0.0,0.0,0.0,0.0,0.0,0.0,0.0,0.0,0.0,0.0,0.0,0.0,0.0,0.0,0.0,0.0,0.0,0.0,0.0,0.0,0.0,0.0,0.0,0.0,0.0,0.0,0.0,0.0,0.0,0.0,0.0,0.0,0.0,0.0,0.0,0.0,0.0,0.0,0.0,0.0,0.0,0.0,0.0,0.0,0.0,0.0,0.0,0.0,0.0,0.0,0.0,0.0,0.0,0.0,0.0,0.0,0.0,0.0,0.0,0.0,0.0,-2.998,-3.0065,-3.003,-2.9916,-2.976,-2.9673,0.0,0.0,0.0,0.0,0.0,0.0,0.0,0.0,0.0,0.0,0.0,0.0,0.0,0.0,0.0,0.0,0.0,0.0,0.0,0.0,0.0,0.0,0.0,0.0,0.0,0.0,0.0,0.0,0.0,0.0,0.0,0.0,0.0,0.0,0.0,0.0,0.0,0.0,0.0,0.0,0.0,0.0,0.0,0.0,0.0,0.0,0.0,0.0,0.0,0.0,0.0,0.0,0.0,0.0,0.0,0.0,0.0,0.0,0.0,0.0,0.0,0.0,0.0,0.0,0.0,0.0,0.0,0.0,0.0,0.0,0.0,0.0,0.0,0.0,0.0,0.0,0.0,0.0,0.0,0.0,0.0,0.0,0.0,0.0,0.0,0.0,0.0,0.0,0.0,0.0,0.0,0.0,0.0,0.0,0.0,0.0,0.0,0.0,0.0,0.0,0.0,0.0,0.0,0.0,0.0,0.0,0.0,0.0,0.0,-3.013,-3.015,-3.0154,-3.0079,-2.9913,-2.977,0.0,0.0,0.0,0.0,0.0,0.0,0.0,0.0,0.0,0.0,0.0,0.0,0.0,0.0,0.0,0.0,0.0,0.0,0.0,0.0,0.0,0.0,0.0,0.0,0.0,0.0,0.0,0.0,0.0,0.0,0.0,0.0,0.0,0.0,0.0,0.0,0.0,0.0,0.0,0.0,0.0,0.0,0.0,0.0,0.0,0.0,0.0,0.0,0.0,0.0,0.0,0.0,0.0,0.0,0.0,0.0,0.0,0.0,0.0,0.0,0.0,0.0,0.0,0.0,0.0,0.0,0.0,0.0,0.0,0.0,0.0,0.0,0.0,0.0,0.0,0.0,0.0,0.0,0.0,0.0,0.0,0.0,0.0,0.0,0.0,0.0,0.0,0.0,0.0,0.0,0.0,0.0,0.0,0.0,0.0,0.0,0.0,0.0,0.0,0.0,0.0,0.0,0.0,0.0,0.0,0.0,0.0,0.0,0.0,-3.1019,-3.1076,-3.0941,-3.0593,-3.0441,-3.0164,0.0,0.0,0.0,0.0,0.0,0.0,0.0,0.0,0.0,0.0,0.0,0.0,0.0,0.0,0.0,0.0,0.0,0.0,0.0,0.0,0.0,0.0,0.0,0.0,0.0,0.0,0.0,0.0,0.0,0.0,0.0,0.0,0.0,0.0,0.0,0.0,0.0,0.0,0.0,0.0,0.0,0.0,0.0,0.0,0.0,0.0,0.0,0.0,0.0,0.0,0.0,0.0,0.0,0.0,0.0,0.0,0.0,0.0,0.0,0.0,0.0,0.0,0.0,0.0,0.0,0.0,0.0,0.0,0.0,0.0,0.0,0.0,0.0,0.0,0.0,0.0,0.0,0.0,0.0,0.0,0.0,0.0,0.0,0.0,0.0,0.0,0.0,0.0,0.0,0.0,0.0,0.0,0.0,0.0,0.0,0.0,0.0,0.0,0.0,0.0,0.0,0.0,0.0,0.0,0.0,0.0,0.0,0.0,-3.2012,-3.2729,-3.2801,-3.2345,-3.1448,-3.1322,-3.0815,0.0,0.0,0.0,0.0,0.0,0.0,0.0,0.0,0.0,0.0,0.0,0.0,0.0,0.0,0.0,0.0,0.0,0.0,0.0,0.0,0.0,0.0,0.0,0.0,0.0,0.0,0.0,0.0,0.0,0.0,0.0,0.0,0.0,0.0,0.0,0.0,0.0,0.0,0.0,0.0,0.0,0.0,0.0,0.0,0.0,0.0,0.0,0.0,0.0,0.0,0.0,0.0,0.0,0.0,0.0,0.0,0.0,0.0,0.0,0.0,0.0,0.0,0.0,0.0,0.0,0.0,0.0,0.0,0.0,0.0,0.0,0.0,0.0,0.0,0.0,0.0,0.0,0.0,0.0,0.0,0.0,0.0,0.0,0.0,0.0,0.0,0.0,0.0,0.0,0.0,0.0,0.0,0.0,0.0,0.0,0.0,0.0,0.0,0.0,0.0,0.0,0.0,0.0,0.0,0.0,0.0,0.0,0.0,0.0,-3.296,-3.2952,-3.28,-3.2415,-3.1723,-3.1161,0.0,0.0,0.0,0.0,0.0,0.0,0.0,0.0,0.0,0.0,0.0,0.0,0.0,0.0,0.0,0.0,0.0,0.0,0.0,0.0,0.0,0.0,0.0,0.0,0.0,0.0,0.0,0.0,0.0,0.0,0.0,0.0,0.0,0.0,0.0,0.0,0.0,0.0,0.0,0.0,0.0,0.0,0.0,0.0,0.0,0.0,0.0,0.0,0.0,0.0,0.0,0.0,0.0,0.0,0.0,0.0,0.0,0.0,0.0,0.0,0.0,0.0,0.0,0.0,0.0,0.0,0.0,0.0,0.0,0.0,0.0,0.0,0.0,0.0,0.0,0.0,0.0,0.0,0.0,0.0,0.0,0.0,0.0,0.0,0.0,0.0,0.0,0.0,0.0,0.0,0.0,0.0,0.0,0.0,0.0,0.0,0.0,0.0,0.0,0.0,0.0,0.0,0.0,0.0,0.0,0.0,0.0,0.0,0.0,-3.4071,-3.4011,-3.3795,-3.3422,-3.2453,-3.1688,-3.1181,0.0,0.0,0.0,0.0,0.0,0.0,0.0,0.0,0.0,0.0,0.0,0.0,0.0,0.0,0.0,0.0,0.0,0.0,0.0,0.0,0.0,0.0,0.0,0.0,0.0,0.0,0.0,0.0,0.0,0.0,0.0,0.0,0.0,0.0,0.0,0.0,0.0,0.0,0.0,0.0,0.0,0.0,0.0,0.0,0.0,0.0,0.0,0.0,0.0,0.0,0.0,0.0,0.0,0.0,0.0,0.0,0.0,0.0,0.0,0.0,0.0,0.0,0.0,0.0,0.0,0.0,0.0,0.0,0.0,0.0,0.0,0.0,0.0,0.0,0.0,0.0,0.0,0.0,0.0,0.0,0.0,0.0,0.0,0.0,0.0,0.0,0.0,0.0,0.0,0.0,0.0,0.0,0.0,0.0,0.0,0.0,0.0,0.0,0.0,0.0,0.0,0.0,0.0,0.0,0.0,0.0,0.0,0.0,-3.5872,-3.5742,-3.5236,-3.438,-3.3404,-3.2385,0.0,0.0,0.0,0.0,0.0,0.0,0.0,0.0,0.0,0.0,0.0,0.0,0.0,0.0,0.0,0.0,0.0,0.0,0.0,0.0,0.0,0.0,0.0,0.0,0.0,0.0,0.0,0.0,0.0,0.0,0.0,0.0,0.0,0.0,0.0,0.0,0.0,0.0,0.0,0.0,0.0,0.0,0.0,0.0,0.0,0.0,0.0,0.0,0.0,0.0,0.0,0.0,0.0,0.0,0.0,0.0,0.0,0.0,0.0,0.0,0.0,0.0,0.0,0.0,0.0,0.0,0.0,0.0,0.0,0.0,0.0,0.0,0.0,0.0,0.0,0.0,0.0,0.0,0.0,0.0,0.0,0.0,0.0,0.0,0.0,0.0,0.0,0.0,0.0,0.0,0.0,0.0,0.0,0.0,0.0,0.0,0.0,0.0,0.0,0.0,0.0,0.0,0.0,0.0,0.0,0.0,0.0,0.0,0.0,-3.6829,-3.6708,-3.6193,-3.5291,-3.4276,-3.3287,0.0,0.0,0.0,0.0,0.0,0.0,0.0,0.0,0.0,0.0,0.0,0.0,0.0,0.0,0.0,0.0,0.0,0.0,0.0,0.0,0.0,0.0,0.0,0.0,0.0,0.0,0.0,0.0,0.0,0.0,0.0,0.0,0.0,0.0,0.0,0.0,0.0,0.0,0.0,0.0,0.0,0.0,0.0,0.0,0.0,0.0,0.0,0.0,0.0,0.0,0.0,0.0,0.0,0.0,0.0,0.0,0.0,0.0,0.0,0.0,0.0,0.0,0.0,0.0,0.0,0.0,0.0,0.0,0.0,0.0,0.0,0.0,0.0,0.0,0.0,0.0,0.0,0.0,0.0,0.0,0.0,0.0,0.0,0.0,0.0,0.0,0.0,0.0,0.0,0.0,0.0,0.0,0.0,0.0,0.0,0.0,0.0,0.0,0.0,0.0,0.0,0.0,0.0,0.0,0.0,0.0,0.0,0.0,-3.7353,-3.7774,-3.7644,-3.7143,-3.6205,-3.4834,-3.3642,0.0,0.0,0.0,0.0,0.0,0.0,0.0,0.0,0.0,0.0,0.0,0.0,0.0,0.0,0.0,0.0,0.0,0.0,0.0,0.0,0.0,0.0,0.0,0.0,0.0,0.0,0.0,0.0,0.0,0.0,0.0,0.0,0.0,0.0,0.0,0.0,0.0,0.0,0.0,0.0,0.0,0.0,0.0,0.0,0.0,0.0,0.0,0.0,0.0,0.0,0.0,0.0,0.0,0.0,0.0,0.0,0.0,0.0,0.0,0.0,0.0,0.0,0.0,0.0,0.0,0.0,0.0,0.0,0.0,0.0,0.0,0.0,0.0,0.0,0.0,0.0,0.0,0.0,0.0,0.0,0.0,0.0,0.0,0.0,0.0,0.0,0.0,0.0,0.0,0.0,0.0,0.0,0.0,0.0,0.0,0.0,0.0,0.0,0.0,0.0,0.0,0.0,0.0,0.0,0.0,0.0,0.0,0.0,-3.7747,-3.8583,-3.857,-3.8107,-3.7138,-3.533,-3.3858,0.0,0.0,0.0,0.0,0.0,0.0,0.0,0.0,0.0,0.0,0.0,0.0,0.0,0.0,0.0,0.0,0.0,0.0,0.0,0.0,0.0,0.0,0.0,0.0,0.0,0.0,0.0,0.0,0.0,0.0,0.0,0.0,0.0,0.0,0.0,0.0,0.0,0.0,0.0,0.0,0.0,0.0,0.0,0.0,0.0,0.0,0.0,0.0,0.0,0.0,0.0,0.0,0.0,0.0,0.0,0.0,0.0,0.0,0.0,0.0,0.0,0.0,0.0,0.0,0.0,0.0,0.0,0.0,0.0,0.0,0.0,0.0,0.0,0.0,0.0,0.0,0.0,0.0,0.0,0.0,0.0,0.0,0.0,0.0,0.0,0.0,0.0,0.0,0.0,0.0,0.0,0.0,0.0,0.0,0.0,0.0,0.0,0.0,0.0,0.0,0.0,0.0,0.0,0.0,0.0,0.0,0.0,0.0,-3.834,-3.859,-3.9142,-3.8968,-3.804,-3.6846,-3.5149,0.0,0.0,0.0,0.0,0.0,0.0,0.0,0.0,0.0,0.0,0.0,0.0,0.0,0.0,0.0,0.0,0.0,0.0,0.0,0.0,0.0,0.0,0.0,0.0,0.0,0.0,0.0,0.0,0.0,0.0,0.0,0.0,0.0,0.0,0.0,0.0,0.0,0.0,0.0,0.0,0.0,0.0,0.0,0.0,0.0,0.0,0.0,0.0,-3.2642,0.0,0.0,0.0,0.0,0.0,0.0,0.0,0.0,0.0,0.0,0.0,0.0,0.0,0.0,0.0,0.0,0.0,0.0,0.0,0.0,0.0,0.0,0.0,0.0,0.0,0.0,0.0,0.0,0.0,0.0,0.0,0.0,0.0,0.0,0.0,0.0,0.0,0.0,0.0,0.0,0.0,0.0,0.0,0.0,0.0,0.0,0.0,0.0,0.0,0.0,0.0,0.0,0.0,0.0,0.0,0.0,0.0,0.0,0.0,-3.8757,-3.9217,-4.0014,-3.9743,-3.8402,-3.7786,-3.6201,0.0,0.0,0.0,0.0,0.0,0.0,0.0,0.0,0.0,0.0,0.0,0.0,0.0,0.0,0.0,0.0,0.0,0.0,0.0,0.0,0.0,0.0,0.0,0.0,0.0,0.0,0.0,0.0,0.0,0.0,0.0,0.0,0.0,0.0,0.0,0.0,0.0,0.0,0.0,0.0,0.0,0.0,0.0,0.0,0.0,0.0,0.0,0.0,0.0,0.0,0.0,0.0,0.0,0.0,0.0,0.0,0.0,0.0,0.0,0.0,0.0,0.0,0.0,0.0,0.0,0.0,0.0,0.0,0.0,0.0,0.0,0.0,0.0,0.0,0.0,0.0,0.0,0.0,0.0,0.0,0.0,0.0,0.0,0.0,0.0,0.0,0.0,0.0,0.0,0.0,0.0,0.0,0.0,0.0,0.0,0.0,0.0,0.0,0.0,0.0,0.0,0.0,0.0,0.0,0.0,0.0,0.0,-3.8047,-3.8958,-3.9705,-4.0683,-4.031,-3.8463,-3.8344,-3.6978,-3.4155,0.0,0.0,0.0,0.0,0.0,0.0,0.0,0.0,0.0,0.0,0.0,0.0,0.0,0.0,0.0,0.0,0.0,0.0,0.0,0.0,0.0,0.0,0.0,0.0,0.0,0.0,0.0,0.0,0.0,0.0,0.0,0.0,0.0,0.0,0.0,0.0,0.0,0.0,-3.0686,-3.2199,0.0,0.0,0.0,0.0,0.0,0.0,0.0,0.0,-3.5386,0.0,0.0,0.0,0.0,0.0,0.0,0.0,0.0,0.0,0.0,0.0,0.0,0.0,0.0,0.0,0.0,0.0,0.0,0.0,0.0,0.0,0.0,0.0,0.0,0.0,0.0,0.0,0.0,0.0,0.0,0.0,0.0,0.0,0.0,0.0,0.0,0.0,0.0,0.0,0.0,0.0,0.0,0.0,0.0,0.0,0.0,0.0,0.0,0.0,0.0,0.0,0.0,0.0,0.0,0.0,0.0,-3.6095,-3.7756,-3.8667,-3.8847,-4.0391,-4.0289,-3.8484,-3.839,-3.7086,-3.4414,0.0,0.0,0.0,0.0,0.0,0.0,0.0,0.0,0.0,0.0,0.0,0.0,0.0,0.0,0.0,0.0,0.0,0.0,0.0,0.0,0.0,0.0,0.0,0.0,0.0,0.0,0.0,0.0,0.0,0.0,0.0,0.0,0.0,0.0,0.0,0.0,0.0,0.0,0.0,-3.3529,-3.4434,0.0,0.0,0.0,0.0,0.0,0.0,0.0,0.0,-3.538,0.0,0.0,0.0,0.0,0.0,0.0,0.0,0.0,0.0,0.0,0.0,0.0,0.0,0.0,0.0,0.0,0.0,0.0,0.0,0.0,0.0,0.0,0.0,0.0,0.0,0.0,0.0,0.0,0.0,0.0,0.0,0.0,0.0,0.0,0.0,0.0,0.0,0.0,0.0,0.0,0.0,0.0,0.0,0.0,0.0,0.0,0.0,0.0,0.0,0.0,0.0,0.0,0.0,0.0,0.0,-3.5935,-3.7257,-3.8143,-3.8594,-3.9414,-3.9433,-3.8528,-3.8005,-3.6693,0.0,0.0,0.0,0.0,0.0,0.0,0.0,0.0,0.0,0.0,0.0,0.0,0.0,0.0,0.0,0.0,0.0,0.0,0.0,0.0,0.0,0.0,0.0,0.0,0.0,0.0,0.0,0.0,0.0,0.0,0.0,0.0,0.0,0.0,0.0,0.0,0.0,0.0,0.0,0.0,-3.4298,-3.531,-3.5714,0.0,0.0,0.0,0.0,0.0,0.0,-3.5623,-3.5602,0.0,0.0,0.0,0.0,0.0,0.0,0.0,0.0,0.0,0.0,0.0,0.0,0.0,0.0,0.0,0.0,0.0,0.0,0.0,0.0,0.0,0.0,0.0,0.0,0.0,0.0,0.0,0.0,0.0,0.0,0.0,0.0,0.0,0.0,0.0,0.0,0.0,0.0,0.0,0.0,0.0,0.0,0.0,0.0,0.0,0.0,0.0,0.0,0.0,0.0,0.0,0.0,0.0,0.0,0.0,-3.5711,-3.6774,-3.7714,-3.8555,-3.8769,-3.8789,-3.8594,-3.7807,-3.6397,0.0,0.0,0.0,0.0,0.0,0.0,0.0,0.0,0.0,0.0,0.0,0.0,0.0,0.0,0.0,0.0,0.0,0.0,0.0,0.0,0.0,0.0,0.0,0.0,0.0,0.0,0.0,0.0,0.0,0.0,0.0,0.0,0.0,0.0,0.0,0.0,0.0,0.0,0.0,0.0,0.0,-3.5883,-3.5844,-3.5872,0.0,0.0,0.0,0.0,-3.5741,-3.5732,0.0,0.0,0.0,0.0,0.0,0.0,0.0,0.0,0.0,0.0,0.0,0.0,0.0,0.0,0.0,0.0,0.0,0.0,0.0,0.0,0.0,0.0,0.0,0.0,0.0,0.0,0.0,0.0,0.0,0.0,0.0,0.0,0.0,0.0,0.0,0.0,0.0,0.0,0.0,0.0,0.0,0.0,0.0,0.0,0.0,0.0,0.0,0.0,0.0,0.0,0.0,0.0,0.0,0.0,0.0,0.0,-3.4851,-3.6461,-3.7714,-3.8594,-3.9355,-3.9394,-3.8633,-3.8422,-3.6789,0.0,0.0,0.0,0.0,0.0,0.0,0.0,0.0,0.0,0.0,0.0,0.0,0.0,0.0,0.0,0.0,0.0,0.0,0.0,0.0,0.0,0.0,0.0,0.0,0.0,0.0,0.0,0.0,0.0,0.0,0.0,0.0,0.0,0.0,0.0,0.0,0.0,0.0,0.0,0.0,0.0,-3.5916,-3.5963,-3.5926,-3.5882,0.0,0.0,-3.5804,-3.5798,-3.5795,0.0,0.0,0.0,0.0,0.0,0.0,0.0,0.0,0.0,0.0,0.0,0.0,0.0,0.0,0.0,0.0,0.0,0.0,0.0,0.0,0.0,0.0,0.0,0.0,0.0,0.0,0.0,0.0,0.0,0.0,0.0,0.0,0.0,0.0,0.0,0.0,0.0,0.0,0.0,0.0,0.0,0.0,0.0,0.0,0.0,0.0,0.0,0.0,0.0,0.0,0.0,0.0,0.0,0.0,0.0,-3.3328,-3.4663,-3.5448,-3.6719,-3.8496,-3.8476,-3.8476,-3.8613,-3.8097,-3.6633,0.0,0.0,0.0,0.0,0.0,0.0,0.0,0.0,0.0,0.0,0.0,0.0,0.0,0.0,0.0,0.0,0.0,0.0,0.0,0.0,0.0,0.0,0.0,0.0,0.0,0.0,0.0,0.0,0.0,0.0,0.0,0.0,0.0,0.0,0.0,0.0,0.0,0.0,0.0,0.0,0.0,0.0,-3.6676,-3.6711,0.0,0.0,0.0,-3.6648,-3.667,0.0,0.0,0.0,0.0,0.0,0.0,0.0,0.0,0.0,0.0,0.0,0.0,0.0,0.0,0.0,0.0,0.0,0.0,0.0,0.0,0.0,0.0,0.0,0.0,0.0,0.0,0.0,0.0,0.0,0.0,0.0,0.0,0.0,0.0,0.0,0.0,0.0,0.0,0.0,0.0,0.0,0.0,0.0,0.0,0.0,0.0,0.0,0.0,0.0,0.0,0.0,0.0,0.0,0.0,0.0,0.0,0.0,-3.4335,-3.459,-3.5957,-3.8476,-3.7969,-3.793,-3.8555,-3.7965,0.0,0.0,0.0,0.0,0.0,0.0,0.0,0.0,0.0,0.0,0.0,0.0,0.0,0.0,0.0,0.0,0.0,0.0,0.0,0.0,0.0,0.0,0.0,0.0,0.0,0.0,0.0,-2.9768,0.0,0.0,0.0,0.0,0.0,0.0,0.0,0.0,0.0,0.0,0.0,0.0,0.0,0.0,-3.6325,-3.7187,-3.7304,-3.7615,0.0,0.0,-3.7301,-3.7292,-3.6572,-3.5985,0.0,0.0,0.0,0.0,0.0,0.0,0.0,0.0,0.0,0.0,0.0,0.0,0.0,0.0,0.0,0.0,0.0,0.0,0.0,0.0,0.0,0.0,0.0,0.0,0.0,0.0,0.0,0.0,0.0,0.0,0.0,0.0,0.0,0.0,0.0,0.0,0.0,0.0,0.0,0.0,0.0,0.0,0.0,0.0,0.0,0.0,0.0,0.0,0.0,0.0,0.0,0.0,0.0,0.0,0.0,-3.3475,-3.4277,-3.5976,-3.8496,-3.8555,-3.8555,-3.8613,-3.8552,-3.7297,0.0,0.0,0.0,0.0,0.0,0.0,0.0,0.0,0.0,0.0,0.0,0.0,0.0,0.0,0.0,0.0,0.0,0.0,0.0,0.0,0.0,0.0,0.0,0.0,0.0,0.0,0.0,0.0,0.0,0.0,0.0,0.0,0.0,0.0,0.0,0.0,0.0,0.0,0.0,0.0,0.0,-3.6308,-3.7187,-3.7285,-3.7596,0.0,0.0,-3.7303,-3.7303,-3.6581,-3.6014,-3.5986,0.0,0.0,0.0,0.0,0.0,0.0,0.0,0.0,0.0,0.0,0.0,0.0,0.0,0.0,0.0,0.0,0.0,0.0,0.0,0.0,0.0,0.0,0.0,0.0,0.0,0.0,0.0,0.0,0.0,0.0,0.0,0.0,0.0,0.0,0.0,0.0,0.0,0.0,0.0,0.0,0.0,0.0,0.0,0.0,0.0,0.0,0.0,0.0,0.0,0.0,0.0,0.0,0.0,-3.2538,-3.3398,-3.4238,-3.5957,-3.8476,-3.8613,-3.8613,-3.8613,-3.8612,-3.7632,0.0,0.0,0.0,0.0,0.0,0.0,0.0,0.0,0.0,0.0,0.0,0.0,0.0,0.0,0.0,0.0,0.0,0.0,0.0,0.0,0.0,0.0,0.0,0.0,0.0,0.0,0.0,0.0,-3.2107,-3.1531,-3.1379,0.0,0.0,0.0,0.0,0.0,0.0,0.0,0.0,0.0,0.0,-3.7109,-3.7988,-3.8555,0.0,0.0,-3.9023,-3.8105,-3.8105,-3.6914,-3.6015,-3.6012,-3.6009,0.0,0.0,0.0,0.0,0.0,0.0,0.0,0.0,0.0,0.0,0.0,0.0,0.0,0.0,0.0,0.0,0.0,0.0,0.0,0.0,0.0,0.0,0.0,0.0,0.0,0.0,0.0,0.0,0.0,0.0,0.0,0.0,0.0,0.0,0.0,0.0,0.0,0.0,0.0,0.0,0.0,0.0,0.0,0.0,0.0,0.0,0.0,0.0,0.0,0.0,0.0,0.0,-3.2422,-3.3726,-3.4121,-3.5683,-3.8493,-3.8574,-3.8613,-3.8613,-3.8613,-3.7772,0.0,0.0,0.0,0.0,0.0,0.0,0.0,0.0,0.0,0.0,0.0,0.0,0.0,0.0,0.0,0.0,0.0,0.0,0.0,0.0,0.0,0.0,0.0,0.0,0.0,0.0,0.0,0.0,-3.2495,-3.1795,-3.0995,0.0,0.0,0.0,0.0,0.0,0.0,0.0,0.0,0.0,0.0,-3.7715,-3.8809,-3.9512,-4.0215,-4.1074,-3.9941,-3.8906,-3.8633,-3.7363,-3.6308,-3.6034,0.0,0.0,0.0,0.0,0.0,0.0,0.0,0.0,0.0,0.0,0.0,0.0,0.0,0.0,0.0,0.0,0.0,0.0,0.0,0.0,0.0,0.0,0.0,0.0,0.0,0.0,0.0,0.0,0.0,0.0,-3.1758,0.0,0.0,0.0,0.0,0.0,0.0,0.0,0.0,0.0,0.0,0.0,0.0,0.0,0.0,0.0,0.0,0.0,0.0,0.0,0.0,0.0,0.0,-3.2177,-3.4503,-3.39,-3.5113,-3.8291,-3.8531,-3.8613,-3.8613,-3.8613,-3.7793,-3.6073,0.0,0.0,0.0,0.0,0.0,0.0,0.0,0.0,0.0,0.0,0.0,0.0,0.0,0.0,0.0,0.0,0.0,0.0,0.0,0.0,0.0,0.0,0.0,0.0,0.0,0.0,-3.2085,-3.2167,-3.1855,0.0,0.0,0.0,0.0,0.0,0.0,0.0,0.0,0.0,0.0,-3.7266,-3.793,-3.9609,-3.9902,-4.0254,-4.1074,-4.043,-3.957,-3.875,-3.7851,-3.6973,0.0,0.0,0.0,0.0,0.0,0.0,0.0,0.0,0.0,0.0,0.0,0.0,0.0,0.0,0.0,0.0,0.0,0.0,0.0,0.0,0.0,0.0,0.0,0.0,0.0,0.0,0.0,-3.2349,-3.3075,0.0,0.0,0.0,0.0,0.0,0.0,0.0,0.0,0.0,0.0,0.0,-3.4234,-3.4251,0.0,0.0,0.0,0.0,0.0,0.0,0.0,0.0,0.0,0.0,0.0,0.0,-3.4306,-3.4625,-3.5381,-3.6623,-3.8326,-3.8456,-3.8509,-3.8594,-3.8613,-3.7773,-3.6053,0.0,0.0,0.0,0.0,0.0,0.0,0.0,0.0,0.0,0.0,0.0,0.0,0.0,0.0,0.0,0.0,0.0,0.0,0.0,0.0,0.0,0.0,0.0,0.0,0.0,-3.1792,0.0,0.0,0.0,0.0,0.0,0.0,0.0,0.0,0.0,0.0,0.0,-3.5996,-3.7148,-3.8301,-3.9258,-3.9824,-4.041,-4.0859,0.0,0.0,0.0,0.0,0.0,0.0,0.0,0.0,0.0,0.0,0.0,0.0,0.0,0.0,-3.7521,-3.6975,-3.6392,-3.6005,-3.6009,0.0,0.0,0.0,0.0,0.0,0.0,0.0,0.0,0.0,0.0,0.0,0.0,0.0,0.0,-3.4143,0.0,-3.4367,0.0,0.0,0.0,0.0,0.0,0.0,0.0,0.0,-3.4804,-3.4849,-3.5159,-3.5147,-3.4857,0.0,-3.3415,-3.2987,0.0,0.0,0.0,0.0,0.0,0.0,0.0,0.0,-3.4914,-3.4964,-3.5716,-3.6839,-3.826,-3.8363,-3.8411,-3.8496,-3.7961,-3.7126,-3.6014,-3.5428,-3.5013,0.0,0.0,0.0,0.0,0.0,0.0,0.0,0.0,0.0,0.0,0.0,0.0,0.0,0.0,0.0,0.0,0.0,0.0,0.0,0.0,0.0,0.0,0.0,-3.1992,0.0,0.0,0.0,0.0,0.0,0.0,0.0,0.0,0.0,-3.4746,-3.5722,-3.6777,-3.7636,-3.8984,-4.0,-4.0292,0.0,0.0,0.0,0.0,0.0,0.0,0.0,-3.7637,-3.7344,-3.6582,-3.6094,-3.6386,-3.7166,-3.7849,-3.8143,0.0,0.0,-3.7846,-3.73,-3.6911,-3.6892,-3.6893,-3.6913,-3.6913,-3.7304,-3.7768,0.0,0.0,0.0,0.0,0.0,0.0,0.0,0.0,-3.4599,-3.5056,0.0,-3.5791,0.0,0.0,0.0,0.0,0.0,-3.508,0.0,0.0,-3.5135,-3.5176,-3.5956,-3.5976,-3.5976,-3.5937,-3.5058,-3.4606,-3.4477,-3.2946,0.0,0.0,0.0,0.0,0.0,0.0,-3.4097,-3.5563,-3.5053,-3.5779,-3.8044,-3.8216,-3.8249,-3.8217,-3.6748,-3.5919,-3.5901,-3.5973,-3.5625,-3.4785,-3.4726,0.0,0.0,0.0,0.0,0.0,0.0,0.0,0.0,0.0,0.0,0.0,0.0,0.0,0.0,0.0,0.0,0.0,0.0,0.0,0.0,-3.2129,0.0,0.0,0.0,0.0,0.0,0.0,0.0,0.0,0.0,0.0,-3.5014,-3.6345,-3.7693,-3.8513,0.0,0.0,0.0,0.0,-4.1172,-4.1112,-4.1152,-4.0879,-4.0078,-3.9219,-3.8359,-3.7539,0.0,0.0,-3.7207,-3.8066,-3.8906,-3.9726,-3.9238,-3.8691,-3.871,-3.8593,-3.8515,-3.8535,-3.8476,-3.8574,-3.8574,-3.8425,-3.8672,-3.6016,0.0,0.0,0.0,0.0,-3.533,-3.5367,-3.556,-3.4916,-3.5167,-3.5944,-3.5319,0.0,0.0,0.0,0.0,0.0,0.0,-3.5759,-3.5993,-3.5742,-3.574,-3.5922,-3.5922,-3.5889,-3.5753,-3.4935,-3.4552,-3.4508,-3.4062,-3.3487,-3.2915,0.0,0.0,0.0,0.0,-3.6665,-3.6499,-3.6812,-3.7093,-3.7253,-3.7293,-3.7329,-3.7361,-3.6313,-3.5761,-3.5761,-3.6381,-3.6316,-3.5463,-3.5412,0.0,0.0,0.0,0.0,0.0,0.0,0.0,0.0,0.0,0.0,0.0,0.0,0.0,0.0,0.0,0.0,0.0,0.0,0.0,-3.2085,-3.2613,-3.2845,0.0,0.0,0.0,0.0,0.0,0.0,0.0,0.0,0.0,-3.7253,-3.8313,-3.9172,0.0,0.0,-4.0787,-4.1065,-4.1099,-4.1126,-4.1108,-4.1151,0.0,-4.0859,-4.0098,-3.9453,-3.9199,-3.8418,-3.7949,-3.8184,-3.8945,-3.9609,-3.9863,-4.0215,-4.0449,-4.0371,-3.9414,-3.8691,-3.8613,-3.8613,-3.8555,-3.85,-3.8892,-3.936,-3.6016,-3.6016,-3.6016,-3.6016,-3.6016,-3.6016,-3.6016,-3.5957,-3.5449,-3.5508,-3.5975,-3.5447,-3.5504,-3.6008,-3.5975,0.0,0.0,0.0,-3.5902,-3.5883,-3.5879,-3.5864,-3.5814,-3.5831,-3.5791,-3.5687,-3.5194,-3.4959,-3.4936,-3.4956,-3.4711,-3.4197,0.0,0.0,-3.6236,-3.7179,-3.7359,-3.6852,-3.7242,-3.7275,-3.6849,-3.681,-3.6837,-3.6876,-3.6088,-3.5663,-3.5682,-3.6184,-3.6245,-3.5723,-3.5698,-3.5309,0.0,0.0,0.0,0.0,0.0,0.0,0.0,0.0,0.0,0.0,0.0,-3.2081,-3.2066,0.0,0.0,0.0,-3.2831,-3.2909,-3.2601,-3.3312,0.0,0.0,0.0,0.0,0.0,0.0,0.0,-3.6136,-3.7014,-3.7849,-3.867,-3.9614,-4.0094,-3.9757,-4.0406,-4.0935,-4.0961,0.0,-4.1072,-4.1055,-4.1129,-4.1191,-4.1191,-4.0469,-3.9785,-3.9434,-3.9258,-3.9121,-3.9141,-3.9824,-4.0391,-4.0469,-4.0859,-4.1191,-4.1191,-4.0312,-3.9629,-3.9629,-3.9629,-3.959,-3.9462,-3.9823,-4.0114,-3.5976,-3.5976,-3.5976,-3.5996,-3.6016,-3.5976,-3.5976,-3.5976,-3.5976,-3.5976,-3.5976,-3.5976,-3.5976,-3.5975,-3.5914,0.0,-3.5703,-3.5703,-3.5707,-3.5703,-3.5703,-3.57,-3.5712,-3.5693,-3.5689,-3.5682,-3.5682,-3.5689,-3.5678,-3.5737,-3.5799,-3.581,-3.5857,-3.6251,-3.6949,-3.6999,-3.6986,-3.7017,-3.6964,-3.6885,-3.6808,-3.6731,-3.6712,-3.6699,-3.6039,-3.5672,-3.5595,-3.5704,-3.5741,-3.5682,-3.5741,-3.5385,-3.457,0.0,0.0,0.0,0.0,0.0,0.0,0.0,0.0,0.0,0.0,0.0,0.0,0.0,0.0,0.0,-3.3961,0.0,-3.3448,-3.4062,0.0,0.0,0.0,-3.4678,-3.4706,-3.5417,-3.6214,-3.6989,0.0,0.0,-3.9482,-4.0274,-4.0513,-3.9772,-4.0323,-4.079,-4.0806,-4.0903,-4.0981,-4.0991,-4.1077,-4.1171,-4.1133,-4.0508,-3.9844,-3.9219,-3.9473,-3.998,-4.0039,-4.0586,-4.1152,-4.1152,-4.1191,-4.1191,-4.1191,-4.1133,-4.1191,-4.1094,-4.1113,-4.109,-4.0879,-4.0792,-4.0693,-3.5783,-3.578,-3.576,-3.585,-3.5976,-3.5947,-3.5917,-3.5914,-3.5821,-3.576,-3.578,-3.5783,-3.5783,-3.578,-3.5764,-3.5726,-3.5703,-3.5703,-3.5703,-3.5703,-3.5703,-3.5683,-3.5621,-3.5616,-3.5605,-3.5552,-3.5526,-3.5855,-3.6414,-3.6447,-3.68,-3.7408,-3.7442,-3.7572,-3.7823,-3.842,-3.8712,-3.8715,-3.8688,-3.8354,-3.77,-3.7046,-3.6712,-3.6712,-3.6522,-3.6145,-3.5567,-3.6138,-3.6183,-3.5604,-3.6125,-3.6105,-3.5367,-3.4687,0.0,0.0,0.0,0.0,0.0,0.0,0.0,0.0,0.0,-3.324,-3.3856,0.0,-3.4794,0.0,-3.3572,-3.3513,-3.4085,-3.4274,0.0,0.0,-3.6206,-3.6557,-3.715,-3.741,-3.7855,-3.8704,-3.8935,-3.9366,-4.0239,-4.0523,-4.0549,-4.0325,-4.0539,-4.074,-4.079,-4.0811,-4.085,-4.0848,-4.0877,-4.0883,-4.0914,-4.0832,-4.0671,-4.0605,-4.0742,-4.0879,-4.0879,-4.1055,-4.1191,-4.1191,-4.1191,-4.1191,-4.1191,-4.1191,-4.1152,-4.1078,-4.1051,-4.0998,-4.087,-4.0785,-4.069,-3.5703,-3.5703,-3.5703,-3.5758,-3.5869,-3.5823,-3.5807,-3.5805,-3.5726,-3.5703,-3.5703,-3.5703,-3.5682,-3.5655,-3.5659,-3.5648,-3.5611,-3.5611,-3.5611,-3.5631,-3.5999,-3.6112,-3.6104,-3.649,-3.6659,-3.6622,-3.6615,-3.6834,-3.725,-3.7276,-3.7526,-3.8007,-3.8373,-3.8606,-3.8642,-3.909,-3.9299,-3.9304,-3.8911,-3.8469,-3.8007,-3.7526,-3.7262,-3.7221,-3.6882,-3.6471,-3.6008,-3.6053,-3.5881,-3.5498,-3.5883,-3.5968,-3.5567,-3.5097,-3.4676,0.0,0.0,0.0,0.0,0.0,0.0,0.0,0.0,0.0,0.0,0.0,-3.5386,-3.4913,-3.4384,-3.4455,-3.5375,-3.5421,-3.5926,-3.7257,-3.7398,-3.7572,-3.8021,-3.8059,-3.8392,-3.9266,-3.9321,-3.9622,-4.0431,-4.0565,-4.0539,-4.0496,-4.0571,-4.0628,-4.0674,-4.0724,-4.0759,-4.0756,-4.079,-4.0797,-4.0797,-4.0914,-4.1025,-4.1103,-4.117,-4.1191,-4.1191,-4.1191,-4.1191,-4.1191,-4.1191,-4.1191,-4.1127,-4.1125,-4.1076,-4.0952,-4.0903,-4.0856,-4.0776,-4.0735,-4.0655,-3.5667,-3.5667,-3.5667,-3.5687,-3.5667,-3.5687,-3.5675,-3.5686,-3.5675,-3.5667,-3.5667,-3.5687,-3.5691,-3.5739,-3.5643,-3.568,-3.5815,-3.5692,-3.5712,-3.5865,-3.6538,-3.6853,-3.6911,-3.7642,-3.8007,-3.8007,-3.8007,-3.8065,-3.8161,-3.8161,-3.8219,-3.8354,-3.9042,-3.9411,-3.9392,-3.9369,-3.9376,-3.9423,-3.8589,-3.8185,-3.8319,-3.8189,-3.8082,-3.8016,-3.7344,-3.6868,-3.6703,-3.5898,-3.5454,-3.551,-3.5429,-3.5412,-3.5474,-3.5502,-3.5188,0.0,-3.4349,0.0,0.0,0.0,0.0,0.0,0.0,0.0,0.0,-3.5181,-3.5669,-3.5753,-3.5791,-3.6125,-3.6897,-3.6954,-3.7276,-3.807,-3.8147,-3.8217,-3.8303,-3.8315,-3.8604,-3.9354,-3.9438,-3.9719,-4.04,-4.0496,-4.0496,-4.0496,-4.0504,-4.0512,-4.0512,-4.0615,-4.0681,-4.0667,-4.0742,-4.0752,-4.0788,-4.0864,-4.0969,-4.0986,-4.108,-4.1171,-4.1172,-4.1172,-4.1191,-4.1191,-4.1191,-4.1128,-4.1023,-4.0992,-4.0944,-4.0821,-4.0762,-4.0726,-4.0709,-4.068,-4.0623,-3.554,-3.5521,-3.554,-3.554,-3.554,-3.5521,-3.5579,-3.5621,-3.5562,-3.554,-3.554,-3.5521,-3.5888,-3.642,-3.5804,-3.6246,-3.7469,-3.6788,-3.6853,-3.7526,-3.768,-3.7757,-3.7757,-3.7911,-3.8007,-3.8007,-3.8007,-3.8354,-3.9046,-3.9046,-3.9381,-4.0027,-3.9989,-3.9957,-3.9948,0.0,0.0,0.0,-3.9328,-3.9232,-3.9884,-3.9151,-3.8726,-3.8688,-3.8499,0.0,-3.7356,-3.662,-3.6205,-3.619,-3.5649,0.0,0.0,0.0,0.0,0.0,0.0,0.0,0.0,0.0,0.0,0.0,-3.4827,-3.5277,-3.529,-3.6003,-3.6483,-3.6502,-3.7137,-3.7579,-3.776,-3.7779,-3.8118,-3.8945,-3.9042,-3.9311,-3.9919,-4.0015,-4.0112,-4.0246,-4.0285,-4.0323,-4.0458,-4.0496,-4.0496,-4.0496,-4.0496,-4.0496,-4.0496,-4.0515,-4.053,-4.0537,-4.0568,-4.061,-4.0701,-4.0731,-4.0785,-4.0832,-4.0952,-4.1026,-4.1052,-4.1129,-4.1191,-4.1191,-4.1105,-4.1028,-4.1014,-4.0894,-4.0817,-4.0751,-4.0715,-4.0717,-4.0717,-4.061,-4.0534,-3.6077,0.0,-3.6558,-3.6757,0.0,-3.675,-3.6767,-3.6704,-3.5868,-3.55,-3.5519,-3.5904,-3.6308,-3.6692,-3.6738,-3.718,-3.7988,-3.7546,-3.7584,-3.8027,-3.843,-3.8623,-3.8642,-3.9046,-3.9246,-3.9238,-3.9246,-3.9457,-3.9854,-3.9769,-3.9883,-4.0285,-4.0003,-3.984,-3.984,-3.9698,-3.9724,-3.9993,-3.9565,-3.9565,-3.9955,-3.9502,-3.9231,-3.9199,-3.8769,0.0,0.0,0.0,0.0,0.0,0.0,0.0,0.0,0.0,0.0,-3.5495,-3.5117,-3.4706,-3.4302,-3.4524,-3.4513,-3.411,-3.5051,-3.5753,-3.5895,-3.6146,-3.6469,-3.687,-3.7443,-3.792,-3.8342,-3.8543,-3.8988,-3.9758,-3.99,-4.0054,-4.0419,-4.0496,-4.0496,-4.0496,-4.0496,-4.0496,-4.0496,-4.0496,-4.0496,-4.0496,-4.0496,-4.0496,-4.0496,-4.0496,-4.0496,-4.0496,-4.0496,-4.0527,-4.0582,-4.0655,-4.0696,-4.0752,-4.0828,-4.0917,-4.0972,-4.1054,-4.1084,-4.1102,-4.103,-4.0962,-4.0855,-4.079,-4.0707,-4.0649,-4.0596,-4.0596,-4.0615,-4.0545,-4.0496,-3.6788,-3.6981,-3.7719,-3.8007,-3.8007,-3.8007,-3.8007,-3.7892,0.0,0.0,0.0,-3.6642,-3.7,-3.7199,-3.7757,-3.8161,-3.843,-3.8296,-3.8296,-3.8469,-3.9169,-3.9515,-3.9554,-4.0189,-4.0496,-4.0496,-4.0457,-4.0422,-4.0406,-4.0139,-4.0012,-3.9992,-3.9668,-3.9493,-3.9432,-3.9451,-3.9432,-3.9445,-3.9536,-3.9583,-3.9583,-3.9559,-3.9512,-3.9451,-3.8788,-3.8407,-3.8359,-3.6916,-3.6171,-3.6291,-3.5543,-3.5195,-3.5331,-3.5354,-3.5438,-3.5565,-3.5584,-3.5315,-3.4759,-3.5168,-3.5141,-3.4418,-3.5405,-3.6149,-3.6435,-3.6354,-3.6626,-3.7327,-3.7677,-3.8223,-3.9022,-3.9297,-3.9727,-4.0431,-4.0496,-4.0496,-4.0496,-4.0496,-4.0496,-4.0496,-4.0496,-4.0496,-4.0496,-4.0496,-4.0496,-4.0496,-4.0496,-4.0496,-4.0496,-4.0496,-4.0496,-4.0496,-4.0496,-4.0496,-4.0519,-4.0595,-4.0649,-4.0661,-4.0727,-4.0821,-4.0905,-4.0955,-4.0981,-4.0962,-4.0955,-4.0866,-4.0759,-4.0686,-4.063,-4.0527,-4.0496,-4.0496,-4.0496,-4.0496,-4.0496,-3.7142,-3.7834,-3.795,-3.8007,-3.8007,-3.8007,-3.8007,-3.7969,-3.7757,-3.7642,-3.7661,-3.7757,-3.8219,-3.8892,-3.8296,-3.8796,-4.0092,-3.9419,-3.9496,-4.0131,-4.0285,-4.0323,-4.0342,-4.0439,-4.0496,-4.0481,-4.0258,-4.0158,-4.0129,-3.9829,-3.9668,-3.9634,-3.9327,-3.9068,-3.8848,-3.8818,-3.8837,-3.8833,-3.9279,-3.952,-3.952,-3.935,-3.9259,-3.9232,-3.9066,-3.8984,-3.8951,-3.8117,-3.7374,-3.673,-3.5991,-3.5348,-3.4762,-3.485,-3.5115,-3.5767,-3.5843,-3.6097,-3.6644,-3.6772,-3.6769,-3.6635,-3.6623,-3.6706,-3.6982,-3.7577,-3.8118,-3.8536,-3.8942,-3.9551,-4.0164,-4.0039,-4.0068,-4.0419,-4.0489,-4.0496,-4.0496,-4.0496,-4.0496,-4.0496,-4.0496,-4.0496,-4.0496,-4.0496,-4.0496,-4.0496,-4.0496,-4.0496,-4.0496,-4.0496,-4.0496,-4.0496,-4.0496,-4.0496,-4.0504,-4.0512,-4.053,-4.0534,-4.0636,-4.0724,-4.0771,-4.0812,-4.0836,-4.0839,-4.0799,-4.0726,-4.0705,-4.0596,-4.0537,-4.0516,-4.0535,-4.0593,-4.0612,-4.0631,-4.0593,-3.8354,-3.8757,-3.9169,-3.9361,-3.9361,-3.9361,-3.9361,-3.9361,-3.9361,-3.8834,-3.8065,-3.8488,-3.8911,-3.9284,-3.9335,-3.9765,-4.0477,-4.0112,-4.0068,-4.0276,-4.0295,-4.0185,-4.0024,-4.0014,-4.0014,-4.0004,-3.9893,-3.9838,-3.9797,-3.9474,-3.9346,-3.9302,-3.9045,-3.8815,-3.8704,-3.8707,-3.8707,-3.8689,-3.8935,-3.9059,-3.9059,-3.8979,-3.8939,-3.8939,-3.891,-3.8881,-3.8862,-3.8135,-3.7836,-3.8042,-3.687,-3.6349,-3.6577,-3.6225,-3.6161,-3.6519,-3.6537,-3.6715,-3.7062,-3.6963,-3.7019,-3.7283,-3.7211,-3.7392,-3.7931,-3.7902,-3.8093,-3.8677,-3.9089,-3.9419,-3.9738,-3.9789,-3.9934,-4.025,-4.0295,-4.0347,-4.0473,-4.0496,-4.0496,-4.0496,-4.0496,-4.0496,-4.0496,-4.0496,-4.0496,-4.0496,-4.0496,-4.0496,-4.0496,-4.0496,-4.0496,-4.0496,-4.0496,-4.0496,-4.0496,-4.0496,-4.0496,-4.0496,-4.0571,-4.0623,-4.0693,-4.0726,-4.0732,-4.0738,-4.0718,-4.0667,-4.0616,-4.0545,-4.0504,-4.0554,-4.0958,-4.1143,-4.1219,-4.1546,-4.1574,-3.9411,-3.9631,-4.0227,-4.0496,-4.0496,-4.0496,-4.0496,-4.0496,-4.0477,-3.9735,-3.8677,-3.9254,-3.9542,-3.9533,-4.0156,-4.0372,-4.0311,-4.0311,-4.0185,-4.0002,-3.9992,-3.984,-3.9641,-3.9611,-3.9611,-3.9587,-3.951,-3.9493,-3.9457,-3.9152,-3.8994,-3.8985,-3.8803,-3.8707,-3.8707,-3.8707,-3.8707,-3.8707,-3.8707,-3.8707,-3.8707,-3.8707,-3.8707,-3.8707,-3.8707,-3.8707,-3.867,-3.8102,-3.8162,-3.8892,-3.7821,-3.7458,-3.8041,-3.7541,-3.7185,-3.7185,-3.7185,-3.7279,-3.7435,-3.7279,-3.7322,-3.7742,-3.7786,-3.8043,-3.856,-3.8138,-3.8051,-3.8693,-3.8929,-3.9063,-3.9269,-3.9364,-3.9622,-3.9932,-4.0071,-4.0196,-4.0372,-4.0425,-4.0397,-4.0406,-4.0406,-4.0397,-4.0414,-4.0446,-4.0496,-4.0496,-4.0496,-4.0496,-4.0496,-4.0496,-4.0496,-4.0496,-4.0496,-4.0496,-4.0496,-4.0496,-4.0496,-4.0496,-4.0496,-4.0552,-4.0623,-4.0662,-4.0662,-4.0662,-4.0668,-4.061,-4.0527,-4.0496,-4.0612,-4.0823,-4.1335,-4.1788,-4.2085,-4.2527,-4.2681,-3.9746,-4.0342,-4.0508,-4.0496,-4.0481,-4.0481,-4.0473,-4.0481,-4.0489,-4.0298,-3.9871,-4.0236,-4.0194,-4.0053,-4.0091,-4.0002,-3.9724,-3.969,-3.9679,-3.9645,-3.9645,-3.9622,-3.9576,-3.9587,-3.9599,-3.9541,-3.9295,-3.9152,-3.9139,-3.8902,-3.875,-3.8735,-3.8704,-3.8707,-3.8707,-3.8707,-3.8707,-3.8707,-3.8707,-3.8707,-3.8707,-3.8707,-3.8707,-3.8707,-3.8707,-3.8707,-3.8707,-3.8634,-3.8649,-3.8735,-3.864,-3.825,-3.7706,-3.7521,-3.7466,-3.7481,-3.7481,-3.7765,-3.8446,-3.8529,-3.8496,-3.8579,-3.8542,-3.8579,-3.8707,-3.8634,-3.8708,-3.8947,-3.884,-3.8966,-3.9457,-3.9302,-3.9308,-3.9611,-3.988,-4.011,-4.011,-4.0139,-4.0158,-4.0139,-4.012,-4.0139,-4.0177,-4.0356,-4.0489,-4.0496,-4.0496,-4.0496,-4.0496,-4.0496,-4.0496,-4.0496,-4.0496,-4.0496,-4.0496,-4.0496,-4.0496,-4.0496,-4.0496,-4.0519,-4.0549,-4.0549,-4.0527,-4.0559,-4.0542,-4.0527,-4.0512,-4.0535,-4.0835,-4.1373,-4.1797,-4.2124,-4.2758,-4.3181,-4.3085,-4.1579,-4.1647,-4.1177,-4.0578,-4.0022,-3.9974,-3.9955,-3.9984,-3.9974,-3.9894,-3.98,-3.9905,-3.9894,-3.9808,-3.9808,-3.9731,-3.9611,-3.9611,-3.9493,-3.9333,-3.9302,-3.9205,-3.9091,-3.9064,-3.9078,-3.9064,-3.8927,-3.8888,-3.884,-3.8765,-3.8707,-3.8707,-3.8707,-3.8707,-3.8707,-3.8707,-3.8707,-3.8707,-3.8707,-3.8707,-3.8707,-3.8707,-3.8707,-3.8707,-3.8707,-3.8707,-3.8744,-3.9148,-3.9625,-4.0049,-4.0139,-3.9992,-3.9643,-3.9166,-3.8704,-3.8267,-3.8212,-3.834,-3.867,-3.8707,-3.8707,-3.8707,-3.8707,-3.8707,-3.8707,-3.8707,-3.8747,-3.8815,-3.8762,-3.8822,-3.9022,-3.8937,-3.8975,-3.9257,-3.9426,-3.9587,-3.9786,-3.9797,-3.9797,-3.9816,-3.9797,-3.9872,-4.0101,-4.0339,-4.0481,-4.0496,-4.0496,-4.0496,-4.0496,-4.0496,-4.0496,-4.0496,-4.0496,-4.0496,-4.0496,-4.0496,-4.0496,-4.0496,-4.0496,-4.0496,-4.0496,-4.0496,-4.0496,-4.0496,-4.0496,-4.0496,-4.0496,-4.0989,-4.1431,-4.1989,-4.2893,-4.3547,-4.4393,-4.4566,-4.4523,-4.263,-4.23,-4.173,-4.0888,-3.9958,-3.9927,-3.9807,-3.9618,-3.9611,-3.9552,-3.9462,-3.945,-3.9439,-3.9377,-3.9432,-3.9432,-3.9364,-3.9371,-3.9223,-3.8999,-3.8966,-3.888,-3.8723,-3.8707,-3.8707,-3.8707,-3.8707,-3.8707,-3.8707,-3.8707,-3.8707,-3.8707,-3.8707,-3.8707,-3.8707,-3.8707,-3.8707,-3.8707,-3.8707,-3.8707,-3.8707,-3.8707,-3.8707,-3.8707,-3.8707,-3.8707,-3.8726,-3.9478,-4.0267,-4.104,-4.1297,-4.1334,-4.1077,-4.0543,-3.9772,-3.8836,-3.8707,-3.8707,-3.8707,-3.8707,-3.8707,-3.8707,-3.8707,-3.8707,-3.8707,-3.8707,-3.8707,-3.8707,-3.8707,-3.8707,-3.8707,-3.8707,-3.8788,-3.8957,-3.9049,-3.9199,-3.9445,-3.9469,-3.9469,-3.945,-3.9469,-3.9587,-3.9922,-4.0204,-4.0372,-4.0372,-4.0449,-4.0496,-4.0496,-4.0496,-4.0496,-4.0496,-4.0496,-4.0496,-4.0496,-4.0496,-4.0496,-4.0496,-4.0496,-4.0496,-4.0496,-4.0496,-4.0496,-4.0496,-4.0496,-4.0535,-4.0593,-4.1143,-4.2162,-4.2662,-4.3585,-4.4701,-4.5248,-4.5528,-4.5409,-4.2027,-4.2065,-4.1977,-4.1481,-4.074,-4.0715,-4.0306,-3.9717,-3.9658,-3.9477,-3.9208,-3.9181,-3.9008,-3.8844,-3.9101,-3.9022,-3.8777,-3.8777,-3.8777,-3.8732,-3.8735,-3.8719,-3.8707,-3.8707,-3.8707,-3.8707,-3.8707,-3.8707,-3.8707,-3.8707,-3.8707,-3.8707,-3.8707,-3.8707,-3.8707,-3.8707,-3.8707,-3.8707,-3.8707,-3.8707,-3.8707,-3.8707,-3.8707,-3.8707,-3.8707,-3.8707,-3.8836,-3.9478,-4.0286,-4.1111,-4.1864,-4.1902,-4.1205,-4.1022,-4.0267,-3.8927,-3.8707,-3.8707,-3.8707,-3.8707,-3.8707,-3.8707,-3.8707,-3.8707,-3.8707,-3.8707,-3.8707,-3.8707,-3.8707,-3.8707,-3.8707,-3.8707,-3.8707,-3.8747,-3.8947,-3.9072,-3.9125,-3.9125,-3.9107,-3.9125,-3.9165,-3.9302,-3.9599,-3.9912,-4.011,-4.0186,-4.0339,-4.0489,-4.0496,-4.0496,-4.0496,-4.0496,-4.0496,-4.0496,-4.0496,-4.0496,-4.0496,-4.0496,-4.0496,-4.0496,-4.0496,-4.0496,-4.0516,-4.0554,-4.0669,-4.0727,-4.0708,-4.142,-4.2643,-4.3547,-4.4528,-4.5432,-4.5556,-4.5586,-4.541,-4.3192,-4.2492,-4.227,-4.1723,-4.1,-4.0982,-4.083,-4.057,-4.0552,-4.0215,-3.9686,-3.9616,-3.9543,-3.9494,-3.9559,-3.9267,-3.8726,-3.8707,-3.8707,-3.8707,-3.8707,-3.8707,-3.8707,-3.8707,-3.8707,-3.8707,-3.8707,-3.8707,-3.8707,-3.8707,-3.8707,-3.8707,-3.8707,-3.8707,-3.8707,-3.8707,-3.8707,-3.8707,-3.8707,-3.8707,-3.8707,-3.8707,-3.8707,-3.8707,-3.8707,-3.8946,-3.946,-4.0249,-4.1038,-4.1827,-4.2635,-4.2708,-4.1882,-4.0891,-3.9863,-3.8854,-3.8707,-3.8707,-3.8707,-3.8707,-3.8707,-3.8707,-3.8707,-3.8707,-3.8707,-3.8707,-3.8707,-3.8707,-3.8707,-3.8707,-3.8707,-3.8707,-3.8707,-3.8704,-3.8773,-3.8855,-3.8826,-3.8826,-3.8844,-3.8869,-3.8971,-3.9165,-3.9308,-3.9576,-3.9851,-4.0052,-4.0177,-4.0285,-4.0438,-4.0489,-4.0481,-4.0489,-4.0496,-4.0496,-4.0496,-4.0496,-4.0496,-4.0496,-4.0496,-4.0535,-4.0535,-4.0593,-4.0631,-4.0939,-4.1016,-4.1412,-4.1604,-4.2459,-4.3585,-4.4528,-4.5518,-4.5528,-4.5594,-4.5476,-4.5201,-4.3774,-4.3055,-4.2787,-4.2231,-4.1535,-4.1462,-4.1315,-4.1132,-4.1095,-4.0783,-4.0341,-4.0286,-4.0286,-4.0286,-4.0286,-4.0029,-3.9515,-3.9478,-3.9478,-3.9478,-3.9496,-3.9316,-3.9111,-3.9093,-3.8946,-3.8744,-3.8707,-3.8707,-3.8707,-3.8707,-3.8707,-3.8707,-3.8707,-3.8707,-3.8707,-3.8707,-3.8707,-3.8707,-3.8707,-3.8707,-3.8707,-3.8707,-3.8707,-3.8744,-3.8946,-3.9331,-3.9916,-4.0671,-4.1479,-4.2268,-4.3057,-4.3002,-4.1919,-4.0634,-3.9533,-3.8817,-3.8707,-3.8707,-3.8707,-3.8707,-3.8707,-3.8707,-3.8707,-3.8707,-3.8707,-3.8707,-3.8707,-3.8707,-3.8707,-3.8707,-3.8707,-3.8707,-3.8707,-3.8707,-3.8707,-3.8707,-3.8707,-3.8707,-3.8707,-3.8735,-3.884,-3.8947,-3.8999,-3.9257,-3.9505,-3.9765,-3.9851,-4.0023,-4.0157,-4.0311,-4.0372,-4.0381,-4.0449,-4.0481,-4.0516,-4.0508,-4.0554,-4.0573,-4.0631,-4.0631,-4.09,-4.092,-4.1054,-4.1324,-4.172,-4.22,-4.2854,-4.3662,-4.4498,-4.5383,-4.5558,-4.553,-4.5438,-4.5253,-4.4954,-4.3495,-4.344,-4.3479,-4.2983,-4.2359,-4.2304,-4.1864,-4.137,-4.126,-4.1277,-4.1132,-4.1113,-4.1095,-4.1095,-4.1095,-4.1077,-4.1113,-4.113,-4.1001,-4.0875,-4.0912,-4.0506,-3.9827,-3.9753,-3.9368,-3.8726,-3.8707,-3.8707,-3.8707,-3.8707,-3.8707,-3.8707,-3.8707,-3.8676,-3.8658,-3.8627,-3.8627,-3.8562,-3.853,-3.8578,-3.8673,-3.858,-3.8546,-3.8669,-3.9292,-3.9731,-3.9923,-4.0728,-4.1589,-4.2359,-4.3092,-4.2727,-4.1352,-4.0432,-3.957,-3.8872,-3.8707,-3.8707,-3.8707,-3.8707,-3.8707,-3.8707,-3.8707,-3.8707,-3.8707,-3.8707,-3.8707,-3.8707,-3.8707,-3.8707,-3.8707,-3.8707,-3.8707,-3.8707,-3.8707,-3.8707,-3.8707,-3.8707,-3.8707,-3.8707,-3.875,-3.8704,-3.8762,-3.8952,-3.9139,-3.9257,-3.9445,-3.9634,-3.9746,-3.9953,-4.0062,-4.0139,-4.0412,-4.0696,-4.0603,-4.0527,-4.0585,-4.0669,-4.0746,-4.0862,-4.1566,-4.1816,-4.2008,-4.2277,-4.2681,-4.3162,-4.3835,-4.4575,-4.4759,-4.5393,-4.5453,-4.5475,-4.5273,-4.5074,-4.4701,-4.3479,-4.3479,-4.3479,-4.3351,-4.3112,-4.3112,-4.2965,-4.2763,-4.2745,-4.2451,-4.2011,-4.1937,-4.1937,-4.1937,-4.1937,-4.2213,-4.2727,-4.2727,-4.2194,-4.1297,-4.1132,-4.0673,-4.0029,-3.9882,-3.946,-3.8817,-3.8707,-3.8707,-3.8707,-3.8707,-3.8707,-3.8707,-3.8707,-3.8515,-3.82,-3.8132,-3.8015,-3.7703,-3.7667,-3.7667,-3.7667,-3.7685,-3.7667,-3.7739,-3.8402,-3.9193,-4.0163,-4.1293,-4.2269,-4.3057,-4.3351,-4.2763,-4.1423,-4.0857,-4.0084,-3.8909,-3.8707,-3.8707,-3.8707,-3.8707,-3.8707,-3.8707,-3.8707,-3.8707,-3.8707,-3.8707,-3.8707,-3.8707,-3.8707,-3.8707,-3.8707,-3.8707,-3.8707,-3.8707,-3.8707,-3.8707,-3.8707,-3.8707,-3.8707,-3.8707,-3.8707,-3.8707,-3.8707,-3.88,-3.8909,-3.9063,-3.9223,-3.9358,-3.959,-3.9758,-3.9754,-3.9786,-4.0366,-4.1044,-4.1147,-4.1438,-4.1775,-4.1703,-4.1623,-4.1708,-4.2316,-4.272,-4.2931,-4.3278,-4.3682,-4.4143,-4.4825,-4.5171,-4.5306,-4.5385,-4.551,-4.54,-4.5159,-4.4818,-4.4455,-4.3479,-4.3479,-4.3479,-4.3479,-4.3479,-4.3479,-4.3479,-4.3479,-4.3479,-4.3204,-4.2782,-4.2745,-4.2727,-4.2745,-4.2745,-4.3002,-4.3461,-4.3479,-4.2982,-4.2047,-4.1627,-4.113,-4.0304,-3.9662,-3.9239,-3.8799,-3.8707,-3.8707,-3.8707,-3.8707,-3.8707,-3.8707,-3.8707,-3.8562,-3.8183,-3.798,-3.772,-3.747,-3.7304,-3.7209,-3.7209,-3.7209,-3.7209,-3.7351,-3.8198,-3.9233,-4.0311,-4.1669,-4.2774,-4.3353,-4.3479,-4.2837,-4.1664,-4.1242,-4.0508,-3.9423,-3.8872,-3.8707,-3.8707,-3.8707,-3.8707,-3.8707,-3.8707,-3.8707,-3.8707,-3.8707,-3.8707,-3.8707,-3.8707,-3.8707,-3.8707,-3.8707,-3.8707,-3.8707,-3.8707,-3.8707,-3.8707,-3.8707,-3.8707,-3.8707,-3.8707,-3.8707,-3.8707,-3.8707,-3.8762,-3.8942,-3.9207,-3.9435,-3.9672,-3.9808,-3.9946,-4.0158,-4.0636,-4.1241,-4.174,-4.2288,-4.2916,-4.2881,-4.2739,-4.2912,-4.3297,-4.3489,-4.3682,-4.4239,-4.469,-4.4786,-4.5364,-4.5421,-4.5537,-4.5577,-4.5495,-4.5211,-4.4908,-4.4561,-4.419,-4.3479,-4.3479,-4.3479,-4.3479,-4.3479,-4.3479,-4.3479,-4.3479,-4.3479,-4.3478,-4.3441,-4.3369,-4.3423,-4.3442,-4.3386,-4.3406,-4.3479,-4.3479,-4.3442,-4.3075,-4.247,-4.157,-4.0708,-3.9441,-3.8817,-3.8726,-3.8707,-3.8707,-3.8707,-3.8707,-3.8707,-3.8707,-3.8707,-3.8658,-3.8433,-3.8099,-3.7755,-3.756,-3.7248,-3.7001,-3.7018,-3.702,-3.702,-3.7071,-3.8408,-3.9461,-4.0159,-4.17,-4.2922,-4.341,-4.3479,-4.3094,-4.2304,-4.1552,-4.0726,-3.9827,-3.9129,-3.8781,-3.8707,-3.8707,-3.8707,-3.8707,-3.8707,-3.8707,-3.8707,-3.8707,-3.8707,-3.8707,-3.8707,-3.8707,-3.8707,-3.8707,-3.8707,-3.8707,-3.8707,-3.8707,-3.8707,-3.8707,-3.8707,-3.8707,-3.8707,-3.8707,-3.8726,-3.8762,-3.8888,-3.9013,-3.954,-3.9989,-4.009,-4.0352,-4.0746,-4.0989,-4.114,-4.165,-4.2229,-4.2992,-4.359,-4.3701,-4.3675,-4.392,-4.4117,-4.4269,-4.4432,-4.4998,-4.5308,-4.5462,-4.553,-4.5531,-4.5504,-4.5438,-4.5253,-4.4954,-4.4644,-4.429,-4.405,-4.3479,-4.3479,-4.3479,-4.3479,-4.3479,-4.3479,-4.3479,-4.3479,-4.3479,-4.3479,-4.3479,-4.3479,-4.3479,-4.3479,-4.3479,-4.3479,-4.3462,-4.3444,-4.3479,-4.3276,-4.2029,-4.102,-4.0175,-3.9221,-3.8707,-3.8707,-3.8658,-3.8707,-3.8707,-3.8627,-3.8643,-3.8707,-3.8611,-3.8465,-3.8099,-3.7614,-3.7173,-3.6786,-3.6295,-3.6075,-3.6075,-3.6075,-3.6015,-3.6187,-3.7568,-3.8585,-3.9308,-4.1441,-4.2939,-4.3427,-4.3479,-4.313,-4.2378,-4.1552,-4.0781,-4.0029,-3.9184,-3.8707,-3.8707,-3.8707,-3.8707,-3.8707,-3.8692,-3.8707,-3.8707,-3.8707,-3.8707,-3.8707,-3.8707,-3.8707,-3.8707,-3.8707,-3.8707,-3.8707,-3.8707,-3.8707,-3.8707,-3.8707,-3.8707,-3.8707,-3.8707,-3.8762,-3.8872,-3.9239,-3.9551,-3.9717,-4.023,-4.0799,-4.0829,-4.0864,-4.1219,-4.1447,-4.1687,-4.2202,-4.2835,-4.3605,-4.4152,-4.4388,-4.4535,-4.4777,-4.4959,-4.5079,-4.5231,-4.5518,-4.5398,-4.5475,-4.5438,-4.541,-4.5352,-4.5263,-4.4935,-4.4631,-4.4346,-4.4046,-4.3884,-4.3479,-4.3479,-4.3479,-4.3479,-4.3479,-4.3479,-4.3479,-4.3479,-4.3479,-4.3479,-4.3479,-4.3479,-4.3479,-4.3462,-4.3268,-4.3178,-4.3142,-4.2903,-4.2592,-4.2031,-4.0655,-3.9777,-3.9312,-3.8854,-3.8707,-3.8658,-3.8446,-3.8366,-3.83,-3.8185,-3.8066,-3.8033,-3.8085,-3.7895,-3.7596,-3.7116,-3.6744,-3.6374,-3.5893,-3.5616,-3.5616,-3.5616,-3.5622,-3.5926,-3.7094,-3.8348,-3.9693,-4.1655,-4.2864,-4.3124,-4.3339,-4.3294,-4.2763,-4.1699,-4.0912,-4.0359,-3.9368,-3.8707,-3.8707,-3.8692,-3.8578,-3.8465,-3.853,-3.8564,-3.8465,-3.8546,-3.8707,-3.8707,-3.8707,-3.8707,-3.8707,-3.8707,-3.8707,-3.8707,-3.8707,-3.8707,-3.8707,-3.8707,-3.8707,-3.8762,-3.8982,-3.9203,-3.9203,-3.99,-4.0286,-4.0543,-4.1095,-4.146,-4.1607,-4.1625,-4.1717,-4.2071,-4.217,-4.2573,-4.3062,-4.3765,-4.4167,-4.4453,-4.4549,-4.4954,-4.5263,-4.5391,-4.5313,-4.5303,-4.5352,-4.5342,-4.5222,-4.514,-4.5107,-4.4931,-4.4587,-4.4318,-4.4091,-4.3865,-4.371,-4.3479,-4.3479,-4.3479,-4.3479,-4.3479,-4.3479,-4.3479,-4.3479,-4.3479,-4.3479,-4.3479,-4.3479,-4.3427,-4.3374,-4.2958,-4.2692,-4.2596,-4.2165,-4.1395,-4.0542,-3.9373,-3.86,-3.8518,-3.8441,-3.8368,-3.8334,-3.8015,-3.7877,-3.7773,-3.7451,-3.7266,-3.7359,-3.7322,-3.7247,-3.7173,-3.6724,-3.6454,-3.6312,-3.5876,-3.5622,-3.5616,-3.5616,-3.5616,-3.5819,-3.7087,-3.8772,-4.0366,-4.1874,-4.2596,-4.2596,-4.3178,-4.3425,-4.3276,-4.2011,-4.1174,-4.0685,-3.9571,-3.8729,-3.8596,-3.853,-3.8465,-3.8251,-3.8515,-3.8515,-3.8283,-3.8481,-3.8707,-3.8707,-3.8707,-3.8707,-3.8707,-3.8707,-3.8707,-3.8707,-3.8707,-3.8707,-3.8707,-3.8707,-3.8707,-3.8762,-3.9405,-3.979,-4.0102,-4.0616,-4.1224,-4.1295,-4.1864,-4.2286,-4.2433,-4.2433,-4.2671,-4.3036,-4.2993,-4.2838,-4.3344,-4.3884,-4.4119,-4.4346,-4.4247,-4.4514,-4.4977,-4.5088,-4.4954,-4.4919,-4.5,-4.4954,-4.4806,-4.4757,-4.4745,-4.4561,-4.4237,-4.4061,-4.3912,-4.3726,-4.3546,-4.3479,-4.3479,-4.3479,-4.3479,-4.3479,-4.3479,-4.3479,-4.3479,-4.3479,-4.3479,-4.3479,-4.3479,-4.325,-4.2901,-4.2674,-4.246,-4.2003,-4.1648,-4.1106,-3.9706,-3.8876,-3.8048,-3.7667,-3.7524,-3.7542,-3.7506,-3.7433,-3.7359,-3.7303,-3.7192,-3.719,-3.7152,-3.7039,-3.719,-3.7039,-3.66,-3.6412,-3.6308,-3.5871,-3.5622,-3.5616,-3.5616,-3.565,-3.5853,-3.7121,-3.8614,-4.0141,-4.1375,-4.1958,-4.2244,-4.2922,-4.3479,-4.3296,-4.2506,-4.1511,-4.0505,-3.9601,-3.8714,-3.8227,-3.8082,-3.82,-3.835,-3.8417,-3.8661,-3.8578,-3.8512,-3.8643,-3.8692,-3.8707,-3.8643,-3.8707,-3.8707,-3.8707,-3.8707,-3.8707,-3.8707,-3.8707,-3.8707,-3.8707,-3.8909,-3.9441,-3.99,-4.001,-4.1313,-4.1882,-4.2103,-4.2543,-4.3094,-4.3185,-4.313,-4.3277,-4.3479,-4.3385,-4.3177,-4.3336,-4.3724,-4.3881,-4.4031,-4.3989,-4.4023,-4.4495,-4.4701,-4.4548,-4.4561,-4.4682,-4.458,-4.4406,-4.4318,-4.4285,-4.4076,-4.3896,-4.3788,-4.366,-4.3531,-4.3479,-4.3479,-4.3479,-4.3479,-4.3479,-4.3479,-4.3479,-4.3479,-4.3479,-4.3479,-4.3479,-4.3427,-4.3268,-4.2958,-4.2653,-4.2121,-4.1643,-4.1187,-4.0321,-3.9527,-3.8551,-3.7654,-3.6859,-3.6582,-3.6522,-3.6626,-3.7039,-3.6904,-3.6843,-3.6783,-3.6603,-3.6416,-3.6457,-3.646,-3.6378,-3.644,-3.6203,-3.6028,-3.5985,-3.5783,-3.5616,-3.5616,-3.5616,-3.6107,-3.658,-3.755,-3.8582,-4.0051,-4.1196,-4.1725,-4.2083,-4.2847,-4.3479,-4.3259,-4.2398,-4.1297,-4.0365,-3.912,-3.8312,-3.7739,-3.7578,-3.756,-3.7667,-3.7843,-3.7808,-3.7791,-3.7826,-3.8117,-3.8269,-3.835,-3.8382,-3.8658,-3.8707,-3.8707,-3.8707,-3.8707,-3.8707,-3.8707,-3.8707,-3.8891,-3.9276,-4.001,-4.0634,-4.1295,-4.2103,-4.258,-4.2837,-4.2855,-4.3351,-4.3369,-4.3332,-4.3369,-4.3479,-4.3479,-4.3441,-4.3441,-4.3546,-4.3595,-4.3693,-4.3693,-4.3728,-4.3962,-4.408,-4.4091,-4.4209,-4.4304,-4.415,-4.4004,-4.3924,-4.3878,-4.3756,-4.3646,-4.3548,-4.3479,-4.3479,-4.3479,-4.3479,-4.3479,-4.3479,-4.3463,-4.3392,-4.3339,-4.3268,-4.3196,-4.3232,-4.3087,-4.316,-4.2733,-4.2442,-4.22,-4.1424,-4.0891,-4.0162,-3.8999,-3.8135,-3.7659,-3.6503,-3.5958,-3.5783,-3.5854,-3.6097,-3.6862,-3.6481,-3.6308,-3.6161,-3.5854,-3.5827,-3.5667,-3.5644,-3.5783,-3.5689,-3.5622,-3.5689,-3.5689,-3.5644,-3.5616,-3.5616,-3.565,-3.6293,-3.7483,-3.7838,-3.8633,-3.9938,-4.1007,-4.1621,-4.1729,-4.2753,-4.3214,-4.292,-4.2162,-4.0757,-4.0147,-3.8761,-3.7863,-3.7242,-3.7076,-3.6941,-3.6536,-3.696,-3.7038,-3.6882,-3.7114,-3.7451,-3.7738,-3.7911,-3.8115,-3.8496,-3.8658,-3.8673,-3.8707,-3.8707,-3.8762,-3.8872,-3.8891,-3.9276,-3.979,-4.0634,-4.1423,-4.2029,-4.2727,-4.3149,-4.3479,-4.3479,-4.3479,-4.3479,-4.3479,-4.3479,-4.3479,-4.3479,-4.3479,-4.3479,-4.3496,-4.3512,-4.3529,-4.3513,-4.3565,-4.3615,-4.3695,-4.3804,-4.3849,-4.3881,-4.3772,-4.3742,-4.374,-4.366,-4.3531,-4.3479,-4.3479,-4.3479,-4.3479,-4.3479,-4.3479,-4.3479,-4.3479,-4.325,-4.2864,-4.2845,-4.2578,-4.2144,-4.2185,-4.2103,-4.2124,-4.1961,-4.1664,-4.1291,-4.1087,-4.0345,-3.9416,-3.836,-3.7601,-3.7026,-3.6062,-3.5616,-3.5616,-3.5622,-3.5778,-3.5766,-3.5788,-3.5827,-3.5783,-3.5644,-3.565,-3.5633,-3.5616,-3.5616,-3.5752,-3.5633,-3.5752,-3.587,-3.5802,-3.5735,-3.5735,-3.5718,-3.6326,-3.7696,-3.7898,-3.8684,-3.9848,-4.0696,-4.1041,-4.1155,-4.2203,-4.2442,-4.2191,-4.196,-4.0907,-3.9425,-3.8463,-3.7574,-3.6748,-3.6522,-3.6744,-3.696,-3.7057,-3.7097,-3.7001,-3.7058,-3.7097,-3.7323,-3.7632,-3.7911,-3.8013,-3.8348,-3.8624,-3.8673,-3.8728,-3.8964,-3.9441,-3.9698,-3.9808,-4.0286,-4.1277,-4.2176,-4.2653,-4.3039,-4.3296,-4.3479,-4.3479,-4.3479,-4.3479,-4.3479,-4.3479,-4.3479,-4.3479,-4.3479,-4.3479,-4.3479,-4.3496,-4.3513,-4.3496,-4.3496,-4.3531,-4.3513,-4.3563,-4.366,-4.366,-4.3595,-4.358,-4.3579,-4.3563,-4.3496,-4.3479,-4.3479,-4.3479,-4.3479,-4.3479,-4.3479,-4.3462,-4.3214,-4.2939,-4.2692,-4.236,-4.208,-4.1832,-4.181,-4.181,-4.1725,-4.149,-4.1201,-4.088,-4.0577,-3.991,-3.9018,-3.8244,-3.7499,-3.6778,-3.6028,-3.5616,-3.5616,-3.5616,-3.591,-3.5994,-3.5859,-3.5633,-3.5616,-3.56,-3.5825,-3.6062,-3.5859,-3.5971,-3.6535,-3.6468,-3.6485,-3.6569,-3.6417,-3.6197,-3.6129,-3.5853,-3.6445,-3.7459,-3.8007,-3.8667,-3.9881,-4.0607,-4.088,-4.1087,-4.175,-4.1793,-4.1471,-4.091,-4.0256,-3.8874,-3.7888,-3.7036,-3.6187,-3.5989,-3.6101,-3.6291,-3.6416,-3.6395,-3.6378,-3.6336,-3.6522,-3.6825,-3.7229,-3.7542,-3.7542,-3.8015,-3.8232,-3.8332,-3.8567,-3.9114,-3.9753,-4.0249,-4.0634,-4.0946,-4.1717,-4.247,-4.2965,-4.3259,-4.3424,-4.3479,-4.3479,-4.3479,-4.3479,-4.3479,-4.3479,-4.3479,-4.3479,-4.3479,-4.3479,-4.3479,-4.3479,-4.3479,-4.3479,-4.3479,-4.3479,-4.3479,-4.3479,-4.3529,-4.3496,-4.3479,-4.3496,-4.3529,-4.3513,-4.3479,-4.3479,-4.3479,-4.3479,-4.3479,-4.3479,-4.3339,-4.3286,-4.2733,-4.246,-4.2282,-4.1853,-4.1552,-4.1486,-4.142,-4.1397,-4.1397,-4.0967,-4.075,-4.0597,-4.0105,-3.9469,-3.8751,-3.799,-3.7212,-3.6485,-3.5943,-3.5616,-3.5616,-3.5701,-3.5977,-3.6524,-3.6248,-3.5836,-3.5893,-3.5684,-3.6062,-3.6282,-3.5994,-3.636,-3.7364,-3.6992,-3.7347,-3.7449,-3.7178,-3.6778,-3.64,-3.6045,-3.6343,-3.7696,-3.7922,-3.8582,-3.996,-4.0449,-4.0655,-4.0827,-4.1196,-4.1358,-4.0718,-3.9997,-3.9252,-3.846,-3.7166,-3.6268,-3.5783,-3.5627,-3.5717,-3.5805,-3.5667,-3.5644,-3.5667,-3.5827,-3.5871,-3.6228,-3.6704,-3.702,-3.7097,-3.7578,-3.7877,-3.8103,-3.8583,-3.9294,-4.0139,-4.0873,-4.168,-4.2047,-4.2415,-4.2763,-4.3222,-4.3332,-4.3461,-4.3479,-4.3479,-4.3479,-4.3479,-4.3479,-4.3479,-4.3479,-4.3479,-4.3479,-4.3479,-4.3479,-4.3479,-4.3479,-4.3479,-4.3479,-4.3479,-4.3479,-4.3479,-4.3479,-4.3479,-4.3479,-4.3479,-4.3479,-4.3479,-4.3479,-4.3479,-4.3479,-4.3479,-4.3479,-4.3479,-4.277,-4.2732,-4.2162,-4.1599,-4.1178,-4.1064,-4.0726,-4.0385,-4.0392,-4.0286,-4.0441,-4.0262,-4.0254,-4.0085,-3.9493,-3.8751,-3.8041,-3.7364,-3.6637,-3.596,-3.5769,-3.5735,-3.5667,-3.5616,-3.6332,-3.6948,-3.6812,-3.6677,-3.662,-3.6129,-3.6163,-3.6677,-3.6434,-3.6417,-3.7821,-3.7472,-3.7195,-3.7652,-3.7195,-3.6502,-3.5926,-3.5701,-3.6546,-3.7476,-3.8058,-3.8633,-3.9893,-4.0237,-4.0262,-4.0311,-4.0726,-4.0703,-4.0256,-3.9945,-3.9101,-3.8083,-3.7021,-3.6182,-3.5734,-3.5616,-3.5616,-3.5616,-3.5616,-3.5616,-3.5616,-3.5616,-3.5667,-3.5667,-3.6165,-3.6478,-3.6643,-3.7305,-3.7737,-3.8285,-3.8849,-3.988,-4.082,-4.1332,-4.2176,-4.2745,-4.2983,-4.313,-4.3442,-4.3461,-4.3479,-4.3479,-4.3479,-4.3479,-4.3479,-4.3479,-4.3479,-4.3479,-4.3479,-4.3479,-4.3479,-4.3479,-4.3479,-4.3479,-4.3479,-4.3479,-4.3479,-4.3479,-4.3479,-4.3479,-4.3479,-4.3479,-4.3479,-4.3479,-4.3479,-4.3479,-4.3479,-4.3479,-4.3479,-4.3479,-4.3479,-4.2183,-4.2142,-4.1538,-4.1138,-4.088,-4.0577,-4.0336,-4.0146,-4.0113,-4.0113,-4.0113,-4.0113,-4.0113,-3.991,-3.9309,-3.8599,-3.7855,-3.7077,-3.6366,-3.5926,-3.6011,-3.6248,-3.6434,-3.6755,-3.733,-3.7652,-3.7686,-3.7753,-3.7618,-3.7415,-3.7297,-3.7753,-3.733,-3.7449,-3.8413,-3.8193,-3.8261,-3.8278,-3.777,-3.6806,-3.6039,-3.6096,-3.6789,-3.7855,-3.8278,-3.908,-3.9808,-4.0113,-4.0113,-4.0121,-4.041,-4.0122,-3.9661,-3.9289,-3.8744,-3.7396,-3.6916,-3.6326,-3.5746,-3.5639,-3.5616,-3.5616,-3.5616,-3.5616,-3.5616,-3.5616,-3.5616,-3.5622,-3.5805,-3.5941,-3.6071,-3.6623,-3.7399,-3.8149,-3.9117,-4.0384,-4.1356,-4.1866,-4.247,-4.302,-4.3479,-4.3479,-4.3479,-4.3479,-4.3479,-4.3479,-4.3479,-4.3479,-4.3479,-4.3479,-4.3479,-4.3479,-4.3479,-4.3479,-4.3479,-4.3479,-4.3479,-4.3479,-4.3479,-4.3479,-4.3479,-4.3479,-4.3479,-4.3479,-4.3479,-4.3479,-4.3479,-4.3479,-4.3479,-4.3479,-4.3479,-4.3479,-4.3479,-4.3462,-4.3444,-4.149,-4.1331,-4.0874,-4.0703,-4.0655,-4.0262,-4.0096,-4.0113,-4.0113,-4.0113,-4.0113,-4.0096,-4.0011,-3.9673,-3.9005,-3.8227,-3.755,-3.684,-3.6231,-3.6045,-3.6332,-3.6728,-3.6907,-3.7466,-3.8193,-3.8988,-3.8396,-3.8565,-3.887,-3.8785,-3.8633,-3.8954,-3.8024,-3.8413,-3.8971,-3.8954,-3.8785,-3.843,-3.7821,-3.684,-3.5955,-3.6366,-3.7094,-3.7889,-3.8616,-3.9351,-3.9977,-4.0113,-4.0113,-4.0096,-4.0121,-3.9841,-3.924,-3.9044,-3.8357,-3.7286,-3.6763,-3.6401,-3.5876,-3.5616,-3.5616,-3.5616,-3.5616,-3.5616,-3.5616,-3.5616,-3.5616,-3.5616,-3.5644,-3.5644,-3.5768,-3.6294,-3.73,-3.8312,-3.9318,-4.0671,-4.1856,-4.2381,-4.2763,-4.3149,-4.3479,-4.3479,-4.3479,-4.3479,-4.3479,-4.3479,-4.3479,-4.3479,-4.3479,-4.3479,-4.3479,-4.3479,-4.3479,-4.3479,-4.3479,-4.3479,-4.3479,-4.3479,-4.3479,-4.3479,-4.3479,-4.3479,-4.3479,-4.3479,-4.3479,-4.3479,-4.3479,-4.3479,-4.3479,-4.3479,-4.3479,-4.3479,-4.3479,-4.341,-4.3178,-4.0655,-4.0204,-4.0179,-4.0179,-4.0179,-4.0121,-4.0113,-4.0113,-4.0113,-4.0113,-4.0113,-4.0062,-3.974,-3.9073,-3.843,-3.7686,-3.6897,-3.6062,-3.5752,-3.5926,-3.6349,-3.6863,-3.7235,-3.777,-3.843,-3.8988,-3.8954,-3.9368,-3.9808,-3.9723,-3.9394,-3.8988,-3.8531,-3.9005,-3.914,-3.8894,-3.8396,-3.7956,-3.7347,-3.6688,-3.618,-3.6485,-3.7246,-3.7956,-3.865,-3.9326,-4.0045,-4.0113,-4.0113,-4.0113,-4.0113,-3.9639,-3.8988,-3.8954,-3.8227,-3.6992,-3.6778,-3.6366,-3.5819,-3.5616,-3.5616,-3.5616,-3.5616,-3.5616,-3.5616,-3.5616,-3.5616,-3.5616,-3.5616,-3.565,-3.597,-3.6646,-3.7585,-3.8793,-3.9948,-4.1198,-4.2262,-4.2894,-4.3259,-4.3424,-4.3479,-4.3479,-4.3479,-4.3479,-4.3479,-4.3479,-4.3479,-4.3479,-4.3479,-4.3479,-4.3479,-4.3479,-4.3479,-4.3479,-4.3479,-4.3479,-4.3479,-4.3479,-4.3479,-4.3479,-4.3479,-4.3479,-4.3479,-4.3479,-4.3479,-4.3479,-4.3444,-4.3321,-4.3286,-4.3427,-4.3479,-4.3444,-4.3196,-4.2958,-4.2581,-4.0601,-4.0096,-4.0113,-4.0113,-4.0113,-4.0113,-4.0113,-4.0113,-4.0113,-4.0113,-4.0113,-4.0062,-3.969,-3.8937,-3.8227,-3.7499,-3.6738,-3.596,-3.5701,-3.6056,-3.6721,-3.7364,-3.7838,-3.8556,-3.9453,-3.9622,-3.9673,-3.9757,-4.0045,-4.0113,-3.9639,-3.9157,-3.8988,-3.8802,-3.8768,-3.82,-3.7625,-3.7371,-3.7015,-3.6586,-3.666,-3.7077,-3.7838,-3.8548,-3.9276,-3.9757,-4.0079,-4.0096,-4.0113,-4.0113,-4.0113,-3.9469,-3.8734,-3.8802,-3.7956,-3.6552,-3.6552,-3.6299,-3.5785,-3.5616,-3.5616,-3.5616,-3.5616,-3.5616,-3.5616,-3.5616,-3.5616,-3.5616,-3.5639,-3.565,-3.6217,-3.7007,-3.802,-3.9375,-4.0617,-4.1778,-4.2647,-4.3261,-4.3442,-4.3479,-4.3479,-4.3479,-4.3479,-4.3479,-4.3479,-4.3479,-4.3479,-4.3462,-4.341,-4.3303,-4.3214,-4.3178,-4.3178,-4.3249,-4.3249,-4.3356,-4.3444,-4.3391,-4.3356,-4.3285,-4.3214,-4.3479,-4.3497,-4.3479,-4.3374,-4.3268,-4.3142,-4.3032,-4.305,-4.3142,-4.3268,-4.3339,-4.2995,-4.2501,-4.2062,-4.0449,-4.0096,-4.0113,-4.0113,-4.0113,-4.0113,-4.0113,-4.0113,-4.0113,-4.0113,-4.0113,-4.0079,-3.9554,-3.8734,-3.8159,-3.728,-3.6485,-3.587,-3.5876,-3.6383,-3.7195,-3.7939,-3.8599,-3.9283,-3.9926,-4.0113,-4.0113,-4.0113,-4.0113,-4.0113,-3.9656,-3.9343,-3.9377,-3.8886,-3.8091,-3.7195,-3.6812,-3.6812,-3.6812,-3.6812,-3.688,-3.7736,-3.8345,-3.9005,-3.9656,-4.0011,-4.0096,-4.0113,-4.0113,-4.0113,-3.9977,-3.9411,-3.8819,-3.8227,-3.7601,-3.6772,-3.6146,-3.6163,-3.5785,-3.5616,-3.5616,-3.5616,-3.5616,-3.5616,-3.5616,-3.5616,-3.5616,-3.5616,-3.5622,-3.5851,-3.644,-3.7278,-3.8502,-3.9871,-4.0895,-4.1999,-4.2813,-4.3461,-4.3461,-4.3479,-4.3479,-4.3479,-4.3339,-4.3321,-4.3286,-4.325,-4.316,-4.3124,-4.3069,-4.2921,-4.2715,-4.2715,-4.2735,-4.2829,-4.2922,-4.281,-4.2678,-4.2639,-4.2639,-4.2753,-4.281,-4.3087,-4.3087,-4.2791,-4.2715,-4.2828,-4.2732,-4.2498,-4.2617,-4.2828,-4.2828,-4.2715,-4.2208,-4.1686,-4.1446,-4.0121,-4.0096,-4.0113,-4.0113,-4.0113,-4.0113,-4.0113,-4.0113,-4.0113,-4.0113,-4.0079,-4.0045,-3.9242,-3.8227,-3.7855,-3.7077,-3.6214,-3.5836,-3.6079,-3.6891,-3.7669,-3.8328,-3.8937,-3.9639,-4.0113,-4.0113,-4.0113,-4.0113,-4.0096,-3.9943,-3.9554,-3.892,-3.8633,-3.8396,-3.7821,-3.7144,-3.6812,-3.6812,-3.6812,-3.6846,-3.7354,-3.8278,-3.8802,-3.9317,-3.9774,-4.0096,-4.0113,-4.0113,-4.0113,-4.0113,-4.0113,-3.9588,-3.8802,-3.8345,-3.7635,-3.6711,-3.6062,-3.5791,-3.5616,-3.5616,-3.5616,-3.5616,-3.5616,-3.5616,-3.5616,-3.5616,-3.5616,-3.5616,-3.5639,-3.6039,-3.6695,-3.7563,-3.8951,-4.0273,-4.1329,-4.2191,-4.3032,-4.3479,-4.3479,-4.3479,-4.3479,-4.3462,-4.3268,-4.3124,-4.3069,-4.2995,-4.2865,-4.277,-4.2656,-4.2541,-4.2324,-4.2306,-4.2327,-4.2327,-4.2346,-4.2103,-4.1958,-4.1898,-4.2003,-4.2226,-4.2344,-4.2501,-4.2384,-4.2118,-4.2397,-4.2815,-4.2388,-4.1895,-4.2239,-4.2501,-4.2044,-4.1771,-4.1291,-4.0949,-4.0797,-4.0113,-4.0113,-4.0113,-4.0113,-4.0113,-4.0113,-4.0113,-4.0113,-4.0113,-4.0096,-3.9977,-3.9614,-3.887,-3.8007,-3.7415,-3.6924,-3.6518,-3.6417,-3.6829,-3.755,-3.8261,-3.865,-3.9216,-3.9706,-4.0096,-4.0113,-4.0113,-4.0096,-4.0096,-3.974,-3.8996,-3.8311,-3.7601,-3.6958,-3.6857,-3.6518,-3.618,-3.6711,-3.6897,-3.7218,-3.8166,-3.8734,-3.9225,-3.9673,-3.9994,-4.0113,-4.0113,-4.0113,-4.0113,-4.0113,-4.0113,-3.9605,-3.8802,-3.8294,-3.777,-3.6721,-3.5977,-3.6129,-3.5802,-3.5616,-3.5616,-3.5633,-3.5616,-3.5616,-3.5616,-3.5616,-3.5616,-3.565,-3.5701,-3.6231,-3.71,-3.7971,-3.9262,-4.0824,-4.1876,-4.2611,-4.3286,-4.3427,-4.3479,-4.3479,-4.3479,-4.3142,-4.2865,-4.2464,-4.2327,-4.2226,-4.2041,-4.2103,-4.2062,-4.2062,-4.1958,-4.1958,-4.1958,-4.1895,-4.1789,-4.153,-4.1508,-4.1556,-4.1686,-4.1916,-4.2018,-4.2129,-4.2317,-4.2388,-4.2607,-4.2782,-4.2452,-4.2189,-4.2157,-4.2117,-4.1834,-4.1562,-4.1296,-4.0855,-4.036,-4.0113,-4.0113,-4.0113,-4.0113,-4.0113,-4.0113,-4.0113,-4.0113,-4.0096,-3.9977,-3.9656,-3.9174,-3.8599,-3.7939,-3.7449,-3.7178,-3.7185,-3.7178,-3.7591,-3.8278,-3.8717,-3.9106,-3.9503,-3.9808,-4.0062,-4.0113,-4.0062,-4.0011,-3.9673,-3.9249,-3.865,-3.7821,-3.6688,-3.6874,-3.684,-3.6688,-3.6518,-3.7127,-3.755,-3.8041,-3.8751,-3.9283,-3.9639,-3.9943,-4.0113,-4.0113,-4.0113,-4.0113,-4.0113,-4.0113,-3.9943,-3.9656,-3.9005,-3.8345,-3.7939,-3.6975,-3.6163,-3.618,-3.5718,-3.5616,-3.5718,-3.6062,-3.5791,-3.5616,-3.5616,-3.5616,-3.5836,-3.5943,-3.5977,-3.6809,-3.7825,-3.8681,-3.9732,-4.1294,-4.2171,-4.2885,-4.3303,-4.3462,-4.3444,-4.3444,-4.3124,-4.2771,-4.232,-4.1856,-4.1468,-4.1353,-4.1196,-4.1331,-4.1424,-4.142,-4.1375,-4.1353,-4.1303,-4.1145,-4.1076,-4.0984,-4.103,-4.1173,-4.1408,-4.1655,-4.1915,-4.2091,-4.237,-4.2649,-4.287,-4.2963,-4.275,-4.2586,-4.2474,-4.2244,-4.1945,-4.1668,-4.1391,-4.0998,-4.0527,-4.0113,-4.0113,-4.0113,-4.0113,-4.0113,-4.0113,-4.0113,-4.0113,-4.0113,-3.9715,-3.9106,-3.9106,-3.8667,-3.8091,-3.7905,-3.7889,-3.7939,-3.7922,-3.8413,-3.8853,-3.9191,-3.9571,-3.9825,-4.0062,-4.0113,-4.0113,-4.0028,-3.9774,-3.9131,-3.8819,-3.8413,-3.7939,-3.7195,-3.7347,-3.7466,-3.7466,-3.7415,-3.7922,-3.8328,-3.8751,-3.9283,-3.969,-3.9926,-4.0113,-4.0113,-4.0113,-4.0113,-4.0113,-4.0113,-4.0113,-4.0062,-4.0028,-3.9571,-3.8684,-3.8193,-3.7449,-3.6366,-3.6005,-3.5836,-3.5853,-3.6248,-3.6654,-3.6265,-3.587,-3.587,-3.6107,-3.6394,-3.6671,-3.684,-3.7807,-3.8765,-3.9468,-4.0228,-4.1345,-4.23,-4.2884,-4.3339,-4.3444,-4.3392,-4.316,-4.2714,-4.2277,-4.1701,-4.1204,-4.0868,-4.0696,-4.0642,-4.0696,-4.0767,-4.0618,-4.057,-4.0538,-4.0458,-4.0303,-4.0303,-4.0507,-4.0778,-4.1016,-4.1182,-4.1429,-4.1714,-4.2157,-4.248,-4.2804,-4.3078,-4.3177,-4.3285,-4.3066,-4.2722,-4.2545,-4.2658,-4.2183,-4.2048,-4.1631,-4.1204,-4.0113,-4.0113,-4.0113,-4.0113,-4.0113,-4.0113,-4.0113,-4.0113,-4.0113,-3.9943,-3.9749,-3.9208,-3.8836,-3.865,-3.8142,-3.8294,-3.8514,-3.8768,-3.9191,-3.952,-3.969,-3.991,-4.0028,-4.0113,-4.0113,-4.0113,-4.0011,-3.9723,-3.9022,-3.8599,-3.8244,-3.7855,-3.7719,-3.8058,-3.8345,-3.8447,-3.8531,-3.8698,-3.902,-3.9308,-3.963,-4.001,-4.0121,-4.0121,-4.0113,-4.0113,-4.0113,-4.0113,-4.0113,-4.0113,-4.0113,-3.996,-3.9225,-3.8836,-3.843,-3.7202,-3.6677,-3.6485,-3.6535,-3.6924,-3.7313,-3.7483,-3.7313,-3.7313,-3.7246,-3.7195,-3.7297,-3.7449,-3.7625,-3.8367,-3.9204,-3.9986,-4.0784,-4.1712,-4.2462,-4.2846,-4.3214,-4.3214,-4.314,-4.2994,-4.2513,-4.1965,-4.1369,-4.0741,-4.0417,-4.0204,-4.0146,-4.0254,-4.0262,-4.0154,-4.0121,-4.0096,-4.0146,-4.0146,-4.018,-4.0356,-4.062,-4.0858,-4.1238,-4.1644,-4.2063,-4.249,-4.2717,-4.3102,-4.3568,-4.388,-4.4088,-4.3792,-4.342,-4.3775,-4.3908,-4.3227,-4.2642,-4.2286,-4.1999,-4.0113,-4.0113,-4.0113,-4.0113,-4.0163,-4.0392,-4.0527,-4.0476,-4.0248,-4.0113,-4.0028,-3.9309,-3.8988,-3.892,-3.8599,-3.8734,-3.9419,-3.9453,-3.969,-3.9893,-4.0113,-4.0096,-4.0096,-4.0113,-4.0113,-4.0113,-4.0011,-3.9723,-3.9005,-3.8379,-3.7956,-3.8379,-3.8328,-3.8785,-3.9174,-3.936,-3.9419,-3.9517,-3.9676,-3.988,-4.0042,-4.0262,-4.0311,-4.0121,-4.0113,-4.0113,-4.0113,-4.0113,-4.0113,-4.0113,-4.0113,-3.9943,-3.936,-3.9157,-3.8565,-3.7523,-3.728,-3.7229,-3.7297,-3.7567,-3.7973,-3.8261,-3.8345,-3.8497,-3.8345,-3.8193,-3.8193,-3.8227,-3.8386,-3.8727,-3.957,-4.0388,-4.1286,-4.217,-4.2503,-4.2808,-4.2876,-4.2902,-4.2854,-4.2782,-4.2377,-4.1816,-4.118,-4.0526,-4.0113,-4.0113,-4.0113,-4.0146,-4.0154,-4.0146,-4.0096,-4.0096,-4.0163,-4.0214,-4.0282,-4.0493,-4.095,-4.1474,-4.2134,-4.2489,-4.2709,-4.3091,-4.3586,-4.3898,-4.4219,-4.4395,-4.4429,-4.4496,-4.4361,-4.4598,-4.4598,-4.4073,-4.3453,-4.3081,-4.2844,-4.0113,-4.0113,-4.0113,-4.0163,-4.0273,-4.0882,-4.1255,-4.1271,-4.062,-4.0214,-4.0096,-3.9428,-3.9182,-3.9249,-3.9123,-3.9402,-3.9808,-3.9926,-3.9926,-4.0113,-4.0113,-4.0113,-4.013,-4.0163,-4.0265,-4.0197,-4.013,-4.002,-3.914,-3.8599,-3.8514,-3.9039,-3.9073,-3.9402,-3.9825,-3.9926,-3.9893,-3.9951,-4.0236,-4.0497,-4.0268,-4.0449,-4.0607,-4.0179,-4.0113,-4.0113,-4.0113,-4.0113,-4.0113,-4.0113,-4.0096,-4.0079,-3.9673,-3.9309,-3.8582,-3.821,-3.7922,-3.799,-3.8075,-3.8294,-3.8616,-3.8903,-3.9089,-3.9326,-3.9225,-3.8971,-3.8903,-3.8988,-3.9172,-3.9452,-4.0137,-4.066,-4.1389,-4.1919,-4.2244,-4.2422,-4.2474,-4.2575,-4.2765,-4.2678,-4.2507,-4.1996,-4.1912,-4.1305,-4.0544,-4.035,-4.0113,-4.0113,-4.0113,-4.0113,-4.0146,-4.0146,-4.0163,-4.0316,-4.0764,-4.1052,-4.1559,-4.2134,-4.2811,-4.3284,-4.347,-4.3927,-4.4513,-4.453,-4.4462,-4.4513,-4.4564,-4.4598,-4.4598,-4.4598,-4.4598,-4.4598,-4.4231,-4.3775,-4.3656,-4.0113,-4.0113,-4.0113,-4.0392,-4.0916,-4.1119,-4.188,-4.2726,-4.1474,-4.0933,-4.0798,-4.0214,-3.9808,-3.9757,-3.9757,-3.9943,-4.0028,-4.0113,-4.0113,-4.0146,-4.0146,-4.0282,-4.0316,-4.0679,-4.0595,-4.0426,-4.0409,-4.0392,-3.9715,-3.9191,-3.9073,-3.9723,-3.9774,-3.9926,-4.0079,-4.0113,-4.0121,-4.0146,-4.0473,-4.0552,-4.0254,-4.0171,-4.0179,-4.0113,-4.0113,-4.0113,-4.0113,-4.0113,-4.0113,-4.0113,-4.0113,-3.9825,-3.93,-3.9106,-3.865,-3.8176,-3.8481,-3.8684,-3.8836,-3.9073,-3.9428,-3.9639,-3.9808,-3.9926,-3.991,-3.969,-3.9622,-3.974,-3.9917,-4.019,-4.0508,-4.0909,-4.1291,-4.1621,-4.1909,-4.1973,-4.2071,-4.2384,-4.2676,-4.2713,-4.2594,-4.2488,-4.2414,-4.1931,-4.1238,-4.0696,-4.0282,-4.0113,-4.0113,-4.0113,-4.0231,-4.0231,-4.0163,-4.0383,-4.0984,-4.1677,-4.2202,-4.2692,-4.3318,-4.3775,-4.4164,-4.4367,-4.4598,-4.4598,-4.4581,-4.4598,-4.4598,-4.4598,-4.4598,-4.4598,-4.4598,-4.4598,-4.4598,-4.4215,-4.4265,-4.0113,-4.0146,-4.0443,-4.0815,-4.1271,-4.1897,-4.2692,-4.3071,-4.2168,-4.1677,-4.1508,-4.0671,-4.0113,-4.0113,-4.0113,-4.0113,-4.0113,-4.0113,-4.0113,-4.0146,-4.0485,-4.0595,-4.0882,-4.1238,-4.1085,-4.0899,-4.0578,-4.0383,-4.0062,-3.9859,-3.9791,-4.0079,-4.0113,-4.0113,-4.0113,-4.0113,-4.0113,-4.0121,-4.0449,-4.0343,-4.0146,-4.0279,-4.0254,-4.0229,-4.0113,-4.0113,-4.0113,-4.0113,-4.0113,-4.0113,-4.0113,-4.0011,-3.969,-3.9588,-3.9326,-3.9157,-3.9276,-3.9503,-3.9605,-3.9808,-4.0113,-4.0113,-4.0113,-4.0079,-4.0079,-3.9876,-3.9876,-3.9977,-3.9977,-4.0228,-4.0383,-4.0703,-4.099,-4.1268,-4.1448,-4.1536,-4.209,-4.2677,-4.3226,-4.3768,-4.3488,-4.2993,-4.2699,-4.1897,-4.1271,-4.095,-4.0553,-4.013,-4.0113,-4.0265,-4.035,-4.0536,-4.0603,-4.0942,-4.1627,-4.2303,-4.2895,-4.3386,-4.3826,-4.4096,-4.4384,-4.4496,-4.4598,-4.457,-4.457,-4.4598,-4.4598,-4.4598,-4.4598,-4.4598,-4.4598,-4.4598,-4.4598,-4.4598,-4.4547,-4.0113,-4.0214,-4.0984,-4.1339,-4.1542,-4.2767,-4.346,-4.3453,-4.276,-4.2354,-4.2049,-4.0832,-4.0299,-4.0113,-4.0113,-4.0113,-4.018,-4.0383,-4.0333,-4.0536,-4.1052,-4.1068,-4.1339,-4.1779,-4.1525,-4.1035,-4.0527,-4.0333,-4.0096,-3.9994,-3.9977,-4.0096,-4.0113,-4.0113,-4.0113,-4.0113,-4.0113,-4.0113,-4.0204,-4.0146,-4.0286,-4.0546,-4.0368,-4.0204,-4.0113,-4.0113,-4.0113,-4.0113,-4.0113,-4.0113,-4.0113,-4.0045,-4.0011,-3.9926,-3.996,-3.9859,-3.9825,-3.996,-4.0028,-4.0028,-4.0113,-4.0113,-4.0113,-4.0113,-4.0113,-4.0113,-4.0113,-4.0113,-4.0113,-4.0146,-4.0311,-4.0441,-4.0696,-4.0924,-4.1043,-4.1419,-4.2253,-4.2993,-4.3711,-4.4445,-4.4113,-4.3561,-4.2997,-4.2134,-4.1508,-4.1187,-4.073,-4.0383,-4.018,-4.046,-4.0663,-4.1102,-4.1457,-4.188,-4.2388,-4.2723,-4.327,-4.3876,-4.4248,-4.4462,-4.4525,-4.431,-4.4281,-4.4542,-4.4542,-4.431,-4.4497,-4.4598,-4.4598,-4.4468,-4.4598,-4.4598,-4.4598,-4.4598,-4.4598,-4.0113,-4.0214,-4.1534,-4.2083,-4.2236,-4.3047,-4.3758,-4.4164,-4.3504,-4.2895,-4.2236,-4.1474,-4.0713,-4.013,-4.0113,-4.0214,-4.0536,-4.0773,-4.095,-4.1136,-4.1762,-4.1644,-4.1542,-4.1813,-4.1745,-4.1187,-4.051,-4.018,-4.0113,-4.0113,-4.0113,-4.0113,-4.0113,-4.0113,-4.0113,-4.0113,-4.0113,-4.0113,-4.0113,-4.0113,-4.0113,-4.0229,-4.0196,-4.0121,-4.0113,-4.0113,-4.0113,-4.0113,-4.0113,-4.0113,-4.0113,-4.0113,-4.0113,-4.0113,-4.0113,-4.0113,-4.0113,-4.0113,-4.0113,-4.0113,-4.0113,-4.0113,-4.0113,-4.0113,-4.0113,-4.0113,-4.0113,-4.0113,-4.0113,-4.0113,-4.0204,-4.0204,-4.0377,-4.065,-4.0839,-4.1818,-4.2739,-4.3261,-4.3809,-4.4248,-4.435,-4.4079,-4.3927,-4.2963,-4.1914,-4.1441,-4.0679,-4.035,-4.0341,-4.0646,-4.0906,-4.1468,-4.2031,-4.2716,-4.3172,-4.3052,-4.3463,-4.4131,-4.4412,-4.4076,-4.3856,-4.3785,-4.3844,-4.3885,-4.3902,-4.371,-4.396,-4.415,-4.4281,-4.4196,-4.4468,-4.4598,-4.4542,-4.4497,-4.4412]},{"header":{"parameterUnit":"m.s-1","parameterCategory":1,"la1":31.0,"la2":29.5877,"lo1":-88.7671,"lo2":-86.6584,"dx":0.0162,"dy":0.0185,"nx":115,"ny":88,"refTime":"2022-12-03T18:00:00:Z","depth":0,"parameterNumber":3,"parameterNumberName":"V-component_of_WINDS"},"data":[0.0,0.0,0.0,0.0,0.0,0.0,0.0,0.0,0.0,0.0,0.0,0.0,0.0,0.0,0.0,0.0,0.0,0.0,0.0,0.0,0.0,0.0,0.0,0.0,0.0,0.0,0.0,0.0,0.0,0.0,0.0,0.0,0.0,0.0,0.0,0.0,0.0,0.0,0.0,0.0,0.0,0.0,0.0,0.0,0.0,0.0,0.0,0.0,0.0,0.0,0.0,0.0,0.0,0.0,0.0,0.0,0.0,0.0,0.0,0.0,0.0,0.0,0.0,0.0,0.0,0.0,0.0,0.0,0.0,0.0,0.0,0.0,0.0,0.0,0.0,0.0,0.0,0.0,0.0,0.0,0.0,0.0,0.0,0.0,0.0,0.0,0.0,0.0,0.0,0.0,0.0,0.0,0.0,0.0,0.0,0.0,0.0,0.0,0.0,0.0,0.0,0.0,0.0,0.0,0.0,0.0,0.0,0.0,0.0,0.0,0.0,0.0,0.0,0.0,0.0,0.0,0.0,0.0,0.0,0.0,0.0,0.0,0.0,0.0,0.0,0.0,0.0,0.0,0.0,0.0,0.0,0.0,0.0,0.0,0.0,0.0,0.0,0.0,0.0,0.0,0.0,0.0,0.0,0.0,0.0,0.0,0.0,0.0,0.0,0.0,0.0,0.0,0.0,0.0,0.0,0.0,0.0,0.0,0.0,0.0,0.0,0.0,0.0,0.0,0.0,0.0,0.0,0.0,0.0,0.0,0.0,0.0,0.0,0.0,0.0,0.0,0.0,0.0,0.0,0.0,0.0,0.0,0.0,0.0,0.0,0.0,0.0,0.0,0.0,0.0,0.0,0.0,0.0,0.0,0.0,0.0,0.0,0.0,0.0,0.0,0.0,0.0,0.0,0.0,0.0,0.0,0.0,0.0,0.0,0.0,0.0,0.0,0.0,0.0,0.0,0.0,0.0,0.0,0.0,0.0,0.0,0.0,0.0,0.0,0.0,0.0,0.0,0.0,0.0,0.0,0.0,0.0,0.0,0.0,0.0,0.0,0.0,0.0,0.0,0.0,0.0,0.0,0.0,0.0,0.0,0.0,0.0,0.0,0.0,0.0,0.0,0.0,0.0,0.0,0.0,0.0,0.0,0.0,0.0,0.0,0.0,0.0,0.0,0.0,0.0,0.0,0.0,0.0,0.0,0.0,0.0,0.0,0.0,0.0,0.0,0.0,0.0,0.0,0.0,0.0,0.0,0.0,0.0,0.0,0.0,0.0,0.0,0.0,0.0,0.0,0.0,0.0,0.0,0.0,0.0,0.0,0.0,0.0,0.0,0.0,0.0,0.0,0.0,0.0,0.0,0.0,0.0,0.0,0.0,0.0,0.0,0.0,0.0,0.0,0.0,0.0,0.0,0.0,0.0,0.0,0.0,0.0,0.0,0.0,0.0,0.0,0.0,0.0,0.0,0.0,0.0,0.0,0.0,0.0,0.0,0.0,0.0,0.0,0.0,0.0,0.0,0.0,0.0,0.0,0.0,0.0,0.0,0.0,0.0,0.0,0.0,0.0,0.0,0.0,0.0,0.0,0.0,0.0,0.0,0.0,0.0,0.0,0.0,0.0,0.0,0.0,0.0,0.0,0.0,0.0,0.0,0.0,0.0,0.0,0.0,0.0,0.0,0.0,0.0,0.0,0.0,0.0,0.0,0.0,0.0,0.0,0.0,0.0,0.0,0.0,0.0,0.0,0.0,0.0,0.0,0.0,0.0,0.0,0.0,0.0,0.0,0.0,0.0,0.0,0.0,0.0,0.0,0.0,0.0,0.0,0.0,0.0,0.0,0.0,0.0,0.0,0.0,0.0,0.0,0.0,0.0,0.0,0.0,0.0,0.0,0.0,0.0,0.0,0.0,0.0,0.0,0.0,0.0,0.0,0.0,0.0,0.0,0.0,0.0,0.0,0.0,0.0,0.0,0.0,0.0,0.0,0.0,0.0,0.0,0.0,0.0,0.0,0.0,0.0,0.0,0.0,0.0,0.0,0.0,0.0,0.0,0.0,0.0,0.0,0.0,0.0,0.0,0.0,0.0,0.0,0.0,0.0,0.0,0.0,0.0,0.0,0.0,0.0,0.0,0.0,0.0,0.0,0.0,0.0,0.0,0.0,0.0,0.0,0.0,0.0,0.0,0.0,0.0,0.0,0.0,0.0,0.0,0.0,0.0,0.0,0.0,0.0,0.0,0.0,0.0,0.0,0.0,0.0,0.0,0.0,0.0,0.0,0.0,0.0,0.0,0.0,0.0,0.0,0.0,0.0,0.0,0.0,0.0,0.0,0.0,0.0,0.0,0.0,0.0,0.0,0.0,0.0,0.0,0.0,0.0,0.0,0.0,0.0,0.0,0.0,0.0,0.0,0.0,0.0,0.0,0.0,0.0,0.0,0.0,0.0,0.0,0.0,0.0,0.0,0.0,0.0,0.0,0.0,0.0,0.0,0.0,0.0,0.0,0.0,0.0,0.0,0.0,0.0,0.0,0.0,0.0,0.0,0.0,0.0,0.0,0.0,0.0,0.0,0.0,0.0,0.0,0.0,0.0,0.0,0.0,0.0,0.0,0.0,0.0,0.0,0.0,0.0,0.0,0.0,0.0,0.0,0.0,0.0,0.0,0.0,0.0,0.0,0.0,0.0,0.0,0.0,0.0,0.0,0.0,0.0,0.0,0.0,0.0,0.0,0.0,0.0,0.0,0.0,0.0,0.0,0.0,0.0,0.0,0.0,0.0,0.0,0.0,0.0,0.0,0.0,0.0,0.0,0.0,0.0,0.0,0.0,0.0,0.0,0.0,0.0,0.0,0.0,0.0,0.0,0.0,0.0,0.0,0.0,0.0,0.0,0.0,0.0,0.0,0.0,0.0,0.0,0.0,0.0,0.0,0.0,0.0,0.0,0.0,0.0,0.0,0.0,0.0,0.0,0.0,0.0,0.0,0.0,0.0,0.0,0.0,0.0,0.0,0.0,0.0,0.0,0.0,0.0,0.0,0.0,0.0,0.0,0.0,0.0,0.0,0.0,0.0,0.0,0.0,0.0,0.0,0.0,0.0,0.0,0.0,0.0,0.0,0.0,0.0,0.0,0.0,0.0,0.0,0.0,0.0,0.0,0.0,0.0,0.0,0.0,0.0,0.0,0.0,0.0,0.0,0.0,0.0,0.0,0.0,0.0,0.0,0.0,0.0,0.0,0.0,0.0,0.0,0.0,0.0,0.0,0.0,0.0,0.0,0.0,0.0,0.0,0.0,0.0,0.0,0.0,0.0,0.0,0.0,0.0,0.0,0.0,0.0,0.0,0.0,0.0,0.0,0.0,0.0,0.0,0.0,0.0,0.0,0.0,0.0,0.0,0.0,0.0,0.0,0.0,0.0,0.0,0.0,0.0,0.0,0.0,0.0,0.0,0.0,0.0,0.0,0.0,0.0,0.0,0.0,0.0,0.0,0.0,0.0,0.0,0.0,0.0,0.0,0.0,0.0,0.0,0.0,0.0,0.0,0.0,0.0,0.0,0.0,0.0,0.0,0.0,0.0,0.0,0.0,0.0,0.0,0.0,0.0,0.0,0.0,0.0,0.0,0.0,0.0,0.0,0.0,0.0,0.0,0.0,0.0,0.0,0.0,0.0,0.0,0.0,0.0,0.0,0.0,0.0,0.0,0.0,0.0,0.0,0.0,0.0,0.0,0.0,0.0,0.0,0.0,0.0,0.0,0.0,0.0,0.0,0.0,0.0,0.0,0.0,0.0,0.0,0.0,0.0,0.0,0.0,0.0,0.0,0.0,0.0,0.0,0.0,0.0,0.0,0.0,0.0,0.0,0.0,0.0,0.0,0.0,0.0,0.0,0.0,0.0,0.0,0.0,0.0,0.0,0.0,0.0,0.0,0.0,0.0,0.0,0.0,0.0,0.0,0.0,0.0,0.0,0.0,0.0,0.0,0.0,0.0,0.0,0.0,0.0,0.0,0.0,0.0,0.0,0.0,0.0,0.0,0.0,0.0,0.0,0.0,0.0,0.0,0.0,0.0,0.0,0.0,0.0,0.0,0.0,0.0,0.0,0.0,0.0,0.0,0.0,0.0,0.0,0.0,0.0,0.0,0.0,0.0,0.0,0.0,0.0,0.0,0.0,0.0,0.0,0.0,0.0,0.0,0.0,0.0,0.0,0.0,0.0,0.0,0.0,0.0,0.0,0.0,0.0,0.0,0.0,0.0,0.0,0.0,0.0,0.0,-1.0611,0.0,0.0,0.0,-1.0333,0.0,0.0,0.0,0.0,0.0,0.0,0.0,0.0,0.0,0.0,0.0,0.0,0.0,0.0,0.0,0.0,0.0,0.0,0.0,0.0,0.0,0.0,0.0,0.0,0.0,0.0,0.0,0.0,0.0,0.0,0.0,0.0,0.0,0.0,0.0,0.0,0.0,0.0,0.0,0.0,0.0,0.0,0.0,0.0,0.0,0.0,0.0,0.0,0.0,0.0,0.0,0.0,0.0,0.0,0.0,0.0,0.0,0.0,0.0,0.0,0.0,0.0,0.0,0.0,0.0,0.0,0.0,0.0,0.0,0.0,0.0,0.0,0.0,0.0,0.0,0.0,0.0,0.0,0.0,0.0,0.0,0.0,0.0,0.0,0.0,0.0,0.0,0.0,0.0,0.0,0.0,0.0,0.0,0.0,0.0,0.0,0.0,0.0,0.0,0.0,0.0,0.0,0.0,0.0,0.0,0.0,0.0,0.0,0.0,0.0,-1.0228,-1.0222,-1.0031,-0.9926,-1.0021,0.0,0.0,0.0,0.0,0.0,0.0,0.0,0.0,0.0,0.0,0.0,0.0,0.0,0.0,0.0,0.0,0.0,0.0,0.0,0.0,0.0,0.0,0.0,0.0,0.0,0.0,0.0,0.0,0.0,0.0,0.0,0.0,0.0,0.0,0.0,0.0,0.0,0.0,0.0,0.0,0.0,0.0,0.0,0.0,0.0,0.0,0.0,0.0,0.0,0.0,0.0,0.0,0.0,0.0,0.0,0.0,0.0,0.0,0.0,0.0,0.0,0.0,0.0,0.0,0.0,0.0,0.0,0.0,0.0,0.0,0.0,0.0,0.0,0.0,0.0,0.0,0.0,0.0,0.0,0.0,0.0,0.0,0.0,0.0,0.0,0.0,0.0,0.0,0.0,0.0,0.0,0.0,0.0,0.0,0.0,0.0,0.0,0.0,0.0,0.0,0.0,0.0,0.0,0.0,0.0,0.0,0.0,0.0,0.0,0.0,0.0,0.0,-0.9612,-0.9606,-0.9728,0.0,0.0,0.0,0.0,0.0,0.0,0.0,0.0,0.0,0.0,0.0,0.0,0.0,0.0,0.0,0.0,0.0,0.0,0.0,0.0,0.0,0.0,0.0,0.0,0.0,0.0,0.0,0.0,0.0,0.0,0.0,0.0,0.0,0.0,0.0,0.0,0.0,0.0,0.0,0.0,0.0,0.0,0.0,0.0,0.0,0.0,0.0,0.0,0.0,0.0,0.0,0.0,0.0,0.0,0.0,0.0,0.0,0.0,0.0,0.0,0.0,0.0,0.0,0.0,0.0,0.0,0.0,0.0,0.0,0.0,0.0,0.0,0.0,0.0,0.0,0.0,0.0,0.0,0.0,0.0,0.0,0.0,0.0,0.0,0.0,0.0,0.0,0.0,0.0,0.0,0.0,0.0,0.0,0.0,0.0,0.0,0.0,0.0,0.0,0.0,0.0,0.0,0.0,0.0,0.0,0.0,0.0,0.0,0.0,0.0,-0.8738,-0.8901,-0.891,0.0,-0.9512,0.0,0.0,0.0,0.0,0.0,0.0,0.0,0.0,0.0,0.0,0.0,0.0,0.0,0.0,0.0,0.0,0.0,0.0,0.0,0.0,0.0,0.0,0.0,0.0,0.0,0.0,0.0,0.0,0.0,0.0,0.0,0.0,0.0,0.0,0.0,0.0,0.0,0.0,0.0,0.0,0.0,0.0,0.0,0.0,0.0,0.0,0.0,0.0,0.0,0.0,0.0,0.0,0.0,0.0,0.0,0.0,0.0,0.0,0.0,0.0,0.0,0.0,0.0,0.0,0.0,0.0,0.0,0.0,0.0,0.0,0.0,0.0,0.0,0.0,0.0,0.0,0.0,0.0,0.0,0.0,0.0,0.0,0.0,0.0,0.0,0.0,0.0,0.0,0.0,0.0,0.0,0.0,0.0,0.0,0.0,0.0,0.0,0.0,0.0,0.0,0.0,0.0,0.0,0.0,0.0,0.0,0.0,0.0,0.0,0.0,-0.8057,-0.8155,-0.8447,-0.8861,0.0,0.0,0.0,0.0,0.0,0.0,0.0,0.0,0.0,0.0,0.0,0.0,0.0,0.0,0.0,0.0,0.0,0.0,0.0,0.0,0.0,0.0,0.0,0.0,0.0,0.0,0.0,0.0,0.0,0.0,0.0,0.0,0.0,0.0,0.0,0.0,0.0,0.0,0.0,0.0,0.0,0.0,0.0,0.0,0.0,0.0,0.0,0.0,0.0,0.0,0.0,0.0,0.0,0.0,0.0,0.0,0.0,0.0,0.0,0.0,0.0,0.0,0.0,0.0,0.0,0.0,0.0,0.0,0.0,0.0,0.0,0.0,0.0,0.0,0.0,0.0,0.0,0.0,0.0,0.0,0.0,0.0,0.0,0.0,0.0,0.0,0.0,0.0,0.0,0.0,0.0,0.0,0.0,0.0,0.0,0.0,0.0,0.0,0.0,0.0,0.0,0.0,0.0,0.0,0.0,0.0,0.0,0.0,0.0,0.0,-0.7596,-0.7531,-0.7661,-0.8155,-0.8635,-0.9145,0.0,0.0,0.0,0.0,0.0,0.0,0.0,0.0,0.0,0.0,0.0,0.0,0.0,0.0,0.0,0.0,0.0,0.0,0.0,0.0,0.0,0.0,0.0,0.0,0.0,0.0,0.0,0.0,0.0,0.0,0.0,0.0,0.0,0.0,0.0,0.0,0.0,0.0,0.0,0.0,0.0,0.0,0.0,0.0,0.0,0.0,0.0,0.0,0.0,0.0,0.0,0.0,0.0,0.0,0.0,0.0,0.0,0.0,0.0,0.0,0.0,0.0,0.0,0.0,0.0,0.0,0.0,0.0,0.0,0.0,0.0,0.0,0.0,0.0,0.0,0.0,0.0,0.0,0.0,0.0,0.0,0.0,0.0,0.0,0.0,0.0,0.0,0.0,0.0,0.0,0.0,0.0,0.0,0.0,0.0,0.0,0.0,0.0,0.0,0.0,0.0,0.0,0.0,0.0,0.0,0.0,0.0,0.0,-0.7232,-0.7045,-0.7106,-0.7493,-0.7939,-0.8404,0.0,0.0,0.0,0.0,0.0,0.0,0.0,0.0,0.0,0.0,0.0,0.0,0.0,0.0,0.0,0.0,0.0,0.0,0.0,0.0,0.0,0.0,0.0,0.0,0.0,0.0,0.0,0.0,0.0,0.0,0.0,0.0,0.0,0.0,0.0,0.0,0.0,0.0,0.0,0.0,0.0,0.0,0.0,0.0,0.0,0.0,0.0,0.0,0.0,0.0,0.0,0.0,0.0,0.0,0.0,0.0,0.0,0.0,0.0,0.0,0.0,0.0,0.0,0.0,0.0,0.0,0.0,0.0,0.0,0.0,0.0,0.0,0.0,0.0,0.0,0.0,0.0,0.0,0.0,0.0,0.0,0.0,0.0,0.0,0.0,0.0,0.0,0.0,0.0,0.0,0.0,0.0,0.0,0.0,0.0,0.0,0.0,0.0,0.0,0.0,0.0,0.0,0.0,0.0,0.0,0.0,0.0,0.0,0.0,-0.6576,-0.6581,-0.6651,-0.6806,-0.7423,-0.7977,0.0,0.0,0.0,0.0,0.0,0.0,0.0,0.0,0.0,0.0,0.0,0.0,0.0,0.0,0.0,0.0,0.0,0.0,0.0,0.0,0.0,0.0,0.0,0.0,0.0,0.0,0.0,0.0,0.0,0.0,0.0,0.0,0.0,0.0,0.0,0.0,0.0,0.0,0.0,0.0,0.0,0.0,0.0,0.0,0.0,0.0,0.0,0.0,0.0,0.0,0.0,0.0,0.0,0.0,0.0,0.0,0.0,0.0,0.0,0.0,0.0,0.0,0.0,0.0,0.0,0.0,0.0,0.0,0.0,0.0,0.0,0.0,0.0,0.0,0.0,0.0,0.0,0.0,0.0,0.0,0.0,0.0,0.0,0.0,0.0,0.0,0.0,0.0,0.0,0.0,0.0,0.0,0.0,0.0,0.0,0.0,0.0,0.0,0.0,0.0,0.0,0.0,0.0,0.0,0.0,0.0,0.0,0.0,0.0,-0.624,-0.6252,-0.633,-0.6468,-0.7063,-0.7626,0.0,0.0,0.0,0.0,0.0,0.0,0.0,0.0,0.0,0.0,0.0,0.0,0.0,0.0,0.0,0.0,0.0,0.0,0.0,0.0,0.0,0.0,0.0,0.0,0.0,0.0,0.0,0.0,0.0,0.0,0.0,0.0,0.0,0.0,0.0,0.0,0.0,0.0,0.0,0.0,0.0,0.0,0.0,0.0,0.0,0.0,0.0,0.0,0.0,0.0,0.0,0.0,0.0,0.0,0.0,0.0,0.0,0.0,0.0,0.0,0.0,0.0,0.0,0.0,0.0,0.0,0.0,0.0,0.0,0.0,0.0,0.0,0.0,0.0,0.0,0.0,0.0,0.0,0.0,0.0,0.0,0.0,0.0,0.0,0.0,0.0,0.0,0.0,0.0,0.0,0.0,0.0,0.0,0.0,0.0,0.0,0.0,0.0,0.0,0.0,0.0,0.0,0.0,0.0,0.0,0.0,0.0,0.0,-0.615,-0.6251,-0.6079,-0.6177,-0.6577,-0.698,-0.7434,0.0,0.0,0.0,0.0,0.0,0.0,0.0,0.0,0.0,0.0,0.0,0.0,0.0,0.0,0.0,0.0,0.0,0.0,0.0,0.0,0.0,0.0,0.0,0.0,0.0,0.0,0.0,0.0,0.0,0.0,0.0,0.0,0.0,0.0,0.0,0.0,0.0,0.0,0.0,0.0,0.0,0.0,0.0,0.0,0.0,0.0,0.0,0.0,0.0,0.0,0.0,0.0,0.0,0.0,0.0,0.0,0.0,0.0,0.0,0.0,0.0,0.0,0.0,0.0,0.0,0.0,0.0,0.0,0.0,0.0,0.0,0.0,0.0,0.0,0.0,0.0,0.0,0.0,0.0,0.0,0.0,0.0,0.0,0.0,0.0,0.0,0.0,0.0,0.0,0.0,0.0,0.0,0.0,0.0,0.0,0.0,0.0,0.0,0.0,0.0,0.0,0.0,0.0,0.0,0.0,0.0,0.0,0.0,0.0,-0.5516,-0.544,-0.5636,-0.6227,-0.6598,-0.7158,0.0,0.0,0.0,0.0,0.0,0.0,0.0,0.0,0.0,0.0,0.0,0.0,0.0,0.0,0.0,0.0,0.0,0.0,0.0,0.0,0.0,0.0,0.0,0.0,0.0,0.0,0.0,0.0,0.0,0.0,0.0,0.0,0.0,0.0,0.0,0.0,0.0,0.0,0.0,0.0,0.0,0.0,0.0,0.0,0.0,0.0,0.0,0.0,0.0,0.0,0.0,0.0,0.0,0.0,0.0,0.0,0.0,0.0,0.0,0.0,0.0,0.0,0.0,0.0,0.0,0.0,0.0,0.0,0.0,0.0,0.0,0.0,0.0,0.0,0.0,0.0,0.0,0.0,0.0,0.0,0.0,0.0,0.0,0.0,0.0,0.0,0.0,0.0,0.0,0.0,0.0,0.0,0.0,0.0,0.0,0.0,0.0,0.0,0.0,0.0,0.0,0.0,0.0,0.0,0.0,0.0,0.0,0.0,0.0,-0.441,-0.4856,-0.5239,-0.5593,-0.6235,-0.6952,-0.7666,0.0,0.0,0.0,0.0,0.0,0.0,0.0,0.0,0.0,0.0,0.0,0.0,0.0,0.0,0.0,0.0,0.0,0.0,0.0,0.0,0.0,0.0,0.0,0.0,0.0,0.0,0.0,0.0,0.0,0.0,0.0,0.0,0.0,0.0,0.0,0.0,0.0,0.0,0.0,0.0,0.0,0.0,0.0,0.0,0.0,0.0,0.0,0.0,0.0,0.0,0.0,0.0,0.0,0.0,0.0,0.0,0.0,0.0,0.0,0.0,0.0,0.0,0.0,0.0,0.0,0.0,0.0,0.0,0.0,0.0,0.0,0.0,0.0,0.0,0.0,0.0,0.0,0.0,0.0,0.0,0.0,0.0,0.0,0.0,0.0,0.0,0.0,0.0,0.0,0.0,0.0,0.0,0.0,0.0,0.0,0.0,0.0,0.0,0.0,0.0,0.0,0.0,0.0,0.0,0.0,0.0,0.0,0.0,-0.2981,-0.427,-0.4835,-0.4755,-0.5928,-0.6773,0.0,0.0,0.0,0.0,0.0,0.0,0.0,0.0,0.0,0.0,0.0,0.0,0.0,0.0,0.0,0.0,0.0,0.0,0.0,0.0,0.0,0.0,0.0,0.0,0.0,0.0,0.0,0.0,0.0,0.0,0.0,0.0,0.0,0.0,0.0,0.0,0.0,0.0,0.0,0.0,0.0,0.0,0.0,0.0,0.0,0.0,0.0,0.0,0.0,0.0,0.0,0.0,0.0,0.0,0.0,0.0,0.0,0.0,0.0,0.0,0.0,0.0,0.0,0.0,0.0,0.0,0.0,0.0,0.0,0.0,0.0,0.0,0.0,0.0,0.0,0.0,0.0,0.0,0.0,0.0,0.0,0.0,0.0,0.0,0.0,0.0,0.0,0.0,0.0,0.0,0.0,0.0,0.0,0.0,0.0,0.0,0.0,0.0,0.0,0.0,0.0,0.0,0.0,0.0,0.0,0.0,0.0,0.0,0.0,-0.185,-0.3292,-0.4284,-0.4724,-0.5928,-0.6848,0.0,0.0,0.0,0.0,0.0,0.0,0.0,0.0,0.0,0.0,0.0,0.0,0.0,0.0,0.0,0.0,0.0,0.0,0.0,0.0,0.0,0.0,0.0,0.0,0.0,0.0,0.0,0.0,0.0,0.0,0.0,0.0,0.0,0.0,0.0,0.0,0.0,0.0,0.0,0.0,0.0,0.0,0.0,0.0,0.0,0.0,0.0,0.0,0.0,0.0,0.0,0.0,0.0,0.0,0.0,0.0,0.0,0.0,0.0,0.0,0.0,0.0,0.0,0.0,0.0,0.0,0.0,0.0,0.0,0.0,0.0,0.0,0.0,0.0,0.0,0.0,0.0,0.0,0.0,0.0,0.0,0.0,0.0,0.0,0.0,0.0,0.0,0.0,0.0,0.0,0.0,0.0,0.0,0.0,0.0,0.0,0.0,0.0,0.0,0.0,0.0,0.0,0.0,0.0,0.0,0.0,0.0,0.0,-0.1917,-0.1195,-0.2302,-0.325,-0.4005,-0.5673,-0.6768,0.0,0.0,0.0,0.0,0.0,0.0,0.0,0.0,0.0,0.0,0.0,0.0,0.0,0.0,0.0,0.0,0.0,0.0,0.0,0.0,0.0,0.0,0.0,0.0,0.0,0.0,0.0,0.0,0.0,0.0,0.0,0.0,0.0,0.0,0.0,0.0,0.0,0.0,0.0,0.0,0.0,0.0,0.0,0.0,0.0,0.0,0.0,0.0,0.0,0.0,0.0,0.0,0.0,0.0,0.0,0.0,0.0,0.0,0.0,0.0,0.0,0.0,0.0,0.0,0.0,0.0,0.0,0.0,0.0,0.0,0.0,0.0,0.0,0.0,0.0,0.0,0.0,0.0,0.0,0.0,0.0,0.0,0.0,0.0,0.0,0.0,0.0,0.0,0.0,0.0,0.0,0.0,0.0,0.0,0.0,0.0,0.0,0.0,0.0,0.0,0.0,0.0,0.0,0.0,0.0,0.0,0.0,0.0,-0.1401,-0.0926,-0.1347,-0.208,-0.3086,-0.528,-0.6581,0.0,0.0,0.0,0.0,0.0,0.0,0.0,0.0,0.0,0.0,0.0,0.0,0.0,0.0,0.0,0.0,0.0,0.0,0.0,0.0,0.0,0.0,0.0,0.0,0.0,0.0,0.0,0.0,0.0,0.0,0.0,0.0,0.0,0.0,0.0,0.0,0.0,0.0,0.0,0.0,0.0,0.0,0.0,0.0,0.0,0.0,0.0,0.0,0.0,0.0,0.0,0.0,0.0,0.0,0.0,0.0,0.0,0.0,0.0,0.0,0.0,0.0,0.0,0.0,0.0,0.0,0.0,0.0,0.0,0.0,0.0,0.0,0.0,0.0,0.0,0.0,0.0,0.0,0.0,0.0,0.0,0.0,0.0,0.0,0.0,0.0,0.0,0.0,0.0,0.0,0.0,0.0,0.0,0.0,0.0,0.0,0.0,0.0,0.0,0.0,0.0,0.0,0.0,0.0,0.0,0.0,0.0,0.0,-0.1213,-0.0505,-0.1196,-0.2085,-0.3077,-0.4728,-0.5921,0.0,0.0,0.0,0.0,0.0,0.0,0.0,0.0,0.0,0.0,0.0,0.0,0.0,0.0,0.0,0.0,0.0,0.0,0.0,0.0,0.0,0.0,0.0,0.0,0.0,0.0,0.0,0.0,0.0,0.0,0.0,0.0,0.0,0.0,0.0,0.0,0.0,0.0,0.0,0.0,0.0,0.0,0.0,0.0,0.0,0.0,0.0,0.0,-0.6975,0.0,0.0,0.0,0.0,0.0,0.0,0.0,0.0,0.0,0.0,0.0,0.0,0.0,0.0,0.0,0.0,0.0,0.0,0.0,0.0,0.0,0.0,0.0,0.0,0.0,0.0,0.0,0.0,0.0,0.0,0.0,0.0,0.0,0.0,0.0,0.0,0.0,0.0,0.0,0.0,0.0,0.0,0.0,0.0,0.0,0.0,0.0,0.0,0.0,0.0,0.0,0.0,0.0,0.0,0.0,0.0,0.0,0.0,0.0,-0.0973,-0.0385,-0.0655,-0.1344,-0.2391,-0.3722,-0.5128,0.0,0.0,0.0,0.0,0.0,0.0,0.0,0.0,0.0,0.0,0.0,0.0,0.0,0.0,0.0,0.0,0.0,0.0,0.0,0.0,0.0,0.0,0.0,0.0,0.0,0.0,0.0,0.0,0.0,0.0,0.0,0.0,0.0,0.0,0.0,0.0,0.0,0.0,0.0,0.0,0.0,0.0,0.0,0.0,0.0,0.0,0.0,0.0,0.0,0.0,0.0,0.0,0.0,0.0,0.0,0.0,0.0,0.0,0.0,0.0,0.0,0.0,0.0,0.0,0.0,0.0,0.0,0.0,0.0,0.0,0.0,0.0,0.0,0.0,0.0,0.0,0.0,0.0,0.0,0.0,0.0,0.0,0.0,0.0,0.0,0.0,0.0,0.0,0.0,0.0,0.0,0.0,0.0,0.0,0.0,0.0,0.0,0.0,0.0,0.0,0.0,0.0,0.0,0.0,0.0,0.0,0.0,-0.1204,-0.0723,-0.0347,-0.0089,-0.0484,-0.1595,-0.2681,-0.4295,-0.6485,0.0,0.0,0.0,0.0,0.0,0.0,0.0,0.0,0.0,0.0,0.0,0.0,0.0,0.0,0.0,0.0,0.0,0.0,0.0,0.0,0.0,0.0,0.0,0.0,0.0,0.0,0.0,0.0,0.0,0.0,0.0,0.0,0.0,0.0,0.0,0.0,0.0,0.0,-0.4895,-0.4956,0.0,0.0,0.0,0.0,0.0,0.0,0.0,0.0,-0.6598,0.0,0.0,0.0,0.0,0.0,0.0,0.0,0.0,0.0,0.0,0.0,0.0,0.0,0.0,0.0,0.0,0.0,0.0,0.0,0.0,0.0,0.0,0.0,0.0,0.0,0.0,0.0,0.0,0.0,0.0,0.0,0.0,0.0,0.0,0.0,0.0,0.0,0.0,0.0,0.0,0.0,0.0,0.0,0.0,0.0,0.0,0.0,0.0,0.0,0.0,0.0,0.0,0.0,0.0,0.0,0.0,-0.1655,-0.1154,-0.0633,-0.0085,-0.0044,-0.0527,-0.1554,-0.2264,-0.3449,-0.5066,0.0,0.0,0.0,0.0,0.0,0.0,0.0,0.0,0.0,0.0,0.0,0.0,0.0,0.0,0.0,0.0,0.0,0.0,0.0,0.0,0.0,0.0,0.0,0.0,0.0,0.0,0.0,0.0,0.0,0.0,0.0,0.0,0.0,0.0,0.0,0.0,0.0,0.0,0.0,-0.4489,-0.4495,0.0,0.0,0.0,0.0,0.0,0.0,0.0,0.0,-0.6079,0.0,0.0,0.0,0.0,0.0,0.0,0.0,0.0,0.0,0.0,0.0,0.0,0.0,0.0,0.0,0.0,0.0,0.0,0.0,0.0,0.0,0.0,0.0,0.0,0.0,0.0,0.0,0.0,0.0,0.0,0.0,0.0,0.0,0.0,0.0,0.0,0.0,0.0,0.0,0.0,0.0,0.0,0.0,0.0,0.0,0.0,0.0,0.0,0.0,0.0,0.0,0.0,0.0,0.0,0.0,-0.1255,-0.0813,-0.0374,0.0,0.0,-0.0258,-0.0757,-0.1784,-0.2767,0.0,0.0,0.0,0.0,0.0,0.0,0.0,0.0,0.0,0.0,0.0,0.0,0.0,0.0,0.0,0.0,0.0,0.0,0.0,0.0,0.0,0.0,0.0,0.0,0.0,0.0,0.0,0.0,0.0,0.0,0.0,0.0,0.0,0.0,0.0,0.0,0.0,0.0,0.0,0.0,-0.3832,-0.3555,-0.3439,0.0,0.0,0.0,0.0,0.0,0.0,-0.4888,-0.5043,0.0,0.0,0.0,0.0,0.0,0.0,0.0,0.0,0.0,0.0,0.0,0.0,0.0,0.0,0.0,0.0,0.0,0.0,0.0,0.0,0.0,0.0,0.0,0.0,0.0,0.0,0.0,0.0,0.0,0.0,0.0,0.0,0.0,0.0,0.0,0.0,0.0,0.0,0.0,0.0,0.0,0.0,0.0,0.0,0.0,0.0,0.0,0.0,0.0,0.0,0.0,0.0,0.0,0.0,0.0,-0.0896,-0.0522,-0.0206,0.0,0.0,0.0,0.0,-0.1362,-0.2226,0.0,0.0,0.0,0.0,0.0,0.0,0.0,0.0,0.0,0.0,0.0,0.0,0.0,0.0,0.0,0.0,0.0,0.0,0.0,0.0,0.0,0.0,0.0,0.0,0.0,0.0,0.0,0.0,0.0,0.0,0.0,0.0,0.0,0.0,0.0,0.0,0.0,0.0,0.0,0.0,0.0,-0.2588,-0.2585,-0.2469,0.0,0.0,0.0,0.0,-0.3756,-0.3834,0.0,0.0,0.0,0.0,0.0,0.0,0.0,0.0,0.0,0.0,0.0,0.0,0.0,0.0,0.0,0.0,0.0,0.0,0.0,0.0,0.0,0.0,0.0,0.0,0.0,0.0,0.0,0.0,0.0,0.0,0.0,0.0,0.0,0.0,0.0,0.0,0.0,0.0,0.0,0.0,0.0,0.0,0.0,0.0,0.0,0.0,0.0,0.0,0.0,0.0,0.0,0.0,0.0,0.0,0.0,0.0,-0.0913,-0.0517,-0.0206,0.0,0.0,0.0,0.0,-0.109,-0.1848,0.0,0.0,0.0,0.0,0.0,0.0,0.0,0.0,0.0,0.0,0.0,0.0,0.0,0.0,0.0,0.0,0.0,0.0,0.0,0.0,0.0,0.0,0.0,0.0,0.0,0.0,0.0,0.0,0.0,0.0,0.0,0.0,0.0,0.0,0.0,0.0,0.0,0.0,0.0,0.0,0.0,-0.1725,-0.0981,-0.149,-0.1998,0.0,0.0,-0.2857,-0.2935,-0.2974,0.0,0.0,0.0,0.0,0.0,0.0,0.0,0.0,0.0,0.0,0.0,0.0,0.0,0.0,0.0,0.0,0.0,0.0,0.0,0.0,0.0,0.0,0.0,0.0,0.0,0.0,0.0,0.0,0.0,0.0,0.0,0.0,0.0,0.0,0.0,0.0,0.0,0.0,0.0,0.0,0.0,0.0,0.0,0.0,0.0,0.0,0.0,0.0,0.0,0.0,0.0,0.0,0.0,0.0,0.0,-0.0873,-0.0567,-0.0271,-0.008,0.0,0.0,0.0,0.0,-0.079,-0.1399,0.0,0.0,0.0,0.0,0.0,0.0,0.0,0.0,0.0,0.0,0.0,0.0,0.0,0.0,0.0,0.0,0.0,0.0,0.0,0.0,0.0,0.0,0.0,0.0,0.0,0.0,0.0,0.0,0.0,0.0,0.0,0.0,0.0,0.0,0.0,0.0,0.0,0.0,0.0,0.0,0.0,0.0,-0.052,-0.0761,0.0,0.0,0.0,-0.152,-0.1882,0.0,0.0,0.0,0.0,0.0,0.0,0.0,0.0,0.0,0.0,0.0,0.0,0.0,0.0,0.0,0.0,0.0,0.0,0.0,0.0,0.0,0.0,0.0,0.0,0.0,0.0,0.0,0.0,0.0,0.0,0.0,0.0,0.0,0.0,0.0,0.0,0.0,0.0,0.0,0.0,0.0,0.0,0.0,0.0,0.0,0.0,0.0,0.0,0.0,0.0,0.0,0.0,0.0,0.0,0.0,0.0,0.0,-0.03,-0.0113,0.0,0.0,0.0,0.0,0.0,-0.0538,0.0,0.0,0.0,0.0,0.0,0.0,0.0,0.0,0.0,0.0,0.0,0.0,0.0,0.0,0.0,0.0,0.0,0.0,0.0,0.0,0.0,0.0,0.0,0.0,0.0,0.0,0.0,-0.3392,0.0,0.0,0.0,0.0,0.0,0.0,0.0,0.0,0.0,0.0,0.0,0.0,0.0,0.0,-0.0436,-0.0243,-0.0285,-0.0369,0.0,0.0,-0.0488,-0.0977,-0.0838,-0.0903,0.0,0.0,0.0,0.0,0.0,0.0,0.0,0.0,0.0,0.0,0.0,0.0,0.0,0.0,0.0,0.0,0.0,0.0,0.0,0.0,0.0,0.0,0.0,0.0,0.0,0.0,0.0,0.0,0.0,0.0,0.0,0.0,0.0,0.0,0.0,0.0,0.0,0.0,0.0,0.0,0.0,0.0,0.0,0.0,0.0,0.0,0.0,0.0,0.0,0.0,0.0,0.0,0.0,0.0,0.0,-0.0292,-0.0112,0.0,0.0,0.0,0.0,0.0,-0.0421,-0.0773,0.0,0.0,0.0,0.0,0.0,0.0,0.0,0.0,0.0,0.0,0.0,0.0,0.0,0.0,0.0,0.0,0.0,0.0,0.0,0.0,0.0,0.0,0.0,0.0,0.0,0.0,0.0,0.0,0.0,0.0,0.0,0.0,0.0,0.0,0.0,0.0,0.0,0.0,0.0,0.0,0.0,-0.0238,-0.0041,-0.0163,-0.0287,0.0,0.0,-0.0326,-0.0366,-0.02,-0.0275,-0.0864,0.0,0.0,0.0,0.0,0.0,0.0,0.0,0.0,0.0,0.0,0.0,0.0,0.0,0.0,0.0,0.0,0.0,0.0,0.0,0.0,0.0,0.0,0.0,0.0,0.0,0.0,0.0,0.0,0.0,0.0,0.0,0.0,0.0,0.0,0.0,0.0,0.0,0.0,0.0,0.0,0.0,0.0,0.0,0.0,0.0,0.0,0.0,0.0,0.0,0.0,0.0,0.0,0.0,-0.0213,-0.0109,-0.0037,0.0,0.0,0.0,0.0,0.0,-0.0295,-0.0575,0.0,0.0,0.0,0.0,0.0,0.0,0.0,0.0,0.0,0.0,0.0,0.0,0.0,0.0,0.0,0.0,0.0,0.0,0.0,0.0,0.0,0.0,0.0,0.0,0.0,0.0,0.0,0.0,-0.1191,-0.086,-0.0685,0.0,0.0,0.0,0.0,0.0,0.0,0.0,0.0,0.0,0.0,-0.0081,0.0,-0.0084,0.0,0.0,-0.0128,-0.0125,-0.0125,-0.004,-0.0118,-0.0471,-0.0707,0.0,0.0,0.0,0.0,0.0,0.0,0.0,0.0,0.0,0.0,0.0,0.0,0.0,0.0,0.0,0.0,0.0,0.0,0.0,0.0,0.0,0.0,0.0,0.0,0.0,0.0,0.0,0.0,0.0,0.0,0.0,0.0,0.0,0.0,0.0,0.0,0.0,0.0,0.0,0.0,0.0,0.0,0.0,0.0,0.0,0.0,0.0,0.0,0.0,0.0,0.0,0.0,0.0106,0.0552,0.0186,0.0156,0.0462,0.0168,0.0,0.0,-0.0126,-0.0371,0.0,0.0,0.0,0.0,0.0,0.0,0.0,0.0,0.0,0.0,0.0,0.0,0.0,0.0,0.0,0.0,0.0,0.0,0.0,0.0,0.0,0.0,0.0,0.0,0.0,0.0,0.0,0.0,-0.0567,-0.0347,-0.0304,0.0,0.0,0.0,0.0,0.0,0.0,0.0,0.0,0.0,0.0,0.0,0.0,0.0,0.0,0.0,0.0,0.0,0.0,0.0,-0.004,-0.0275,0.0,0.0,0.0,0.0,0.0,0.0,0.0,0.0,0.0,0.0,0.0,0.0,0.0,0.0,0.0,0.0,0.0,0.0,0.0,0.0,0.0,0.0,0.0,0.0,0.0,0.0,0.0,0.0,0.0,0.0,-0.4322,0.0,0.0,0.0,0.0,0.0,0.0,0.0,0.0,0.0,0.0,0.0,0.0,0.0,0.0,0.0,0.0,0.0,0.0,0.0,0.0,0.0,0.0,0.0807,0.1808,0.0666,0.0536,0.1504,0.0546,0.0,0.0,0.0,-0.0124,-0.0315,0.0,0.0,0.0,0.0,0.0,0.0,0.0,0.0,0.0,0.0,0.0,0.0,0.0,0.0,0.0,0.0,0.0,0.0,0.0,0.0,0.0,0.0,0.0,0.0,0.0,0.0,-0.056,-0.0211,-0.0104,0.0,0.0,0.0,0.0,0.0,0.0,0.0,0.0,0.0,0.0,0.0,0.0,0.0,0.0,0.0,0.0,0.0,0.0,0.0,0.0,-0.004,0.0,0.0,0.0,0.0,0.0,0.0,0.0,0.0,0.0,0.0,0.0,0.0,0.0,0.0,0.0,0.0,0.0,0.0,0.0,0.0,0.0,0.0,0.0,0.0,0.0,0.0,0.0,-0.3507,-0.3695,0.0,0.0,0.0,0.0,0.0,0.0,0.0,0.0,0.0,0.0,0.0,-0.1719,-0.1346,0.0,0.0,0.0,0.0,0.0,0.0,0.0,0.0,0.0,0.0,0.0,0.0,0.1835,0.208,0.2203,0.204,0.159,0.1259,0.0714,0.0,0.0,-0.0082,-0.0315,0.0,0.0,0.0,0.0,0.0,0.0,0.0,0.0,0.0,0.0,0.0,0.0,0.0,0.0,0.0,0.0,0.0,0.0,0.0,0.0,0.0,0.0,0.0,0.0,0.0,-0.0555,0.0,0.0,0.0,0.0,0.0,0.0,0.0,0.0,0.0,0.0,0.0,-0.0079,0.0,0.0,0.0,0.0,0.0,0.0,0.0,0.0,0.0,0.0,0.0,0.0,0.0,0.0,0.0,0.0,0.0,0.0,0.0,0.0,-0.1146,-0.113,-0.1032,-0.0864,-0.0707,0.0,0.0,0.0,0.0,0.0,0.0,0.0,0.0,0.0,0.0,0.0,0.0,0.0,0.0,-0.28,0.0,-0.2931,0.0,0.0,0.0,0.0,0.0,0.0,0.0,0.0,-0.1177,-0.0989,-0.1074,-0.0805,-0.0646,0.0,-0.0437,-0.0288,0.0,0.0,0.0,0.0,0.0,0.0,0.0,0.0,0.271,0.3059,0.3203,0.3142,0.2759,0.2388,0.1887,0.1218,0.0787,0.0486,0.0354,-0.0309,-0.0688,0.0,0.0,0.0,0.0,0.0,0.0,0.0,0.0,0.0,0.0,0.0,0.0,0.0,0.0,0.0,0.0,0.0,0.0,0.0,0.0,0.0,0.0,0.0,-0.007,0.0,0.0,0.0,0.0,0.0,0.0,0.0,0.0,0.0,0.0152,0.0117,0.012,0.0123,0.0128,0.0175,0.022,0.0,0.0,0.0,0.0,0.0,0.0,0.0,0.0,0.0,0.0,-0.0039,-0.0159,-0.0324,-0.0413,-0.0374,0.0,0.0,-0.0661,-0.057,-0.0483,-0.0402,-0.0282,-0.0201,-0.0201,0.0244,0.0618,0.0,0.0,0.0,0.0,0.0,0.0,0.0,0.0,-0.2192,-0.2067,0.0,-0.1876,0.0,0.0,0.0,0.0,0.0,-0.111,0.0,0.0,-0.0307,-0.0077,-0.0235,-0.0235,-0.0118,0.0078,-0.0076,0.0491,0.1543,0.0431,0.0,0.0,0.0,0.0,0.0,0.0,0.3509,0.4603,0.3762,0.3761,0.4755,0.3932,0.3388,0.3302,0.2248,0.1647,0.1607,0.051,-0.0155,-0.019,0.0038,0.0,0.0,0.0,0.0,0.0,0.0,0.0,0.0,0.0,0.0,0.0,0.0,0.0,0.0,0.0,0.0,0.0,0.0,0.0,0.0,0.0105,0.0,0.0,0.0,0.0,0.0,0.0,0.0,0.0,0.0,0.0,0.0611,0.0436,0.0452,0.0462,0.0,0.0,0.0,0.0,0.0135,0.0359,0.018,0.0,0.0,0.0,0.0,0.0,0.0,0.0,0.0,0.0,0.0,0.0,0.0,-0.0084,-0.0253,-0.0295,-0.0252,0.0,0.0,0.0,0.0126,0.0964,0.1731,0.0,0.0,0.0,0.0,0.0,-0.0385,-0.0502,-0.066,-0.0648,-0.0767,-0.098,-0.0963,0.0,0.0,0.0,0.0,0.0,0.0,-0.0468,-0.0471,-0.0156,0.039,0.1058,0.1058,0.1449,0.2187,0.2137,0.2303,0.264,0.2307,0.2122,0.2193,0.0,0.0,0.0,0.0,0.4908,0.5251,0.5543,0.5378,0.478,0.4455,0.3965,0.3228,0.2858,0.2657,0.2657,0.2464,0.2261,0.213,0.2321,0.0,0.0,0.0,0.0,0.0,0.0,0.0,0.0,0.0,0.0,0.0,0.0,0.0,0.0,0.0,0.0,0.0,0.0,0.0,0.056,0.1246,0.1721,0.0,0.0,0.0,0.0,0.0,0.0,0.0,0.0,0.0,0.2605,0.1882,0.1453,0.0,0.0,0.1647,0.1524,0.1076,0.0763,0.0628,0.0269,0.0,0.0,0.0,0.0,0.0,0.0,0.0,0.0,0.0,0.0,0.0,0.0,0.0,-0.0088,-0.0086,0.0,0.0,0.0,0.0,0.1092,0.1613,0.2063,0.0,0.0,0.0,0.0,0.0,0.0,0.0,0.0,0.0,-0.0116,-0.0353,-0.0348,-0.0504,-0.0746,-0.0353,0.0,0.0,0.0,0.1058,0.1057,0.1175,0.1566,0.2151,0.2192,0.2503,0.3083,0.3118,0.3328,0.3749,0.3558,0.3648,0.3858,0.0,0.0,0.4249,0.5184,0.5708,0.5796,0.6316,0.6238,0.5425,0.5419,0.5095,0.4487,0.3992,0.3748,0.375,0.3444,0.3211,0.3125,0.3398,0.3361,0.0,0.0,0.0,0.0,0.0,0.0,0.0,0.0,0.0,0.0,0.0,0.0735,0.1225,0.0,0.0,0.0,0.1972,0.1617,0.153,0.211,0.0,0.0,0.0,0.0,0.0,0.0,0.0,0.3918,0.3972,0.4062,0.4278,0.3684,0.3111,0.2911,0.287,0.2862,0.2774,0.0,0.1345,0.1254,0.0538,0.0,0.0,0.0,0.0,0.0,0.0,0.0,0.0,0.0,0.0,0.0,0.0,0.0,0.0,0.0,0.0,0.0,0.0,0.0,0.155,0.2174,0.2849,0.0235,0.0,0.0,0.0,0.0,0.0,0.0,0.0157,0.0,0.0235,0.0235,0.0235,0.0235,0.0314,0.1293,0.0,0.3124,0.3124,0.3085,0.3124,0.3124,0.3163,0.3242,0.324,0.3279,0.3357,0.3357,0.3869,0.4776,0.4467,0.4753,0.5632,0.476,0.4612,0.5275,0.5736,0.6065,0.6236,0.6435,0.6545,0.6532,0.6518,0.6515,0.6471,0.5426,0.4815,0.4805,0.391,0.3363,0.3357,0.3756,0.3953,0.3862,0.0,0.0,0.0,0.0,0.0,0.0,0.0,0.0,0.0,0.0,0.0,0.0,0.0,0.0,0.0,0.3495,0.0,0.2669,0.283,0.0,0.0,0.0,0.3951,0.4377,0.4663,0.4888,0.4993,0.0,0.0,0.5637,0.5615,0.5154,0.4268,0.406,0.4107,0.4334,0.304,0.2103,0.2283,0.1165,0.0314,0.0,0.0,0.0,0.0,0.0,0.0,0.0,0.0,0.0,0.0,0.0,0.0,0.0,0.0,0.0,0.0,0.0,0.0538,0.1785,0.2942,0.4098,0.2345,0.2384,0.2383,0.1448,0.0078,0.0863,0.1215,0.1293,0.2034,0.2383,0.2384,0.2345,0.2345,0.2384,0.2618,0.2851,0.3124,0.3124,0.3124,0.3124,0.3124,0.3554,0.4295,0.4334,0.4727,0.5512,0.5547,0.5719,0.6053,0.5977,0.6117,0.6386,0.6182,0.5993,0.5906,0.6257,0.6522,0.6739,0.6778,0.6763,0.6647,0.6532,0.6515,0.6515,0.6235,0.6008,0.5912,0.5805,0.565,0.5559,0.5762,0.5638,0.5167,0.4952,0.0,0.0,0.0,0.0,0.0,0.0,0.0,0.0,0.0,0.258,0.3372,0.0,0.3964,0.0,0.5017,0.4747,0.3808,0.436,0.0,0.0,0.4807,0.4975,0.5387,0.5633,0.5826,0.5957,0.6123,0.6279,0.6508,0.6464,0.6422,0.6342,0.5697,0.5228,0.5144,0.4469,0.3888,0.3708,0.3127,0.2769,0.2592,0.1961,0.1021,0.0,0.0,0.0,0.0,0.0,0.0,0.0,0.0,0.0,0.0,0.0,0.0,0.1121,0.1389,0.1745,0.2948,0.4152,0.5312,0.3124,0.3124,0.3124,0.2422,0.1448,0.1995,0.2268,0.2308,0.2851,0.3124,0.3124,0.3124,0.3357,0.3826,0.3787,0.4062,0.453,0.453,0.453,0.4533,0.458,0.4915,0.5517,0.5576,0.5888,0.6458,0.6497,0.6495,0.661,0.6573,0.6617,0.6702,0.6766,0.6677,0.6466,0.6629,0.6797,0.6886,0.6861,0.6783,0.6702,0.6617,0.6654,0.6773,0.6669,0.6636,0.6674,0.6641,0.661,0.6419,0.6489,0.6342,0.5912,0.5637,0.5298,0.0,0.0,0.0,0.0,0.0,0.0,0.0,0.0,0.0,0.0,0.0,0.4894,0.5296,0.5638,0.5573,0.4972,0.5333,0.565,0.5734,0.5714,0.5867,0.615,0.6284,0.6425,0.6527,0.6668,0.6764,0.6902,0.6925,0.6966,0.7095,0.6653,0.6299,0.6124,0.5497,0.4914,0.4779,0.4107,0.3614,0.3614,0.2592,0.1567,0.0897,0.0359,0.0,0.0,0.0,0.0,0.0,0.0,0.0,0.0673,0.0808,0.121,0.2281,0.304,0.3619,0.4241,0.4956,0.5714,0.3513,0.3513,0.3513,0.3515,0.3513,0.3515,0.3435,0.3318,0.3435,0.3513,0.3513,0.3515,0.4027,0.4904,0.489,0.5452,0.6315,0.6334,0.6337,0.6364,0.6484,0.6498,0.6508,0.6637,0.6702,0.6702,0.6702,0.6712,0.6729,0.6729,0.6739,0.6763,0.7016,0.7171,0.7168,0.7297,0.7254,0.6996,0.6891,0.6819,0.6843,0.6906,0.7058,0.7303,0.7174,0.7167,0.7301,0.7141,0.6972,0.6782,0.6686,0.6563,0.6335,0.606,0.581,0.0,0.5364,0.0,0.0,0.0,0.0,0.0,0.0,0.0,0.0,0.573,0.5889,0.5743,0.5869,0.6005,0.6009,0.6018,0.6112,0.6456,0.6469,0.6524,0.6711,0.6756,0.6807,0.6939,0.691,0.7004,0.7078,0.7095,0.7095,0.7095,0.7051,0.7007,0.7007,0.6251,0.5672,0.5625,0.4732,0.4283,0.3927,0.3037,0.2326,0.2013,0.1076,0.0269,0.0,0.0,0.0,0.0,0.0,0.0628,0.1612,0.1879,0.2415,0.3571,0.4554,0.5181,0.5314,0.5536,0.5935,0.5709,0.5705,0.5709,0.5709,0.5709,0.5705,0.5198,0.4453,0.5315,0.5709,0.5709,0.5705,0.5885,0.6136,0.6032,0.6228,0.6607,0.6528,0.6498,0.6617,0.6644,0.6658,0.6658,0.6685,0.6702,0.6702,0.6702,0.6763,0.6885,0.6885,0.69,0.7058,0.8,0.8539,0.8582,0.0,0.0,0.0,0.7511,0.7493,0.7617,0.8099,0.832,0.84,0.8535,0.0,0.8453,0.8077,0.7778,0.7569,0.7091,0.0,0.0,0.0,0.0,0.0,0.0,0.0,0.0,0.0,0.0,0.0,0.5594,0.5745,0.5787,0.6146,0.6351,0.6354,0.6465,0.6542,0.6531,0.6534,0.6636,0.678,0.6796,0.6843,0.6994,0.7011,0.7028,0.7051,0.7058,0.7065,0.7088,0.7095,0.7095,0.7095,0.7095,0.7095,0.7095,0.6871,0.6782,0.6738,0.6425,0.6024,0.5223,0.4821,0.4152,0.3438,0.2281,0.1522,0.1344,0.0583,0.0045,0.0045,0.0807,0.1478,0.1836,0.2591,0.3616,0.4823,0.527,0.5406,0.5406,0.616,0.6874,0.6402,0.0,0.6487,0.6481,0.0,0.6521,0.6194,0.5731,0.6123,0.63,0.6303,0.6371,0.6443,0.6511,0.6478,0.6556,0.6698,0.662,0.6627,0.6705,0.6776,0.681,0.6814,0.6885,0.6876,0.6919,0.6876,0.6913,0.7027,0.7595,0.7933,0.8013,0.9144,0.9749,0.9749,1.0313,1.0135,0.9187,0.9134,0.9134,0.9179,0.9484,0.9691,0.9819,0.9846,0.0,0.0,0.0,0.0,0.0,0.0,0.0,0.0,0.0,0.0,0.6099,0.5995,0.5847,0.5779,0.6321,0.6591,0.6515,0.7291,0.7559,0.7058,0.7683,0.8127,0.8301,0.7873,0.7586,0.767,0.7143,0.6875,0.701,0.6991,0.7018,0.7082,0.7095,0.7095,0.7095,0.7095,0.7095,0.7095,0.7095,0.7095,0.7095,0.7095,0.7095,0.7095,0.7095,0.7095,0.7095,0.7095,0.6918,0.6337,0.5714,0.5267,0.4463,0.3482,0.2547,0.1878,0.1299,0.0896,0.0942,0.1433,0.2102,0.3395,0.4107,0.4863,0.5894,0.6248,0.6248,0.6251,0.6694,0.7095,0.6528,0.6562,0.6651,0.6702,0.6702,0.6702,0.6702,0.6681,0.0,0.0,0.0,0.6461,0.6566,0.6559,0.6658,0.6729,0.6776,0.6753,0.6753,0.6783,0.6862,0.6923,0.693,0.7041,0.7095,0.7095,0.7316,0.7401,0.7489,0.8623,0.9192,0.9279,1.0351,1.0999,1.1214,1.1219,1.1214,1.1171,1.0918,1.0745,1.0745,1.0832,1.1004,1.1219,1.1122,1.1104,1.1271,1.0847,1.0116,0.9048,0.8656,0.8004,0.6988,0.6872,0.6848,0.6913,0.6917,0.6865,0.6757,0.7676,0.8153,0.7986,0.928,0.9602,0.8621,0.9359,0.9857,0.9958,0.922,0.8693,0.8428,0.7772,0.7184,0.7129,0.7095,0.7095,0.7095,0.7095,0.7095,0.7095,0.7095,0.7095,0.7095,0.7095,0.7095,0.7095,0.7095,0.7095,0.7095,0.7095,0.7095,0.7095,0.7095,0.7095,0.6962,0.6384,0.5758,0.5669,0.4685,0.3571,0.2726,0.2236,0.2103,0.2102,0.2236,0.3261,0.4914,0.5492,0.6027,0.6918,0.7095,0.7095,0.7095,0.7095,0.7095,0.6549,0.6671,0.6692,0.6702,0.6702,0.6702,0.6702,0.6695,0.6658,0.6637,0.6641,0.6658,0.6739,0.6858,0.6753,0.6841,0.7024,0.6906,0.692,0.7031,0.7058,0.7065,0.7068,0.7085,0.7095,0.7183,0.8145,0.8627,0.8759,0.9792,1.0351,1.0481,1.1509,1.2553,1.3519,1.3603,1.361,1.3561,1.2009,1.1192,1.1192,1.1843,1.2143,1.2229,1.2364,1.2432,1.2468,1.2064,1.156,1.0924,1.032,0.972,0.9193,0.8932,0.9,0.9208,0.9228,0.9335,0.9562,0.9767,0.9852,0.9902,1.0805,1.1004,1.0039,1.0157,0.9947,0.9074,0.98,0.945,0.7716,0.8146,0.8198,0.7309,0.7139,0.7095,0.7095,0.7095,0.7095,0.7095,0.7095,0.7095,0.7095,0.7095,0.7095,0.7095,0.7095,0.7095,0.7095,0.7095,0.7095,0.7095,0.7095,0.7095,0.7051,0.7007,0.6782,0.6874,0.5847,0.5045,0.4645,0.3885,0.3393,0.3349,0.4018,0.4865,0.5494,0.6248,0.6738,0.7098,0.7102,0.7112,0.7115,0.7119,0.7112,0.6763,0.6834,0.6862,0.6896,0.6896,0.6896,0.6896,0.6896,0.6896,0.6848,0.6712,0.6787,0.6861,0.6883,0.6936,0.6967,0.7092,0.7028,0.7381,0.8057,0.8061,0.8404,0.8965,0.9008,0.9008,0.9052,0.9531,0.984,0.9923,1.0994,1.1515,1.1595,1.2687,1.3555,1.4039,1.4088,1.4088,1.4082,1.3264,1.2833,1.2833,1.3137,1.3313,1.3313,1.3398,1.3483,1.3476,1.3131,1.2614,1.204,1.1404,1.0767,1.0187,0.9919,0.9859,0.9956,0.9961,1.0053,1.0191,1.0686,1.1318,1.1979,1.245,1.2647,1.2324,1.2224,1.2011,1.164,1.1625,1.1117,1.0,0.9874,0.9357,0.8189,0.8061,0.7797,0.7228,0.7095,0.7095,0.7095,0.7095,0.7095,0.7095,0.7095,0.7095,0.7095,0.7095,0.7095,0.7095,0.7095,0.7095,0.7095,0.7095,0.7095,0.7095,0.7095,0.7095,0.7095,0.6653,0.6071,0.5583,0.4865,0.4641,0.4596,0.509,0.5625,0.6115,0.6694,0.7051,0.7105,0.7176,0.7255,0.7268,0.7326,0.7284,0.6949,0.6943,0.7048,0.7095,0.7095,0.7095,0.7095,0.7095,0.7092,0.714,0.7168,0.7054,0.7106,0.7372,0.7442,0.7665,0.7881,0.7881,0.8404,0.9235,0.9279,0.9749,1.0529,1.0567,1.0567,1.0654,1.0864,1.0999,1.1128,1.2157,1.2717,1.2808,1.3646,1.4088,1.4088,1.4088,1.4088,1.4088,1.4088,1.4088,1.4088,1.4088,1.4088,1.4088,1.4088,1.4088,1.4075,1.3868,1.3467,1.2966,1.2471,1.1945,1.1313,1.1076,1.0971,1.0971,1.0971,1.0998,1.1089,1.1799,1.2669,1.3597,1.3706,1.38,1.4035,1.3881,1.3662,1.3607,1.2978,1.2504,1.1772,1.1381,1.0524,0.9449,0.9021,0.8544,0.7665,0.7492,0.7533,0.7489,0.7489,0.7533,0.7445,0.7268,0.7095,0.7095,0.7095,0.7095,0.7095,0.7095,0.7095,0.7095,0.7095,0.7095,0.7095,0.7095,0.7095,0.7095,0.7095,0.665,0.6071,0.5805,0.5805,0.5805,0.5761,0.616,0.6918,0.7095,0.7115,0.7152,0.7288,0.7415,0.7421,0.7499,0.7526,0.6964,0.7068,0.7143,0.7095,0.7183,0.7183,0.7228,0.7183,0.7139,0.7742,0.8566,0.7548,0.7767,0.8651,0.875,0.9235,1.0135,1.0265,1.0308,1.0438,1.0438,1.0524,1.0697,1.0654,1.0611,1.0826,1.1686,1.2157,1.22,1.33,1.3913,1.3955,1.4039,1.4088,1.4088,1.4088,1.4088,1.4088,1.4088,1.4088,1.4088,1.4088,1.4088,1.4088,1.4088,1.4088,1.4088,1.4062,1.4019,1.3955,1.3873,1.3686,1.3352,1.3287,1.3267,1.3227,1.3227,1.342,1.3661,1.3833,1.3869,1.4041,1.4028,1.4041,1.4088,1.4062,1.3565,1.2984,1.3421,1.2991,1.1128,1.1595,1.1643,1.0567,0.9666,0.8846,0.8755,0.8715,0.8719,0.8715,0.8711,0.8715,0.854,0.7753,0.7139,0.7095,0.7095,0.7095,0.7095,0.7095,0.7095,0.7095,0.7095,0.7095,0.7095,0.7095,0.7095,0.7095,0.7095,0.6962,0.6786,0.6786,0.6918,0.6605,0.683,0.6918,0.7007,0.7102,0.72,0.7295,0.737,0.7428,0.7539,0.7614,0.7597,0.78,0.8473,0.8331,0.8625,0.9148,0.9183,0.9179,0.9139,0.9183,0.944,0.9831,0.9396,0.944,0.9879,0.9879,1.0183,1.0567,1.0567,1.0999,1.1558,1.1595,1.1986,1.2607,1.2693,1.265,1.2693,1.3167,1.3343,1.3421,1.387,1.4088,1.4088,1.4088,1.4088,1.4088,1.4088,1.4088,1.4088,1.4088,1.4088,1.4088,1.4088,1.4088,1.4088,1.4088,1.4088,1.4102,1.4249,1.4422,1.4626,1.4609,1.4556,1.4429,1.4255,1.4039,1.3928,1.3908,1.3955,1.4075,1.4088,1.4088,1.4088,1.4088,1.4088,1.4088,1.4088,1.3864,1.3555,1.3822,1.3652,1.282,1.3075,1.2899,1.1815,1.1166,1.0654,0.9966,0.9923,0.9923,0.9927,0.9923,0.9618,0.889,0.7841,0.7183,0.7095,0.7095,0.7095,0.7095,0.7095,0.7095,0.7095,0.7095,0.7095,0.7095,0.7095,0.7095,0.7095,0.7095,0.7095,0.7095,0.7095,0.7095,0.7095,0.7095,0.7095,0.7095,0.7227,0.7305,0.7404,0.7563,0.7678,0.7828,0.7858,0.8101,0.9207,0.996,0.9826,1.0147,1.0707,1.0745,1.0666,1.0616,1.0567,1.0783,1.1037,1.108,1.1262,1.1477,1.1214,1.1214,1.152,1.1569,1.1992,1.2766,1.2802,1.3245,1.4046,1.4088,1.4088,1.4088,1.4088,1.4088,1.4088,1.4088,1.4088,1.4088,1.4088,1.4088,1.4088,1.4088,1.4088,1.4088,1.4088,1.4088,1.4088,1.4088,1.4088,1.4088,1.4088,1.4088,1.4095,1.4369,1.4656,1.4988,1.5082,1.5095,1.5001,1.4756,1.4476,1.4135,1.4088,1.4088,1.4088,1.4088,1.4088,1.4088,1.4088,1.4088,1.4088,1.4088,1.4088,1.4088,1.4088,1.4088,1.4088,1.4088,1.3688,1.2893,1.2547,1.1938,1.1171,1.1085,1.1085,1.108,1.1085,1.0654,0.9492,0.8408,0.7665,0.7665,0.736,0.7095,0.7095,0.7095,0.7095,0.7095,0.7095,0.7095,0.7095,0.7095,0.7095,0.7095,0.7095,0.7095,0.7095,0.7095,0.7095,0.7095,0.7095,0.7102,0.7112,0.7255,0.7434,0.7522,0.7685,0.7882,0.7928,0.8028,0.857,1.1359,1.137,1.1395,1.1358,1.1107,1.1196,1.0989,1.0921,1.0766,1.1273,1.2174,1.226,1.2863,1.3708,1.2705,1.282,1.3779,1.3779,1.3779,1.3906,1.3955,1.3997,1.4088,1.4088,1.4088,1.4088,1.4088,1.4088,1.4088,1.4088,1.4088,1.4088,1.4088,1.4088,1.4088,1.4088,1.4088,1.4088,1.4088,1.4088,1.4088,1.4088,1.4088,1.4088,1.4088,1.4088,1.4135,1.4369,1.4663,1.4963,1.5237,1.5303,1.5048,1.4981,1.4656,1.4168,1.4088,1.4088,1.4088,1.4088,1.4088,1.4088,1.4088,1.4088,1.4088,1.4088,1.4088,1.4088,1.4088,1.4088,1.4088,1.4088,1.4088,1.3864,1.2984,1.2413,1.2242,1.2242,1.2237,1.2242,1.2114,1.1595,1.0611,0.9536,0.8846,0.8496,0.7841,0.7139,0.7095,0.7095,0.7095,0.7095,0.7095,0.7095,0.7095,0.7095,0.7095,0.7095,0.7095,0.7095,0.7095,0.7095,0.7098,0.7105,0.7125,0.7136,0.7132,0.7257,0.7519,0.7678,0.7851,0.8011,0.7982,0.8038,0.8775,1.2131,1.2789,1.3632,1.3859,1.3619,1.3613,1.3513,1.3427,1.3421,1.3505,1.3665,1.3689,1.3955,1.4326,1.3911,1.3857,1.4095,1.4088,1.4088,1.4088,1.4088,1.4088,1.4088,1.4088,1.4088,1.4088,1.4088,1.4088,1.4088,1.4088,1.4088,1.4088,1.4088,1.4088,1.4088,1.4088,1.4088,1.4088,1.4088,1.4088,1.4088,1.4088,1.4088,1.4088,1.4088,1.4175,1.4362,1.4649,1.4937,1.5224,1.5518,1.5545,1.5244,1.4883,1.4509,1.4142,1.4088,1.4088,1.4088,1.4088,1.4088,1.4088,1.4088,1.4088,1.4088,1.4088,1.4088,1.4088,1.4088,1.4088,1.4088,1.4088,1.4088,1.4039,1.373,1.3379,1.3464,1.3464,1.347,1.3336,1.2851,1.2114,1.1643,1.0697,0.9705,0.9017,0.854,0.8013,0.7312,0.7139,0.7183,0.7139,0.7095,0.7095,0.7095,0.7095,0.7095,0.7095,0.7095,0.7102,0.7102,0.7112,0.7119,0.7173,0.7186,0.7302,0.7336,0.7439,0.7685,0.7851,0.7975,0.8028,0.7988,0.8531,0.9608,1.354,1.4249,1.5152,1.5371,1.5169,1.5142,1.5089,1.5022,1.5008,1.4894,1.4683,1.4663,1.4663,1.4663,1.4663,1.4569,1.4382,1.4369,1.4369,1.4369,1.4376,1.4358,1.4235,1.4229,1.4175,1.4102,1.4088,1.4088,1.4088,1.4088,1.4088,1.4088,1.4088,1.4088,1.4088,1.4088,1.4088,1.4088,1.4088,1.4088,1.4088,1.4088,1.4088,1.4102,1.4175,1.4315,1.4479,1.4803,1.5097,1.5384,1.5671,1.5651,1.5257,1.479,1.4389,1.4128,1.4088,1.4088,1.4088,1.4088,1.4088,1.4088,1.4088,1.4088,1.4088,1.4088,1.4088,1.4088,1.4088,1.4088,1.4088,1.4088,1.4088,1.4088,1.4088,1.4088,1.4088,1.4088,1.4088,1.3955,1.3421,1.2984,1.2766,1.1815,1.0956,1.0053,0.9705,0.9056,0.8444,0.7881,0.7665,0.7621,0.736,0.7183,0.7098,0.7143,0.7105,0.7109,0.7119,0.7119,0.7166,0.7169,0.7193,0.724,0.7356,0.7441,0.7556,0.7699,0.7796,0.7951,0.8084,0.8131,0.8627,0.9361,1.0534,1.5724,1.5704,1.5825,1.5645,1.5418,1.5398,1.5237,1.5109,1.5068,1.5023,1.5022,1.5015,1.5008,1.5008,1.5008,1.5001,1.5015,1.497,1.4923,1.4928,1.4941,1.4743,1.4496,1.4469,1.4329,1.4095,1.4088,1.4088,1.4088,1.4088,1.4088,1.4088,1.4088,1.4173,1.4166,1.425,1.425,1.437,1.4454,1.4328,1.4124,1.4377,1.4412,1.4362,1.4593,1.4756,1.463,1.4874,1.5137,1.5418,1.5631,1.5551,1.5102,1.4716,1.4402,1.4148,1.4088,1.4088,1.4088,1.4088,1.4088,1.4088,1.4088,1.4088,1.4088,1.4088,1.4088,1.4088,1.4088,1.4088,1.4088,1.4088,1.4088,1.4088,1.4088,1.4088,1.4088,1.4088,1.4088,1.4088,1.3913,1.4039,1.3822,1.3033,1.22,1.1815,1.1171,1.0481,1.0048,0.9362,0.8973,0.8715,0.8176,0.7634,0.7388,0.7146,0.7156,0.7125,0.7139,0.7159,0.7329,0.7373,0.7407,0.7455,0.7526,0.7611,0.7729,0.781,0.7892,0.8004,0.8117,0.8428,0.9262,1.0096,1.1404,1.5825,1.5825,1.5825,1.5778,1.5691,1.5691,1.5638,1.5565,1.5558,1.5451,1.5291,1.5264,1.5264,1.5264,1.5264,1.5364,1.5551,1.5551,1.5357,1.5082,1.5022,1.4854,1.4569,1.4516,1.4362,1.4128,1.4088,1.4088,1.4088,1.4088,1.4088,1.4088,1.4088,1.4496,1.5095,1.5213,1.5504,1.6247,1.6329,1.6329,1.6281,1.6288,1.6281,1.636,1.6698,1.6637,1.5973,1.5542,1.5437,1.5671,1.5778,1.5565,1.5077,1.4921,1.4589,1.4162,1.4088,1.4088,1.4088,1.4088,1.4088,1.4088,1.4088,1.4088,1.4088,1.4088,1.4088,1.4088,1.4088,1.4088,1.4088,1.4088,1.4088,1.4088,1.4088,1.4088,1.4088,1.4088,1.4088,1.4088,1.4088,1.4088,1.4088,1.3597,1.316,1.2504,1.1992,1.1612,1.0794,1.0467,1.0096,0.9966,0.9134,0.8397,0.8185,0.7914,0.7601,0.7447,0.7339,0.7307,0.7461,0.7533,0.757,0.7631,0.7702,0.7784,0.7853,0.7914,0.7938,0.8054,0.8127,0.8825,0.9805,1.1019,1.2328,1.5825,1.5825,1.5825,1.5825,1.5825,1.5825,1.5825,1.5825,1.5825,1.5725,1.5571,1.5558,1.5551,1.5558,1.5558,1.5651,1.5818,1.5825,1.5591,1.5304,1.5202,1.497,1.4669,1.4436,1.4282,1.4122,1.4088,1.4088,1.4088,1.4088,1.4088,1.4088,1.4088,1.437,1.5137,1.5538,1.6108,1.6683,1.705,1.7302,1.7302,1.7302,1.7302,1.7367,1.7863,1.7571,1.6698,1.6361,1.6099,1.5886,1.5825,1.5591,1.5216,1.5062,1.4794,1.4349,1.4148,1.4088,1.4088,1.4088,1.4088,1.4088,1.4088,1.4088,1.4088,1.4088,1.4088,1.4088,1.4088,1.4088,1.4088,1.4088,1.4088,1.4088,1.4088,1.4088,1.4088,1.4088,1.4088,1.4088,1.4088,1.4088,1.4088,1.4088,1.3822,1.3124,1.3071,1.3004,1.2129,1.1744,1.1549,1.1231,1.0509,0.9854,0.9254,0.8748,0.8196,0.7851,0.7536,0.7567,0.7634,0.7668,0.7702,0.7801,0.783,0.7847,0.7948,0.7958,0.7978,0.8088,0.8432,0.9558,1.073,1.194,1.3247,1.5825,1.5825,1.5825,1.5825,1.5825,1.5825,1.5825,1.5825,1.5825,1.5771,1.5758,1.5785,1.5751,1.5812,1.5738,1.5798,1.5825,1.5825,1.5812,1.5678,1.5458,1.513,1.4816,1.4355,1.4128,1.4095,1.4088,1.4088,1.4088,1.4088,1.4088,1.4088,1.4088,1.4166,1.4657,1.5296,1.6026,1.6478,1.7172,1.7698,1.7706,1.7658,1.7658,1.7732,1.8423,1.8296,1.7358,1.7326,1.6962,1.6015,1.5825,1.5685,1.5398,1.5124,1.4823,1.4496,1.4242,1.4115,1.4088,1.4088,1.4088,1.4088,1.4088,1.4088,1.4088,1.4088,1.4088,1.4088,1.4088,1.4088,1.4088,1.4088,1.4088,1.4088,1.4088,1.4088,1.4088,1.4088,1.4088,1.4088,1.4088,1.4088,1.4095,1.4108,1.4106,1.4103,1.4196,1.4161,1.4049,1.3404,1.3141,1.2629,1.1991,1.1404,1.0823,1.0173,0.9664,0.9339,0.8688,0.814,0.7928,0.7856,0.7834,0.7884,0.804,0.8067,0.8131,0.8233,0.8382,0.8627,0.9361,1.0534,1.1702,1.2909,1.3836,1.5825,1.5825,1.5825,1.5825,1.5825,1.5825,1.5825,1.5825,1.5825,1.5825,1.5825,1.5825,1.5825,1.5825,1.5825,1.5825,1.5872,1.592,1.5825,1.5698,1.5297,1.493,1.4623,1.4275,1.4088,1.4088,1.4166,1.4088,1.4088,1.425,1.4208,1.4088,1.4292,1.4573,1.5296,1.6355,1.7334,1.8141,1.9146,1.9638,1.9638,1.9638,1.9708,1.9801,2.0451,2.0247,1.9119,1.8181,1.7131,1.5967,1.5825,1.5698,1.5424,1.5124,1.4843,1.4569,1.4262,1.4088,1.4088,1.4088,1.4088,1.4088,1.413,1.4088,1.4088,1.4088,1.4088,1.4088,1.4088,1.4088,1.4088,1.4088,1.4088,1.4088,1.4088,1.4088,1.4088,1.4088,1.4088,1.4088,1.4088,1.4108,1.4148,1.4282,1.4396,1.4456,1.4643,1.485,1.471,1.4672,1.4193,1.4069,1.3595,1.3003,1.2384,1.1735,1.1264,1.0964,1.0179,0.8957,0.8536,0.8101,0.8026,0.7975,0.8312,0.8428,0.8627,0.8775,0.897,0.9312,1.0529,1.175,1.2716,1.3782,1.4418,1.5825,1.5825,1.5825,1.5825,1.5825,1.5825,1.5825,1.5825,1.5825,1.5825,1.5825,1.5825,1.5825,1.5872,1.6339,1.6574,1.6669,1.7117,1.7262,1.6982,1.6529,1.5568,1.4649,1.4142,1.4088,1.4166,1.4566,1.4776,1.4894,1.5186,1.5428,1.5511,1.5436,1.5794,1.6396,1.7455,1.827,1.9036,2.005,2.0615,2.0615,2.0615,2.0566,2.0742,2.1416,2.1421,2.0443,1.871,1.7318,1.6662,1.615,1.5704,1.5565,1.5177,1.4941,1.4689,1.4329,1.4088,1.4088,1.413,1.4328,1.4573,1.4454,1.4419,1.4573,1.4412,1.4088,1.4088,1.4088,1.4088,1.4088,1.4088,1.4088,1.4088,1.4088,1.4088,1.4088,1.4088,1.4088,1.4108,1.4188,1.4269,1.4269,1.4522,1.4663,1.4756,1.5008,1.509,1.5144,1.515,1.5184,1.495,1.4727,1.409,1.3526,1.2964,1.2197,1.1963,1.1833,1.0534,0.9312,0.8772,0.9065,0.9114,0.897,0.9019,0.9509,0.9801,0.9948,1.0632,1.1843,1.2813,1.3638,1.4411,1.4997,1.5825,1.5825,1.5825,1.5825,1.5825,1.5825,1.5825,1.5825,1.5825,1.5825,1.5825,1.5825,1.5967,1.6055,1.7084,1.7738,1.7917,1.8718,1.881,1.8423,1.7736,1.6584,1.4979,1.4853,1.4824,1.4859,1.5504,1.5786,1.6034,1.6772,1.718,1.6976,1.7058,1.722,1.7334,1.831,1.8926,1.9155,2.004,2.0566,2.0615,2.0615,2.0615,2.0732,2.1466,2.1824,2.1013,1.936,1.7917,1.7917,1.6574,1.5859,1.5698,1.5291,1.519,1.5161,1.4795,1.448,1.4334,1.4454,1.4573,1.5019,1.4496,1.4496,1.4936,1.4531,1.4088,1.4088,1.4088,1.4088,1.4088,1.4088,1.4088,1.4088,1.4088,1.4088,1.4088,1.4088,1.4088,1.4108,1.4342,1.4482,1.4596,1.4783,1.5055,1.503,1.5237,1.5391,1.5444,1.5444,1.5531,1.5558,1.533,1.5065,1.4555,1.41,1.3278,1.2716,1.3054,1.2188,1.0435,0.9944,1.0534,1.0681,1.0337,1.0534,1.1068,1.1263,1.1312,1.194,1.3156,1.3734,1.4268,1.4949,1.5581,1.5825,1.5825,1.5825,1.5825,1.5825,1.5825,1.5825,1.5825,1.5825,1.5825,1.5825,1.5825,1.6386,1.7279,1.7731,1.8187,1.9031,1.9476,1.9113,1.8463,1.8025,1.749,1.6672,1.6609,1.6568,1.6601,1.6764,1.6976,1.7098,1.7293,1.7342,1.7423,1.7617,1.7342,1.7617,1.8598,1.9006,1.9204,2.0089,2.0566,2.0615,2.0615,2.0635,2.0752,2.1486,2.2181,2.2136,2.0404,1.9177,1.8588,1.707,1.5825,1.5758,1.5471,1.5572,1.5904,1.5799,1.5494,1.5396,1.5338,1.5095,1.4817,1.4699,1.4215,1.4328,1.4447,1.4208,1.413,1.4088,1.4208,1.4088,1.4088,1.4088,1.4088,1.4088,1.4088,1.4088,1.4088,1.4088,1.4162,1.4355,1.4522,1.4563,1.5037,1.5244,1.5324,1.5484,1.5685,1.5718,1.5698,1.5752,1.5825,1.5684,1.5396,1.524,1.4895,1.4364,1.383,1.4028,1.3986,1.2183,1.1404,1.1989,1.194,1.1556,1.1945,1.2576,1.2813,1.2856,1.3686,1.4316,1.4704,1.514,1.5683,1.5825,1.5825,1.5825,1.5825,1.5825,1.5825,1.5825,1.5825,1.5825,1.5825,1.5825,1.5967,1.6339,1.7084,1.7831,1.8864,1.9807,2.0255,2.0545,2.0467,2.0015,1.9497,1.9035,1.8891,1.8709,1.8461,1.7617,1.79,1.8069,1.8189,1.855,1.8957,1.8877,1.8829,1.8988,1.8868,1.9402,1.9766,1.9844,2.0245,2.0615,2.0615,2.0615,2.0899,2.1173,2.168,2.2275,2.2775,2.0764,1.9679,1.8902,1.7203,1.5825,1.5745,1.5484,1.5697,1.636,1.6154,1.6213,1.6263,1.6437,1.6478,1.6329,1.5918,1.6,1.6041,1.5959,1.5304,1.5026,1.4817,1.4734,1.4166,1.4088,1.4088,1.4088,1.4088,1.4088,1.4088,1.4088,1.4155,1.4295,1.4563,1.479,1.503,1.5324,1.5498,1.5591,1.5598,1.5778,1.5785,1.5772,1.5785,1.5825,1.5825,1.5758,1.5758,1.5581,1.5384,1.5045,1.5045,1.5003,1.4178,1.374,1.3638,1.3253,1.2861,1.3445,1.398,1.4166,1.431,1.48,1.5242,1.5635,1.5825,1.5825,1.5825,1.5825,1.5825,1.5825,1.5927,1.6062,1.615,1.6339,1.6473,1.6379,1.6702,1.6567,1.7537,1.818,1.8734,2.026,2.123,2.1524,2.1618,2.1521,2.1252,2.06,2.0292,2.0245,2.0079,1.9599,1.8029,1.8789,1.9204,1.9481,2.0079,2.0167,2.0489,2.0527,2.0245,2.045,2.0566,2.045,2.045,2.0527,2.0615,2.0615,2.0635,2.1006,2.1641,2.1846,2.2305,2.2539,2.1177,1.9852,1.9625,1.7436,1.6426,1.6154,1.5502,1.585,1.6938,1.6703,1.6759,1.7416,1.7585,1.7868,1.8767,1.7827,1.7666,1.7989,1.7504,1.6723,1.6116,1.5703,1.5255,1.4489,1.4166,1.4124,1.4088,1.4088,1.4108,1.4148,1.4155,1.4295,1.4482,1.479,1.5077,1.5297,1.5551,1.5705,1.5825,1.5825,1.5825,1.5825,1.5825,1.5825,1.5825,1.5825,1.5825,1.5825,1.5778,1.5676,1.5629,1.573,1.5588,1.5445,1.5099,1.4657,1.4459,1.4364,1.4752,1.4902,1.4848,1.514,1.5683,1.5825,1.5825,1.5825,1.5825,1.5825,1.5825,1.5825,1.5825,1.6386,1.7318,1.7365,1.7909,1.8764,1.8672,1.8856,1.881,1.9123,1.9761,2.0531,2.0935,2.1678,2.2074,2.2035,2.1709,2.1377,2.082,2.0615,2.0615,2.0566,2.0294,2.0235,2.0196,2.0167,2.0245,2.0527,2.0635,2.0625,2.0615,2.0615,2.0693,2.0625,2.0693,2.0762,2.0723,2.0683,2.0683,2.0674,2.1026,2.1818,2.1936,2.2334,2.266,2.181,2.1025,2.08,1.868,1.818,1.8072,1.6687,1.6892,1.828,1.7987,1.7721,1.8523,1.8709,1.827,1.7827,1.7626,1.7496,1.7698,1.7577,1.7496,1.7009,1.6314,1.5655,1.5455,1.4768,1.4201,1.4124,1.4144,1.4182,1.4355,1.4449,1.4489,1.4663,1.5023,1.5351,1.5524,1.5665,1.5758,1.5825,1.5825,1.5825,1.5825,1.5825,1.5825,1.5825,1.5825,1.5825,1.5825,1.5825,1.5778,1.573,1.5778,1.5778,1.5683,1.573,1.5534,1.514,1.514,1.5384,1.5486,1.5432,1.5534,1.5778,1.5825,1.5825,1.5825,1.5825,1.5825,1.5825,1.5872,1.648,1.7131,1.7738,1.8419,1.8956,1.9451,1.9497,1.9497,1.9679,2.0124,2.0711,2.1337,2.2031,2.2351,2.2301,2.208,2.165,2.1181,2.0801,2.0615,2.0615,2.0615,2.0732,2.0781,2.0703,2.0625,2.0615,2.0605,2.0684,2.082,2.0703,2.082,2.1094,2.1055,2.1064,2.1113,2.1025,2.0898,2.0859,2.0752,2.1094,2.1681,2.1943,2.2324,2.2679,2.1933,2.1337,2.0935,1.9579,1.9488,1.9393,1.8698,1.7818,1.9382,1.8994,1.882,1.9597,1.9795,1.955,1.9195,1.8957,1.8997,1.8988,1.9067,1.8709,1.806,1.7212,1.6519,1.6519,1.5504,1.5012,1.481,1.4468,1.4285,1.4469,1.4649,1.479,1.4903,1.5184,1.5458,1.5638,1.5745,1.5805,1.5825,1.5825,1.5825,1.5825,1.5825,1.5825,1.5825,1.5825,1.5825,1.5825,1.5825,1.5825,1.5825,1.5825,1.5825,1.5825,1.5825,1.5825,1.5629,1.5778,1.5825,1.5778,1.5629,1.573,1.5825,1.5825,1.5825,1.5825,1.5825,1.5825,1.6204,1.6292,1.7537,1.8187,1.8549,1.9405,2.0042,2.0178,2.0314,2.0359,2.0359,2.1212,2.1667,2.1871,2.2402,2.273,2.2373,2.1934,2.1484,2.1064,2.0752,2.0615,2.0615,2.0664,2.0771,2.1034,2.0928,2.0742,2.0723,2.0654,2.082,2.0947,2.0781,2.1045,2.1572,2.1357,2.1562,2.1621,2.1465,2.1181,2.1016,2.081,2.1036,2.1818,2.1894,2.2275,2.2897,2.2306,2.1845,2.148,2.0764,2.0395,2.114,1.9887,1.941,2.0021,1.9503,1.9692,2.0245,2.0518,2.0362,2.0206,2.0489,2.0527,2.0489,2.0167,2.0089,1.9313,1.835,1.7658,1.7496,1.6437,1.5786,1.5443,1.4811,1.4302,1.4609,1.4877,1.517,1.5304,1.5438,1.5565,1.5732,1.5772,1.5818,1.5825,1.5825,1.5825,1.5825,1.5825,1.5825,1.5825,1.5825,1.5825,1.5825,1.5825,1.5825,1.5825,1.5825,1.5825,1.5825,1.5825,1.5825,1.5825,1.5825,1.5825,1.5825,1.5825,1.5825,1.5825,1.5825,1.5825,1.5825,1.5825,1.5825,1.7498,1.7591,1.8772,1.9898,2.0755,2.098,2.1712,2.2501,2.2448,2.2677,2.2359,2.2721,2.2775,2.2795,2.2572,2.2373,2.1963,2.1572,2.1152,2.0762,2.0703,2.0683,2.0644,2.0615,2.0977,2.1278,2.12,2.1122,2.1143,2.0859,2.0879,2.1122,2.1035,2.1025,2.1836,2.158,2.1475,2.1738,2.1475,2.1074,2.0742,2.0664,2.1153,2.1691,2.1973,2.2305,2.2974,2.2765,2.2721,2.2633,2.1712,2.1756,2.2372,2.1351,2.1065,2.0893,2.031,1.9441,2.0372,2.0615,2.0615,2.0615,2.0615,2.0615,2.0615,2.0615,2.0489,2.0489,1.9432,1.8838,1.847,1.7001,1.6067,1.5565,1.5205,1.4861,1.4908,1.5044,1.5351,1.5558,1.5645,1.5698,1.5812,1.5818,1.5825,1.5825,1.5825,1.5825,1.5825,1.5825,1.5825,1.5825,1.5825,1.5825,1.5825,1.5825,1.5825,1.5825,1.5825,1.5825,1.5825,1.5825,1.5825,1.5825,1.5825,1.5825,1.5825,1.5825,1.5825,1.5825,1.5825,1.5825,1.5825,1.5825,1.5825,1.8726,1.8818,1.998,2.0792,2.1337,2.2031,2.2589,2.3003,2.3101,2.3101,2.3101,2.3101,2.3101,2.2984,2.2695,2.2285,2.1855,2.1406,2.0996,2.0742,2.0791,2.0928,2.1035,2.1221,2.1553,2.1738,2.1758,2.1797,2.1719,2.1602,2.1533,2.1797,2.1553,2.1621,2.2178,2.2051,2.209,2.21,2.1807,2.125,2.086,2.084,2.124,2.1855,2.21,2.2506,2.2925,2.3101,2.3101,2.3047,2.2457,2.2412,2.2553,2.2059,2.1753,2.132,2.078,2.0396,2.0586,2.0576,2.0615,2.0615,2.0615,2.0615,2.0615,2.0615,2.0615,2.0566,2.0206,1.9923,1.9687,1.851,1.7588,1.6836,1.5904,1.5351,1.5206,1.529,1.5458,1.5658,1.5825,1.5825,1.5825,1.5825,1.5825,1.5825,1.5825,1.5825,1.5825,1.5825,1.5825,1.5825,1.5825,1.5825,1.5825,1.5825,1.5825,1.5825,1.5825,1.5825,1.5825,1.5825,1.5825,1.5825,1.5825,1.5825,1.5825,1.5825,1.5825,1.5825,1.5825,1.5825,1.5825,1.5872,1.592,2.0124,2.0494,2.1391,2.1756,2.1845,2.2721,2.3091,2.3101,2.3101,2.3101,2.3101,2.3091,2.3042,2.2847,2.2519,2.207,2.168,2.1269,2.0918,2.081,2.0977,2.1151,2.1309,2.1631,2.2051,2.251,2.2168,2.2266,2.2441,2.2393,2.2305,2.249,2.1953,2.2178,2.25,2.249,2.2393,2.2187,2.1836,2.1269,2.0811,2.0996,2.1416,2.1875,2.2295,2.2662,2.3023,2.3101,2.3101,2.3091,2.3047,2.2829,2.2541,2.2372,2.1923,2.1473,2.1012,2.0858,2.0713,2.0615,2.0615,2.0615,2.0615,2.0615,2.0615,2.0615,2.0615,2.0615,2.0527,2.0527,2.0391,1.9604,1.8597,1.7662,1.6842,1.6175,1.5597,1.553,1.5565,1.5705,1.5825,1.5825,1.5825,1.5825,1.5825,1.5825,1.5825,1.5825,1.5825,1.5825,1.5825,1.5825,1.5825,1.5825,1.5825,1.5825,1.5825,1.5825,1.5825,1.5825,1.5825,1.5825,1.5825,1.5825,1.5825,1.5825,1.5825,1.5825,1.5825,1.5825,1.5825,1.5825,1.5825,1.6015,1.652,2.1845,2.2862,2.2906,2.2906,2.2906,2.3047,2.3101,2.3101,2.3101,2.3101,2.3101,2.3071,2.2886,2.2559,2.2187,2.1758,2.1249,2.082,2.0693,2.0742,2.0986,2.1229,2.1444,2.1807,2.2187,2.251,2.249,2.2672,2.2925,2.2877,2.2744,2.251,2.2246,2.2519,2.2598,2.2399,2.2168,2.1914,2.1562,2.1182,2.0889,2.1064,2.1504,2.1914,2.2314,2.2705,2.3062,2.3101,2.3101,2.3101,2.3101,2.2828,2.251,2.249,2.207,2.1357,2.1181,2.0996,2.0732,2.0615,2.0615,2.0615,2.0615,2.0615,2.0615,2.0615,2.0615,2.0615,2.0615,2.0479,2.0351,1.9897,1.8945,1.7832,1.6957,1.6436,1.5906,1.5718,1.5745,1.5805,1.5825,1.5825,1.5825,1.5825,1.5825,1.5825,1.5825,1.5825,1.5825,1.5825,1.5825,1.5825,1.5825,1.5825,1.5825,1.5825,1.5825,1.5825,1.5825,1.5825,1.5825,1.5825,1.5825,1.5825,1.5825,1.5825,1.592,1.6197,1.6292,1.5967,1.5825,1.592,1.6473,1.703,1.7801,2.1987,2.3091,2.3101,2.3101,2.3101,2.3101,2.3101,2.3101,2.3101,2.3101,2.3101,2.3071,2.2857,2.248,2.207,2.165,2.1211,2.0762,2.0664,2.0869,2.1201,2.1572,2.1846,2.2204,2.2721,2.2818,2.2847,2.2896,2.3062,2.3101,2.2828,2.2607,2.251,2.2402,2.2383,2.1999,2.1668,2.1522,2.1317,2.1123,2.1112,2.1406,2.1846,2.2256,2.2676,2.2896,2.3081,2.3091,2.3101,2.3101,2.3101,2.273,2.2363,2.2402,2.1914,2.1103,2.1103,2.0957,2.0713,2.0615,2.0615,2.0615,2.0615,2.0615,2.0615,2.0615,2.0615,2.0615,2.0576,2.0479,1.9664,1.947,1.8904,1.7685,1.698,1.6668,1.6104,1.5853,1.5812,1.5825,1.5825,1.5825,1.5825,1.5825,1.5825,1.5825,1.5825,1.5872,1.6015,1.6244,1.6426,1.6466,1.6466,1.6332,1.6332,1.6103,1.592,1.6008,1.6103,1.6237,1.6426,1.5825,1.5832,1.5825,1.6055,1.6339,1.6615,1.6897,1.685,1.6615,1.6339,1.6204,1.6936,1.8041,1.8948,2.2306,2.3091,2.3101,2.3101,2.3101,2.3101,2.3101,2.3101,2.3101,2.3101,2.3101,2.3081,2.2779,2.2363,2.2031,2.1523,2.1064,2.0762,2.0713,2.1006,2.1475,2.1904,2.2285,2.2623,2.2994,2.3101,2.3101,2.3101,2.3101,2.3101,2.2838,2.2715,2.2734,2.2451,2.1992,2.1475,2.12,2.12,2.12,2.12,2.1239,2.1787,2.2139,2.2519,2.2838,2.3042,2.3091,2.3101,2.3101,2.3101,2.3023,2.2754,2.2412,2.207,2.1709,2.123,2.0869,2.0879,2.0713,2.0615,2.0615,2.0615,2.0615,2.0615,2.0615,2.0615,2.0615,2.0615,2.0566,2.0284,1.958,2.0083,1.9512,1.8433,1.8208,1.7774,1.6434,1.5818,1.5818,1.5825,1.5825,1.5825,1.615,1.6197,1.6292,1.6386,1.6567,1.6662,1.6803,1.7124,1.7529,1.7529,1.7429,1.725,1.7016,1.7296,1.7569,1.7662,1.7662,1.7436,1.7296,1.6702,1.6702,1.7343,1.7529,1.7304,1.7591,1.8149,1.7816,1.7304,1.7304,1.7529,1.8572,1.9716,2.0215,2.3047,2.3091,2.3101,2.3101,2.3101,2.3101,2.3101,2.3101,2.3101,2.3101,2.3081,2.3062,2.2656,2.207,2.1855,2.1406,2.0908,2.0742,2.083,2.1299,2.1748,2.2129,2.248,2.2828,2.3101,2.3101,2.3101,2.3101,2.3091,2.3003,2.2779,2.2471,2.2305,2.2168,2.1836,2.1445,2.12,2.12,2.12,2.122,2.1512,2.21,2.2402,2.2643,2.2906,2.3091,2.3101,2.3101,2.3101,2.3101,2.3101,2.2799,2.2402,2.2139,2.1728,2.1142,2.082,2.0664,2.0615,2.0615,2.0615,2.0615,2.0615,2.0615,2.0615,2.0615,2.0615,2.0615,2.0576,2.0703,2.0973,2.1144,2.0007,1.9048,1.8672,1.8072,1.6626,1.5825,1.5825,1.5825,1.5825,1.5872,1.6339,1.6662,1.6803,1.699,1.7264,1.7498,1.7723,1.7948,1.8403,1.8395,1.8349,1.8349,1.8303,1.8856,1.9177,1.926,1.9031,1.858,1.8357,1.8041,1.8265,1.8918,1.8821,1.845,1.8983,1.9592,1.964,1.9818,1.9271,1.9534,2.0531,2.1203,2.1578,2.3101,2.3101,2.3101,2.3101,2.3101,2.3101,2.3101,2.3101,2.3101,2.3091,2.3023,2.2871,2.2441,2.1943,2.1602,2.1318,2.1084,2.1025,2.121,2.168,2.209,2.2314,2.2584,2.2867,2.3091,2.3101,2.3101,2.3091,2.3091,2.2886,2.2457,2.2119,2.1709,2.1338,2.1279,2.1084,2.0889,2.1142,2.1249,2.1434,2.198,2.2363,2.2646,2.2847,2.3033,2.3101,2.3101,2.3101,2.3101,2.3101,2.3101,2.2808,2.2402,2.2109,2.1807,2.1201,2.0771,2.0859,2.0723,2.0615,2.0615,2.0625,2.0615,2.0615,2.0615,2.0615,2.0615,2.0635,2.0664,2.0603,2.0248,2.0403,1.9522,1.8176,1.7614,1.7216,1.6292,1.5967,1.5825,1.5825,1.5825,1.6615,1.721,1.8079,1.8349,1.858,1.8993,1.8856,1.8948,1.8948,1.9177,1.9177,1.9177,1.9314,1.9542,2.0087,2.0133,1.9988,1.9716,1.9268,1.9093,1.9366,1.9565,2.0105,1.9868,1.9723,2.0648,2.1612,2.2474,2.2631,2.1661,2.0949,2.1383,2.201,2.2545,2.3101,2.3101,2.3101,2.3101,2.3101,2.3101,2.3101,2.3101,2.3091,2.3023,2.2838,2.2617,2.2285,2.1904,2.1621,2.1465,2.1414,2.1465,2.1648,2.21,2.2353,2.2578,2.275,2.2925,2.3071,2.3101,2.3071,2.3042,2.2847,2.2604,2.2314,2.1836,2.1182,2.1289,2.1269,2.1182,2.1084,2.1435,2.168,2.1963,2.2373,2.2623,2.2828,2.3003,2.3101,2.3101,2.3101,2.3101,2.3101,2.3101,2.3003,2.2838,2.2519,2.2139,2.1904,2.1348,2.0879,2.0889,2.0674,2.0615,2.0674,2.082,2.0664,2.0615,2.0615,2.0615,2.0742,2.0752,2.0771,2.0772,2.0591,2.0567,1.954,1.8224,1.7414,1.7055,1.6244,1.5872,1.592,1.592,1.6662,1.7444,1.8511,1.9351,2.0169,2.0449,2.0764,2.0494,2.026,2.0314,2.0404,2.0449,2.0593,2.0908,2.1042,2.1221,2.1132,2.0809,2.0645,2.0542,2.0898,2.1331,2.1298,2.1264,2.1258,2.1597,2.2731,2.3606,2.3847,2.3779,2.3191,2.2682,2.2415,2.2725,2.3281,2.3101,2.3101,2.3101,2.3101,2.3101,2.3101,2.3101,2.3101,2.3101,2.293,2.2578,2.2578,2.2324,2.1992,2.1885,2.1875,2.1904,2.1894,2.2178,2.2432,2.2627,2.2789,2.2935,2.3071,2.3101,2.3101,2.3052,2.2906,2.2535,2.2412,2.2178,2.1904,2.1475,2.1562,2.1631,2.1631,2.1602,2.1894,2.2129,2.2373,2.2623,2.2857,2.2994,2.3101,2.3101,2.3101,2.3101,2.3101,2.3101,2.3101,2.3071,2.3052,2.2789,2.2334,2.2051,2.1621,2.0996,2.084,2.0742,2.0752,2.0928,2.1162,2.0937,2.0762,2.0762,2.0899,2.1065,2.1172,2.1269,2.1663,2.1876,2.1041,2.0167,1.906,1.8064,1.7217,1.6204,1.592,1.6062,1.6567,1.7584,1.8657,2.0226,2.1221,2.1445,2.181,2.1952,2.181,2.1676,2.1996,2.2085,2.2183,2.2369,2.2687,2.2687,2.228,2.2314,2.2039,2.2593,2.267,2.3004,2.3009,2.2945,2.2879,2.2905,2.3382,2.4117,2.4428,2.4479,2.4316,2.4196,2.3927,2.3488,2.3434,2.3789,2.3101,2.3101,2.3101,2.3101,2.3101,2.3101,2.3101,2.3101,2.3101,2.3003,2.2949,2.2637,2.2422,2.2314,2.2021,2.2109,2.2236,2.2383,2.2627,2.276,2.2857,2.2984,2.3052,2.3101,2.3101,2.3101,2.3042,2.2877,2.2529,2.2285,2.208,2.1855,2.1777,2.1973,2.2139,2.2197,2.2246,2.223,2.2415,2.258,2.2765,2.2926,2.3047,2.3047,2.3101,2.3101,2.3101,2.3101,2.3101,2.3101,2.3101,2.3013,2.2646,2.2422,2.2187,2.1424,2.1122,2.1064,2.1094,2.1318,2.1543,2.1641,2.1543,2.1543,2.1504,2.1475,2.1533,2.1621,2.1668,2.1984,2.1731,2.0982,2.0057,1.9009,1.8133,1.7311,1.6534,1.6859,1.7102,1.8029,1.9039,2.0129,2.1708,2.2178,2.2403,2.2862,2.3003,2.2775,2.2721,2.295,2.3047,2.3091,2.312,2.312,2.314,2.2832,2.3158,2.3411,2.3809,2.4043,2.398,2.3978,2.4291,2.4324,2.4212,2.4574,2.5198,2.5283,2.5068,2.5273,2.5159,2.4894,2.4619,2.4414,2.4248,2.3101,2.3101,2.3101,2.3101,2.313,2.332,2.3398,2.3369,2.3179,2.3101,2.3052,2.2695,2.251,2.2471,2.2285,2.2363,2.2701,2.2721,2.2857,2.2974,2.3101,2.3091,2.3091,2.3101,2.3101,2.3101,2.3042,2.2877,2.2519,2.2158,2.1914,2.2158,2.2129,2.2393,2.2617,2.2725,2.2701,2.2529,2.2448,2.2563,2.2712,2.2721,2.2633,2.3047,2.3101,2.3101,2.3101,2.3101,2.3101,2.3101,2.3101,2.3003,2.2725,2.2607,2.2266,2.1609,2.1523,2.1494,2.1533,2.1689,2.1924,2.209,2.2139,2.2227,2.2139,2.2051,2.2051,2.207,2.2107,2.2022,2.1429,2.0801,1.9692,1.861,1.7987,1.7404,1.765,1.8045,1.8801,1.9723,2.0668,2.1652,2.2475,2.2928,2.3101,2.3101,2.3101,2.3003,2.295,2.3003,2.3091,2.3091,2.313,2.3159,2.3198,2.3379,2.3643,2.3945,2.4326,2.4531,2.4658,2.4816,2.4975,2.5217,2.5402,2.5567,2.5586,2.5625,2.5547,2.5684,2.5684,2.5382,2.5088,2.4873,2.4736,2.3101,2.3101,2.3101,2.313,2.3252,2.3603,2.3818,2.3828,2.3393,2.3159,2.3091,2.2764,2.2565,2.2604,2.2588,2.2691,2.2925,2.2994,2.2994,2.3101,2.3101,2.3101,2.311,2.313,2.3188,2.3149,2.311,2.3105,2.2598,2.2285,2.2236,2.2539,2.2559,2.2691,2.2935,2.2994,2.2974,2.2834,2.2246,2.1931,2.2551,2.2306,2.1933,2.2906,2.3101,2.3101,2.3101,2.3101,2.3101,2.3101,2.3091,2.3081,2.2847,2.2695,2.2275,2.206,2.1894,2.1934,2.1982,2.2109,2.2295,2.2461,2.2568,2.2705,2.2646,2.25,2.2461,2.251,2.2502,2.2208,2.1736,2.0997,2.0019,1.9214,1.8588,1.8226,1.8303,1.9235,2.0628,2.1511,2.2187,2.3099,2.3412,2.3848,2.3408,2.3237,2.3101,2.3101,2.3101,2.3101,2.312,2.312,2.313,2.3218,2.3535,2.3701,2.3994,2.4326,2.4717,2.499,2.5098,2.5361,2.5635,2.5645,2.5606,2.5635,2.5664,2.5684,2.5684,2.5684,2.5684,2.5684,2.5537,2.5273,2.5205,2.3101,2.3101,2.3101,2.332,2.3623,2.374,2.418,2.4668,2.3945,2.3633,2.3555,2.3159,2.2925,2.2896,2.2896,2.3003,2.3052,2.3101,2.3101,2.312,2.312,2.3198,2.3218,2.3486,2.3437,2.334,2.333,2.332,2.293,2.2627,2.2559,2.2877,2.2906,2.2994,2.3081,2.3101,2.3047,2.3003,2.2262,2.2076,2.2775,2.296,2.2906,2.3101,2.3101,2.3101,2.3101,2.3101,2.3101,2.3101,2.3101,2.2935,2.2633,2.2578,2.2314,2.2041,2.2217,2.2334,2.2422,2.2559,2.2764,2.2828,2.2925,2.2994,2.2984,2.2857,2.2818,2.2886,2.2814,2.245,2.1994,2.1239,2.0531,1.9852,1.9376,1.9239,1.9117,2.0787,2.2453,2.3131,2.3793,2.41,2.4426,2.4209,2.3809,2.3496,2.3198,2.3101,2.3101,2.3101,2.3169,2.3169,2.313,2.3257,2.3662,2.4062,2.4365,2.4648,2.501,2.5273,2.5498,2.5615,2.5684,2.5684,2.5674,2.5684,2.5684,2.5684,2.5684,2.5684,2.5684,2.5684,2.5684,2.5527,2.5557,2.3101,2.312,2.335,2.3564,2.3828,2.4189,2.4648,2.493,2.4346,2.4062,2.3965,2.3422,2.3101,2.3101,2.3101,2.3101,2.3101,2.3101,2.3101,2.312,2.3315,2.3437,2.3603,2.3809,2.3721,2.3613,2.3428,2.3257,2.3071,2.2955,2.2916,2.3081,2.3101,2.3101,2.3101,2.3101,2.3101,2.3047,2.2306,2.2536,2.3003,2.2731,2.2775,2.2818,2.3101,2.3101,2.3101,2.3101,2.3101,2.3101,2.3101,2.3042,2.2857,2.2799,2.2705,2.2607,2.2676,2.275,2.2808,2.2925,2.3101,2.3101,2.3101,2.3081,2.3081,2.2964,2.2964,2.3023,2.3023,2.2702,2.2385,2.1756,2.1168,2.0576,2.0609,2.0652,2.1504,2.2991,2.4022,2.4574,2.4792,2.4635,2.4715,2.4189,2.3828,2.3643,2.3354,2.311,2.3101,2.3188,2.3237,2.3344,2.3383,2.3578,2.4033,2.4424,2.4766,2.5049,2.5303,2.5459,2.5625,2.5625,2.5684,2.5732,2.5732,2.5684,2.5684,2.5684,2.5684,2.5684,2.5684,2.5684,2.5684,2.5684,2.5654,2.3101,2.3159,2.3662,2.3867,2.3984,2.4754,2.5155,2.5088,2.4687,2.4453,2.4277,2.3574,2.3208,2.3101,2.3101,2.3101,2.314,2.3257,2.3227,2.3344,2.3701,2.3711,2.3867,2.4121,2.3975,2.3691,2.3398,2.3227,2.3091,2.3033,2.3023,2.3091,2.3101,2.3101,2.3101,2.3101,2.3101,2.3101,2.2862,2.3003,2.2677,2.2129,2.2492,2.2862,2.3101,2.3101,2.3101,2.3101,2.3101,2.3101,2.3101,2.3062,2.3042,2.2994,2.3013,2.2955,2.2935,2.3013,2.3052,2.3052,2.3101,2.3101,2.3101,2.3101,2.3101,2.3101,2.3101,2.3101,2.3101,2.3003,2.2633,2.2359,2.181,2.1588,2.1823,2.2197,2.3482,2.4635,2.511,2.5596,2.5469,2.5213,2.4824,2.4326,2.3965,2.3779,2.3516,2.3257,2.314,2.3359,2.3477,2.373,2.3935,2.418,2.4473,2.479,2.5171,2.5332,2.5547,2.5606,2.5771,2.61,2.6149,2.5781,2.5781,2.61,2.582,2.5684,2.5684,2.5868,2.5684,2.5684,2.5684,2.5684,2.5684,2.3101,2.3159,2.3919,2.4297,2.4385,2.4853,2.5264,2.5498,2.5117,2.4766,2.4385,2.3945,2.3506,2.311,2.3101,2.3159,2.3344,2.3481,2.3643,2.375,2.4111,2.4043,2.3984,2.4141,2.4102,2.3779,2.3389,2.314,2.3101,2.3101,2.3101,2.3101,2.3101,2.3101,2.3101,2.3101,2.3101,2.3101,2.3101,2.3101,2.3101,2.2818,2.2916,2.3047,2.3101,2.3101,2.3101,2.3101,2.3101,2.3101,2.3101,2.3101,2.3101,2.3101,2.3101,2.3101,2.3101,2.3101,2.3101,2.3101,2.3101,2.3101,2.3101,2.3101,2.3101,2.3101,2.3101,2.3101,2.3101,2.3101,2.2862,2.2862,2.2555,2.2707,2.293,2.3539,2.4489,2.4914,2.5293,2.5547,2.5605,2.5449,2.5361,2.4805,2.4199,2.3926,2.3486,2.3237,2.3291,2.3467,2.3796,2.4305,2.4697,2.4724,2.4988,2.5233,2.5538,2.5672,2.5965,2.6418,2.6744,2.6897,2.6802,2.6696,2.6706,2.6982,2.661,2.6332,2.6149,2.6294,2.5868,2.5684,2.5781,2.582,2.5965]}]]